ECMWFNIL_250_spd_000.txt.gz
Wind_Speed
34 34 34 34 34 35 35 35 36 38 39 39 39 39 38 38 39 40 40 39 39 39 39 41 41 43 50 55 56 56 51 45 42 42 39 36 35 38 42 43 43 43
34 34 34 35 35 36 36 37 37 39 39 38 38 38 38 39 40 39 39 41 42 42 42 41 43 47 55 59 58 57 52 47 44 42 39 38 40 43 44 45 45 45
34 35 35 36 36 37 38 39 40 40 40 39 39 38 36 37 37 36 38 41 44 46 45 45 49 54 58 59 59 57 54 50 48 45 42 43 45 46 46 45 45 45
35 35 36 37 38 39 40 42 42 42 41 39 37 35 33 34 35 36 38 41 45 47 48 51 55 57 58 58 58 57 55 53 50 47 46 47 49 49 47 45 46 45
35 36 38 39 39 40 41 42 42 42 40 37 35 35 35 35 36 38 39 41 43 45 48 52 56 56 56 57 57 56 55 53 50 48 48 50 52 51 48 47 48 49
36 38 39 40 40 41 41 41 41 41 39 37 40 41 39 38 39 41 42 43 44 46 49 52 54 54 55 56 56 56 54 51 49 49 50 52 52 52 52 52 53 54
37 39 40 41 41 40 40 39 38 37 37 40 46 44 40 40 41 42 43 45 46 48 51 53 54 53 53 54 55 54 52 50 49 50 51 52 54 55 55 55 55 55
39 39 38 39 39 40 40 37 34 35 39 45 48 44 42 43 42 41 42 45 46 48 51 53 53 52 52 54 56 54 51 49 48 50 52 55 58 59 57 56 54 53
40 38 37 38 40 40 41 40 40 42 46 49 50 47 46 46 45 45 46 48 49 50 51 52 52 52 56 59 59 56 53 51 51 54 56 59 62 61 58 54 52 51
40 38 40 40 39 41 44 47 50 50 49 50 53 54 52 50 50 51 51 51 50 50 51 50 50 55 61 63 59 53 52 52 54 56 57 60 63 60 55 51 51 53
41 42 43 41 41 45 49 53 54 53 53 54 56 58 56 53 51 51 50 49 47 47 47 47 51 59 63 61 55 51 51 53 55 58 62 65 66 61 54 52 52 54
45 44 44 45 48 51 53 55 54 52 54 56 55 56 57 54 51 49 48 48 46 45 46 49 56 62 63 60 58 56 57 59 63 66 69 70 70 64 58 56 56 56
46 44 43 45 50 52 54 54 51 48 51 54 53 55 58 57 53 50 49 48 46 45 48 54 59 62 62 62 62 63 65 67 68 69 70 72 72 68 62 60 60 61
46 44 43 43 46 51 52 49 47 47 51 53 54 56 59 59 55 51 48 48 48 48 51 56 60 62 63 64 65 68 70 69 67 68 70 73 73 69 65 64 65 66
47 46 44 43 43 47 52 52 51 52 53 53 53 55 57 58 56 54 53 53 54 56 59 62 64 65 66 67 68 71 72 70 69 71 73 74 73 72 70 69 69 68
49 47 46 45 42 43 50 53 52 52 52 50 50 52 55 57 58 59 62 63 64 65 67 68 68 67 68 69 71 73 74 75 75 75 76 75 75 74 73 72 69 65
52 49 46 45 43 43 46 49 49 49 49 48 49 53 56 58 60 63 66 68 70 70 72 72 72 71 72 73 75 76 77 77 77 76 74 73 73 72 71 69 65 61
56 53 48 45 44 44 45 47 49 49 48 49 53 56 59 60 62 63 66 68 70 72 74 75 75 76 76 77 78 78 78 78 77 75 73 72 72 71 71 69 65 62
60 57 53 48 45 45 46 47 50 51 51 54 57 60 61 62 62 64 66 68 69 71 73 75 76 76 76 77 77 78 78 78 77 76 74 74 74 73 70 67 64 61
63 61 57 53 50 48 48 50 52 55 56 58 61 63 64 64 65 66 67 68 69 71 72 73 75 75 75 75 76 77 78 78 78 78 78 78 77 73 70 66 64 62
65 63 60 57 54 52 51 53 55 58 60 62 64 65 66 67 67 67 68 68 69 70 71 72 73 73 73 73 74 75 77 78 79 80 80 79 78 75 72 70 67 66
66 65 62 61 58 55 54 56 59 61 63 64 66 68 68 68 68 68 68 68 69 70 70 70 71 71 71 71 72 74 75 76 78 78 78 77 75 74 73 71 69 69
67 66 64 63 61 58 58 59 61 63 65 66 68 70 70 68 68 67 67 67 68 68 69 69 69 70 70 70 72 74 75 76 77 77 78 77 73 70 71 71 71 72
67 66 65 64 62 61 61 63 64 65 66 67 68 69 68 66 66 66 66 67 68 68 67 67 67 67 67 69 72 74 75 76 77 77 77 77 74 72 74 75 74 74
67 66 65 64 63 63 64 66 66 67 68 69 68 68 67 66 66 66 67 68 69 68 68 67 65 64 65 67 69 71 73 74 75 76 77 78 77 76 76 76 76 76
66 66 65 64 65 66 68 69 69 69 70 69 69 69 68 68 68 68 70 70 70 69 69 67 67 67 68 69 70 70 71 72 73 75 77 78 78 78 77 77 77 78

ECMWFNIL_250_spd_003.txt.gz
Wind_Speed
27 26 26 26 27 28 28 28 28 28 29 29 29 30 31 30 28 28 33 35 33 32 32 32 32 31 31 31 33 36 39 40 41 39 37 38 40 40 38 35 35 37
28 27 27 27 28 29 30 30 30 30 31 31 31 31 32 31 30 33 37 38 34 32 32 34 35 33 31 32 34 38 40 40 40 39 38 39 41 41 39 36 37 39
29 29 28 29 30 30 31 32 31 32 32 33 33 32 33 33 36 38 39 36 32 31 32 34 36 37 36 36 37 39 39 40 40 41 42 43 43 42 40 40 42 42
30 29 29 30 31 32 33 33 32 33 34 34 35 33 33 37 40 40 36 34 34 34 34 36 39 42 43 42 41 39 38 39 41 43 44 44 44 45 46 46 47 46
31 30 30 31 31 32 32 31 32 35 36 36 36 34 36 41 43 41 38 39 42 39 37 38 41 44 45 44 42 40 38 39 40 43 45 45 47 50 52 50 47 45
32 31 31 32 32 32 31 31 34 37 38 40 40 39 42 45 46 46 44 45 46 44 40 41 43 45 46 44 41 40 40 40 41 44 47 48 50 52 51 49 46 46
34 34 33 33 33 33 33 34 37 40 41 43 44 45 47 47 48 48 45 45 46 45 45 45 46 48 48 45 43 42 43 45 45 46 48 50 52 51 50 51 51 53
36 36 36 35 35 35 35 37 39 41 42 45 47 50 49 48 48 47 43 44 46 46 48 51 50 50 49 47 46 45 46 47 48 48 49 52 54 54 55 58 60 61
40 39 39 38 37 38 38 37 38 40 41 46 51 53 51 49 47 43 40 42 46 49 54 54 52 51 51 50 49 48 48 50 51 52 53 56 59 61 63 64 64 65
44 43 42 41 41 41 41 40 39 40 42 47 52 53 52 50 46 44 44 45 47 51 54 53 51 52 52 53 53 53 55 57 58 59 60 63 65 67 68 68 68 67
48 47 44 43 43 43 44 44 43 43 44 47 52 53 52 51 49 50 50 50 50 50 50 49 50 51 53 55 57 59 61 62 63 65 66 67 68 69 70 71 70 70
51 49 48 47 46 45 46 46 46 46 46 48 51 53 53 53 53 52 51 50 49 47 48 50 52 53 55 57 60 62 63 64 65 66 67 67 67 68 70 71 71 71
51 50 49 48 47 46 47 49 49 49 49 50 52 52 52 54 54 53 52 50 49 48 50 53 55 57 59 61 63 64 65 66 67 67 68 68 68 69 70 70 71 71
53 52 51 50 49 48 48 50 51 52 51 52 53 51 51 51 52 53 53 51 51 51 53 56 59 61 63 64 65 67 67 68 69 70 70 71 71 72 72 72 72 72
56 56 55 53 53 51 49 49 51 53 53 54 53 52 51 51 51 51 52 52 53 55 57 59 61 63 65 66 67 68 69 70 71 72 73 73 74 75 75 75 75 74
58 59 59 58 56 54 52 51 52 54 55 55 55 54 53 53 52 52 52 54 55 57 59 60 61 64 66 67 68 69 70 71 71 73 73 74 75 75 75 75 75 74
59 60 61 61 60 58 57 55 55 55 56 56 54 54 53 54 53 53 53 54 56 58 60 61 63 65 67 68 69 70 71 71 71 71 72 73 74 75 76 75 73 72
61 62 62 62 61 61 60 58 58 57 57 56 54 53 53 53 53 53 53 55 56 58 60 62 64 66 67 68 69 70 71 71 71 71 71 72 73 74 74 73 72 70
62 64 64 62 61 61 61 60 59 59 58 57 56 55 54 54 54 54 55 56 57 59 60 62 65 66 67 68 69 70 71 71 71 71 71 71 71 71 71 71 71 70
63 64 65 65 63 63 63 63 62 61 60 60 59 58 57 57 56 56 57 59 59 60 62 64 66 66 67 68 69 69 70 70 71 71 71 71 71 72 71 71 72 73
64 64 66 67 66 66 66 66 65 64 63 63 62 61 60 60 59 59 60 62 62 63 65 66 67 67 68 69 69 69 69 70 70 70 70 70 71 71 72 72 74 76
66 66 67 68 68 68 68 68 67 66 66 65 63 62 61 61 61 62 63 64 65 65 67 68 67 68 69 70 70 70 70 69 69 68 68 69 70 71 72 72 75 78
68 68 69 69 69 69 69 70 69 69 68 67 65 64 63 62 63 64 66 67 68 68 70 70 69 69 71 71 71 70 70 69 68 68 68 69 70 70 72 73 76 78
70 71 71 71 71 71 71 71 71 71 69 68 67 65 63 63 64 66 68 69 70 70 72 72 71 71 72 72 71 71 70 69 68 69 70 71 71 72 74 76 78 79
73 73 73 73 72 71 71 72 72 71 69 68 67 66 65 66 67 68 70 71 72 73 73 73 72 72 73 73 72 72 71 70 70 71 72 73 73 74 77 79 81 82
75 75 75 75 74 72 72 72 73 71 69 69 68 68 69 69 69 69 71 72 73 74 75 75 74 73 73 73 73 72 71 71 73 74 75 75 75 77 79 81 83 85

ECMWFNIL_250_spd_006.txt.gz
Wind_Speed
24 23 23 22 22 22 23 24 25 26 28 29 29 28 29 31 32 33 34 34 34 36 39 42 43 42 40 37 35 35 37 39 40 40 39 40 42 43 44 45 45 45
25 24 23 23 23 23 24 25 27 28 29 29 29 29 31 33 35 36 38 37 38 40 44 45 44 43 42 39 37 37 39 43 43 41 40 41 43 44 45 46 47 48
26 25 25 24 24 24 25 26 28 29 29 29 30 31 34 36 37 38 39 39 40 42 45 46 46 44 42 42 42 42 45 45 43 41 41 41 43 45 46 47 48 49
27 27 27 26 26 26 27 28 29 30 31 31 32 34 35 37 38 39 40 41 42 44 46 46 46 45 43 44 46 46 46 45 43 42 42 41 43 46 48 49 50 51
28 29 28 28 28 28 29 30 31 32 33 33 34 35 35 37 38 40 42 43 44 45 47 47 47 46 47 48 48 47 45 43 43 44 45 45 47 48 50 52 52 51
30 31 31 31 31 30 31 33 33 34 35 35 36 36 36 37 39 41 43 45 46 48 49 49 49 49 49 49 48 46 44 43 45 47 49 50 51 52 53 54 54 54
33 33 33 33 33 33 34 36 36 36 37 37 37 38 38 39 41 42 43 45 47 49 50 51 50 50 50 48 46 44 43 44 47 49 51 53 54 55 56 56 57 58
35 36 36 36 36 37 38 39 39 39 40 40 40 40 40 41 42 43 45 46 47 49 50 51 51 51 50 48 46 44 45 47 49 51 52 54 56 57 58 59 59 60
39 40 40 38 39 40 41 41 42 42 42 42 41 41 41 42 43 44 45 47 48 50 51 50 50 51 50 50 48 48 49 50 52 53 54 55 57 58 60 60 61 62
42 42 42 41 42 43 44 44 44 44 44 43 43 43 43 44 45 46 47 48 49 50 51 50 50 50 50 51 51 51 52 53 54 55 57 58 59 60 61 62 63 64
44 44 43 44 45 46 46 46 46 46 46 46 45 45 45 46 48 49 49 50 50 51 50 49 48 50 50 51 52 53 54 55 56 58 59 60 61 61 62 63 64 65
45 45 45 46 48 48 48 49 49 48 48 48 48 47 48 49 51 52 53 54 54 54 51 47 47 50 51 51 52 53 55 56 58 60 61 62 63 63 63 64 65 66
47 47 47 48 50 51 51 51 51 50 50 49 49 49 49 50 52 55 56 57 57 56 51 46 48 52 52 52 52 53 55 57 60 61 63 64 65 65 66 66 67 67
49 48 49 49 51 52 52 53 52 52 51 50 50 50 50 51 53 55 57 60 59 55 52 51 53 55 55 54 54 53 55 57 60 62 64 65 66 66 67 68 68 68
51 51 51 51 52 53 54 54 54 53 52 52 51 52 52 52 53 54 58 60 57 54 56 58 59 59 58 57 55 54 55 58 60 63 65 66 67 67 68 69 69 68
53 54 54 54 54 54 55 55 55 55 54 54 54 54 54 54 54 55 56 56 54 57 61 62 61 61 60 59 57 55 56 58 60 63 65 66 67 67 68 69 69 69
55 56 57 57 56 56 57 57 57 57 56 56 56 57 57 57 57 56 55 55 58 61 63 62 61 62 62 60 59 57 57 59 61 63 65 66 67 67 68 68 69 70
57 58 59 59 58 58 59 59 60 59 58 58 58 58 59 59 59 59 57 59 62 63 62 62 62 62 62 61 60 59 58 60 62 64 65 66 67 67 68 69 69 70
59 59 60 60 60 60 60 61 62 62 62 61 61 61 61 62 62 62 61 61 63 63 62 62 61 61 62 62 61 60 60 61 64 65 66 67 68 68 69 70 71 71
61 61 61 61 61 61 62 63 64 65 65 65 65 64 64 65 65 65 65 64 64 65 64 63 62 62 63 64 64 63 62 64 66 67 68 69 69 70 71 71 72 72
63 62 62 62 63 63 64 65 66 67 68 68 68 67 67 68 68 68 68 67 67 67 66 66 64 64 64 66 67 66 66 67 68 69 70 71 72 73 73 73 73 73
64 64 64 64 65 66 66 67 68 70 71 71 71 70 69 70 70 70 69 70 69 69 69 69 68 66 66 68 68 69 70 71 71 72 73 74 75 76 76 75 75 74
65 66 66 66 67 68 68 69 71 72 73 74 75 73 72 72 72 72 70 70 70 70 71 71 69 68 69 70 70 71 72 73 74 75 75 76 77 77 77 77 77 76
67 68 68 69 69 70 71 72 73 74 76 77 78 76 74 73 73 73 71 69 70 71 72 72 71 72 73 73 72 73 74 75 76 76 76 77 78 79 79 79 78 78
69 69 70 71 71 72 73 74 76 77 78 79 80 79 78 76 74 72 71 70 71 72 73 73 73 74 75 74 74 75 75 76 77 77 78 79 79 80 80 80 80 80
70 71 71 72 73 74 76 77 78 79 80 81 80 81 81 78 74 72 71 72 72 72 72 73 74 74 74 75 75 77 77 78 79 79 80 80 80 81 81 81 81 82

ECMWFNIL_250_spd_009.txt.gz
Wind_Speed
21 21 20 21 22 22 22 22 23 23 24 24 26 27 28 29 31 32 33 33 34 36 37 39 40 41 43 44 45 45 45 45 43 42 42 40 38 36 37 39 41 42
23 23 23 23 24 24 23 23 23 23 24 25 27 28 29 30 32 33 33 33 35 36 37 38 40 41 42 43 44 45 46 46 46 45 44 42 40 39 41 43 44 45
25 25 25 25 26 25 24 24 24 24 25 26 28 29 30 31 33 34 35 35 35 35 37 38 39 40 41 43 44 45 45 46 46 46 45 44 44 44 45 45 46 47
28 28 28 28 27 27 26 25 25 25 26 27 29 30 31 33 35 36 37 37 37 38 38 39 40 41 43 44 46 47 47 46 45 45 45 45 45 46 46 47 47 48
31 30 30 29 28 28 28 27 27 27 28 29 31 32 32 34 36 38 39 40 40 41 41 41 42 43 44 46 48 49 48 45 43 44 46 46 46 46 47 48 48 49
33 33 32 31 30 30 30 29 29 30 30 31 32 33 34 35 36 38 40 41 42 43 44 44 45 45 46 48 50 51 48 44 43 47 49 48 48 48 48 48 49 50
35 35 34 32 32 32 32 32 32 32 33 34 34 35 36 36 37 39 40 42 43 44 45 46 47 48 48 51 53 51 47 45 47 50 51 50 49 50 50 50 50 51
37 37 35 34 34 34 34 34 34 35 35 36 36 37 38 38 39 41 42 43 44 46 47 48 49 50 50 53 54 49 47 50 53 53 52 51 51 51 52 52 53 53
39 38 38 37 37 36 37 37 37 38 38 38 39 39 40 41 42 43 44 45 46 47 48 49 50 50 51 53 52 49 51 56 57 55 54 53 52 53 54 54 55 56
40 40 40 39 39 39 39 39 40 40 40 41 41 41 42 43 44 45 46 47 48 49 50 50 51 51 52 54 53 53 56 58 57 57 56 54 54 55 56 57 57 57
42 42 42 42 42 41 41 42 42 43 43 42 42 43 44 45 46 47 48 49 49 50 51 52 52 53 54 55 56 56 58 58 58 59 58 57 56 57 58 58 59 58
45 45 45 45 44 43 43 43 44 44 44 44 44 45 45 47 48 48 50 51 51 52 53 53 54 54 56 57 57 59 60 58 59 61 60 59 58 58 59 59 59 60
47 47 47 47 47 46 45 45 45 45 45 46 46 47 47 48 49 50 51 52 53 54 54 55 56 56 57 58 59 61 59 58 61 62 60 59 59 59 60 60 60 60
50 50 50 49 49 48 47 47 47 46 47 48 48 49 50 50 51 52 53 53 54 55 55 56 57 58 59 59 59 60 59 60 63 62 59 59 60 60 60 61 61 61
51 51 51 51 50 50 50 49 49 49 49 49 50 50 51 53 53 54 54 55 57 57 57 57 58 59 60 61 61 61 62 63 62 60 60 60 60 60 62 62 62 62
53 52 51 52 52 52 53 52 52 51 51 52 52 52 53 55 56 57 57 57 57 59 59 59 59 59 61 63 64 65 65 64 62 61 61 62 61 62 63 63 63 64
55 54 53 53 55 55 55 55 54 54 54 54 55 55 56 57 58 60 59 59 62 62 60 58 59 60 62 63 65 66 64 63 63 63 62 63 63 64 65 65 65 65
57 55 55 55 56 57 57 56 56 56 56 56 57 57 58 59 61 62 63 65 63 57 54 57 61 62 62 61 61 62 62 62 64 64 64 66 67 66 67 67 67 67
59 57 56 57 58 58 58 58 58 58 58 58 58 59 60 61 62 63 65 62 56 53 59 67 68 66 63 60 57 56 58 61 64 66 68 70 70 69 69 69 69 69
61 59 58 59 60 60 60 60 60 60 60 60 61 62 62 63 63 64 66 63 61 65 72 74 71 69 67 63 57 53 54 61 66 69 72 73 72 71 71 71 71 71
63 61 61 62 62 63 63 63 63 62 62 62 63 64 65 65 65 65 67 68 69 71 73 72 72 72 70 66 61 56 56 62 67 70 73 74 73 73 73 72 72 72
66 65 65 65 65 66 66 66 65 65 64 64 65 66 68 68 68 68 69 70 71 72 72 73 74 73 72 70 67 63 61 62 65 70 73 73 73 74 74 74 74 74
70 69 68 68 69 69 68 68 68 67 67 66 66 68 70 71 71 72 73 73 74 74 74 74 74 75 75 74 72 70 67 66 69 72 73 73 74 75 75 75 75 76
73 73 72 72 72 71 71 71 70 69 68 68 69 70 71 73 74 75 76 76 76 77 76 76 76 76 76 75 73 72 70 71 73 73 74 75 76 77 77 77 77 77
76 76 76 76 76 75 75 74 73 72 71 71 71 72 73 75 77 77 78 78 79 79 79 78 77 77 76 74 73 71 71 72 73 74 75 77 77 78 79 79 78 78
80 81 82 82 81 80 79 79 78 76 75 74 73 75 77 78 79 79 79 80 81 81 81 79 78 77 75 73 72 71 71 72 73 75 76 77 78 79 80 80 80 79

ECMWFNIL_250_spd_012.txt.gz
Wind_Speed
20 20 22 22 21 20 21 21 21 21 22 24 24 24 26 27 27 28 29 31 32 34 34 34 35 36 36 37 37 38 39 40 41 41 39 35 34 38 41 41 41 40
22 22 22 23 21 21 22 22 22 23 24 25 25 26 27 28 28 29 30 31 33 34 34 35 36 37 38 38 39 39 40 41 41 41 39 37 39 42 43 42 42 42
24 23 23 23 21 21 22 23 24 24 26 27 28 28 29 29 30 30 31 32 34 35 35 36 37 38 39 40 40 41 41 41 41 41 41 41 42 44 44 43 44 44
26 25 25 24 22 21 23 24 26 26 28 29 29 30 30 31 31 32 33 34 35 36 36 37 38 39 40 41 41 42 42 42 42 42 42 43 44 45 44 44 46 46
29 27 26 25 23 23 24 25 27 28 30 31 32 32 33 33 34 34 34 35 36 37 38 38 38 40 41 42 42 43 43 44 44 44 44 44 46 45 44 45 47 47
30 29 28 26 24 24 25 26 28 30 32 33 34 34 35 36 36 36 36 37 38 38 39 39 40 40 41 43 44 44 45 45 45 45 45 46 46 46 46 47 48 47
33 31 29 27 26 26 26 27 29 31 33 35 36 37 37 38 38 38 38 38 39 40 41 41 41 42 43 43 45 46 46 46 47 47 47 47 48 48 48 47 48 47
35 33 31 29 28 27 27 28 30 33 35 36 38 39 39 40 40 40 40 40 41 42 43 43 43 44 44 45 46 48 48 48 48 49 50 50 51 50 48 48 49 48
36 35 34 32 30 28 28 30 32 34 36 38 39 41 42 42 42 42 43 43 44 44 46 46 46 46 45 47 49 50 51 51 50 51 53 54 53 52 50 50 50 49
36 35 35 34 33 31 31 33 36 37 38 40 41 43 43 44 44 45 45 46 46 47 49 49 49 48 48 49 51 54 54 51 50 55 57 57 57 55 54 53 52 52
36 35 36 36 34 33 35 38 39 40 41 42 43 44 45 45 46 47 48 48 49 49 51 52 51 50 50 50 52 55 52 47 52 60 62 61 61 60 58 56 56 56
39 37 36 36 36 37 40 41 42 42 42 43 44 46 47 48 49 49 50 50 50 51 52 53 53 52 52 51 52 53 48 47 57 64 64 63 64 62 60 60 59 58
41 40 38 38 39 41 43 43 43 43 43 45 46 48 49 50 51 51 52 52 52 53 53 54 55 55 54 53 53 54 53 55 61 64 64 65 65 64 62 60 58 58
43 42 41 42 42 43 44 44 44 44 45 46 48 50 52 52 53 54 54 55 55 55 55 56 57 56 55 55 54 55 56 58 60 62 65 66 67 66 63 58 57 59
45 44 44 44 44 45 45 45 45 45 46 48 49 51 53 54 55 56 57 58 58 58 57 57 58 58 57 56 55 56 57 58 59 62 64 67 68 66 62 59 61 63
48 47 47 46 46 46 46 46 47 47 48 49 50 52 53 55 57 58 58 59 60 60 59 59 59 59 58 58 58 57 58 59 60 62 64 67 68 65 62 62 64 66
50 49 49 48 48 48 48 48 48 48 49 50 51 52 54 57 59 60 60 61 61 61 61 60 61 60 59 60 59 59 60 61 62 64 66 67 67 64 63 64 65 66
52 51 51 50 50 50 49 49 49 50 51 51 52 53 55 58 60 61 62 62 63 63 63 62 62 61 60 60 62 62 60 59 62 67 69 68 65 63 64 65 66 67
54 53 53 52 52 51 51 50 51 51 52 53 54 56 57 60 62 63 64 64 65 66 65 65 64 62 60 61 63 63 59 57 62 68 66 62 60 63 68 70 69 71
56 55 55 54 54 53 52 52 53 54 54 55 56 58 60 62 63 65 66 67 68 68 68 67 66 63 62 63 65 63 60 59 61 61 57 57 61 67 73 74 72 73
57 57 57 56 55 55 55 55 55 56 57 57 58 60 62 64 65 67 69 69 70 70 69 68 68 66 65 67 67 66 64 61 57 54 54 60 67 71 73 72 72 74
58 58 58 58 58 58 58 58 58 59 59 59 60 63 65 66 67 68 70 71 71 71 69 69 69 69 68 69 68 68 66 62 59 59 61 66 71 72 71 71 73 74
60 60 61 62 62 60 60 61 61 61 61 61 63 65 67 68 69 70 71 72 72 71 71 71 71 70 69 69 68 68 68 66 64 66 69 71 72 71 71 73 74 75
62 64 65 66 64 63 63 63 63 63 63 64 66 67 69 70 71 72 73 73 72 72 72 72 72 71 70 69 69 69 69 68 68 70 71 71 71 71 72 74 74 75
66 68 68 67 66 66 66 66 65 65 66 66 68 70 71 72 73 75 76 75 73 74 74 73 73 72 71 70 70 70 70 69 70 70 70 70 70 71 73 74 74 76
69 70 69 68 68 68 68 68 67 67 68 70 72 73 74 75 77 79 79 78 76 76 76 75 74 72 71 70 69 69 69 69 68 69 69 69 71 72 73 74 75 76

ECMWFNIL_250_spd_015.txt.gz
Wind_Speed
18 18 16 15 14 13 12 12 13 15 16 16 16 18 19 20 21 23 24 25 26 28 29 29 30 31 32 33 34 35 35 36 36 36 36 36 36 36 36 38 39 39
20 19 17 16 15 15 15 15 16 17 18 17 17 19 20 21 23 24 25 26 27 28 29 30 31 32 33 34 35 36 36 36 37 38 39 39 37 36 36 40 42 41
23 21 19 17 17 17 17 18 18 19 20 19 19 20 21 22 24 25 26 27 29 29 29 30 32 33 34 35 37 38 37 37 38 39 41 41 39 35 35 41 44 44
25 24 21 19 18 18 20 21 21 22 22 21 20 22 22 24 25 26 27 28 30 30 30 31 33 35 35 36 38 38 38 38 38 40 42 42 38 34 36 43 48 47
28 26 24 22 20 20 22 24 24 24 25 23 22 23 24 25 27 28 28 29 30 31 31 32 34 36 37 37 38 39 39 39 40 40 41 41 39 37 40 46 49 49
29 28 27 25 23 23 25 26 27 27 27 25 25 25 26 28 29 30 30 30 31 31 32 33 35 37 38 39 40 41 41 41 42 42 42 42 42 42 45 48 50 50
30 30 29 28 25 25 27 28 29 30 29 29 29 28 30 31 32 32 32 32 32 32 33 34 36 38 39 41 42 43 43 44 43 44 44 44 44 45 47 49 50 50
31 30 30 29 27 27 28 29 30 32 31 32 32 32 33 35 35 34 34 34 34 34 34 35 37 39 40 42 44 45 46 46 46 46 46 46 46 47 48 49 50 50
32 31 30 29 29 29 29 29 31 32 33 34 34 35 36 37 37 36 36 36 36 36 36 37 38 39 41 44 46 47 48 49 49 49 49 49 49 49 51 52 50 50
33 32 31 31 31 30 30 30 31 33 34 35 36 37 38 39 38 38 38 38 38 38 38 38 39 40 42 45 47 48 50 51 52 52 53 53 52 53 55 53 50 51
34 33 33 33 33 33 32 32 33 34 35 36 37 38 40 40 40 39 39 40 40 40 40 40 40 42 44 46 48 49 51 52 54 55 55 55 55 56 55 54 53 54
36 35 35 35 35 35 34 35 36 37 37 38 39 40 41 41 41 40 41 42 43 42 42 42 42 43 45 47 49 50 51 53 55 56 57 57 57 56 56 57 56 52
38 37 37 37 38 38 37 38 39 40 40 40 41 42 42 42 42 42 43 44 45 45 44 44 45 46 47 48 50 51 52 53 56 57 58 58 58 58 58 56 50 44
40 40 40 40 41 41 40 42 43 43 42 42 43 44 44 44 44 44 45 47 47 47 47 47 48 49 49 50 51 53 53 55 56 58 58 59 60 58 53 48 43 41
43 43 43 44 44 44 44 45 45 45 44 44 45 46 46 46 46 46 47 48 49 50 50 51 51 52 52 52 53 53 54 56 58 58 59 59 57 52 44 41 41 42
47 47 47 47 48 48 48 48 48 47 46 46 47 48 48 48 48 48 49 50 51 52 53 53 54 55 55 55 55 55 56 57 59 59 59 56 52 48 43 42 43 48
50 51 51 51 52 51 51 50 49 49 47 48 49 51 51 50 50 50 51 52 53 54 56 57 57 58 59 59 59 58 57 59 60 61 58 52 49 49 49 49 52 56
54 55 55 55 55 55 53 52 51 50 49 50 52 53 53 52 52 53 53 54 55 56 58 58 60 61 63 62 61 60 59 60 61 58 54 49 50 53 55 55 56 57
57 57 58 59 59 58 56 54 52 51 51 52 54 55 55 54 54 54 55 55 56 58 59 60 62 64 65 64 63 61 61 61 58 54 51 51 53 56 54 53 52 51
60 60 61 62 62 60 58 56 54 53 53 54 55 57 57 55 55 56 57 57 58 59 60 61 64 66 66 66 65 63 63 58 51 49 52 54 54 54 50 49 50 51
64 64 64 65 64 62 60 58 55 54 55 56 58 59 58 56 56 57 58 58 59 60 61 63 65 67 68 67 66 65 60 50 41 43 53 54 51 50 49 50 54 58
68 67 67 67 66 64 62 59 57 57 56 57 59 61 59 56 57 60 60 59 59 61 62 64 66 67 68 67 67 61 49 38 32 39 48 50 46 44 48 54 59 62
70 70 69 68 68 66 63 60 59 59 58 59 62 62 60 58 60 62 61 60 61 61 62 64 66 67 67 67 64 51 36 29 33 38 42 45 45 46 50 55 58 61
72 71 70 70 68 67 65 62 61 61 60 63 65 63 61 61 62 63 61 60 62 62 62 63 64 66 67 65 57 42 27 27 38 45 45 44 45 48 53 57 60 64
74 73 72 71 69 68 67 65 64 64 64 66 67 65 63 64 64 64 62 61 62 62 61 60 62 66 66 58 48 40 32 30 38 47 49 48 49 53 58 61 63 68
77 76 75 74 71 69 69 69 68 67 67 69 70 68 66 67 66 65 64 62 63 62 58 57 61 64 59 52 49 48 42 36 39 47 51 53 55 58 60 62 65 70

ECMWFNIL_250_spd_018.txt.gz
Wind_Speed
17 17 16 15 13 12 12 13 14 16 17 16 15 15 16 15 14 14 14 15 16 17 18 18 18 19 21 22 24 25 27 29 30 31 32 33 34 34 35 35 36 36
17 17 18 17 16 15 15 15 16 18 19 18 16 17 18 17 16 16 17 18 19 20 20 19 20 21 22 23 24 26 27 30 32 33 34 35 37 37 37 38 38 39
18 19 18 18 18 18 17 18 18 20 21 20 18 17 19 19 18 17 19 20 22 23 22 22 22 23 24 25 26 27 29 31 33 35 36 38 39 40 40 41 41 41
21 22 21 21 20 19 19 20 20 22 23 22 20 19 20 21 20 20 21 23 25 25 25 24 24 25 26 27 28 29 30 32 34 36 38 40 41 42 43 44 44 43
24 25 25 24 22 21 21 22 22 24 25 25 23 22 22 23 23 23 24 25 27 28 27 27 27 27 28 29 30 31 32 34 36 38 40 41 42 44 45 46 47 46
26 26 27 26 25 24 24 24 24 25 27 28 26 24 23 24 25 25 26 27 28 30 30 30 29 30 30 31 32 33 34 36 38 40 42 43 44 45 47 48 49 49
27 27 28 28 27 27 26 26 26 27 29 29 29 26 25 25 26 26 27 28 29 31 33 32 32 32 32 33 34 35 37 38 40 43 44 46 47 47 48 49 50 51
29 29 30 30 29 28 27 27 27 28 29 30 29 27 26 26 27 27 28 29 30 32 34 34 34 34 34 35 36 37 39 41 43 45 46 48 49 49 50 51 52 52
32 31 32 32 31 30 29 28 28 29 30 31 30 28 27 28 29 29 29 30 32 33 35 36 36 36 36 37 38 39 41 43 45 47 49 50 51 52 53 53 54 52
35 34 34 34 33 32 31 30 30 31 32 32 31 29 29 30 31 31 31 32 33 35 37 37 38 38 39 39 40 41 43 45 47 50 51 52 54 56 56 56 55 51
38 37 36 36 35 35 34 33 32 33 34 34 33 31 31 32 33 33 33 34 35 37 39 39 40 40 40 41 41 43 45 47 49 51 53 55 57 58 58 57 56 49
40 39 39 38 38 37 36 35 35 36 37 36 35 33 33 35 36 36 35 36 37 39 40 40 41 42 42 42 43 44 46 48 51 52 55 57 58 58 58 58 55 47
42 42 42 41 41 39 38 37 38 39 39 39 37 35 36 37 38 38 38 38 39 41 41 42 43 43 43 43 44 45 47 49 51 53 55 56 57 57 56 56 51 44
45 45 45 45 44 42 41 40 40 41 41 41 39 38 38 39 40 40 40 40 41 42 42 43 44 45 45 45 46 46 48 50 52 54 55 56 56 55 55 52 46 40
48 47 47 47 47 45 43 42 42 42 43 43 42 41 41 42 43 43 43 44 44 43 43 44 45 45 46 46 46 47 48 49 51 54 55 54 54 55 54 48 41 38
50 50 49 49 49 48 46 45 44 44 45 46 45 45 45 45 45 46 47 47 46 45 45 46 46 46 47 47 47 47 48 49 52 54 54 54 54 55 51 45 41 37
53 52 52 52 52 50 49 48 47 47 48 49 49 48 48 48 48 49 50 49 48 47 47 47 47 47 47 47 47 47 48 50 52 53 54 54 54 53 48 42 39 38
56 55 55 55 55 54 52 51 50 50 50 51 52 51 50 51 51 52 52 52 50 49 49 49 48 48 48 47 47 48 50 51 53 54 54 53 52 49 44 41 39 40
59 59 59 59 59 58 56 54 53 53 53 53 54 55 53 53 54 54 53 53 51 50 51 51 49 49 48 47 47 49 51 53 55 54 51 50 47 42 39 40 43 45
62 62 63 63 63 61 59 57 57 57 57 55 55 56 57 56 56 55 55 55 54 52 52 51 51 51 49 47 47 49 52 55 55 52 49 47 44 39 39 43 46 49
66 66 67 67 66 64 62 61 61 61 61 59 57 57 58 58 58 57 58 58 56 54 53 52 53 52 49 47 48 50 53 56 55 51 49 47 45 43 44 47 48 49
69 69 70 70 69 67 65 65 65 65 64 62 59 57 57 59 59 59 59 59 58 56 55 54 54 53 50 48 49 51 54 56 54 52 50 49 48 48 48 47 47 47
71 71 71 71 71 70 68 68 68 68 66 64 62 59 57 58 60 60 60 60 59 58 57 57 57 54 51 50 51 52 54 55 54 54 54 52 50 50 51 50 52 54
74 73 73 73 73 72 72 72 71 70 69 67 64 61 59 59 61 62 61 61 62 61 59 58 59 56 54 54 54 53 55 55 54 56 59 56 51 51 53 54 55 58
76 76 75 76 77 76 75 75 74 74 72 70 68 66 64 63 63 63 63 63 65 64 62 61 61 59 57 57 56 54 55 56 55 57 61 59 53 52 54 54 54 56
79 78 79 80 80 79 78 78 78 77 76 74 73 72 70 68 66 65 65 66 68 68 67 66 64 61 59 59 58 57 57 57 57 58 61 60 57 56 57 56 56 57

ECMWFNIL_250_spd_021.txt.gz
Wind_Speed
15 13 13 13 12 12 12 12 14 14 14 14 12 10 9 10 11 11 12 13 14 15 17 17 17 17 18 18 19 21 22 23 25 26 28 30 31 33 35 36 37 37
16 15 15 15 14 14 14 15 15 15 15 16 14 12 10 11 13 13 14 15 17 19 20 20 20 20 20 21 21 23 24 25 27 28 30 32 33 35 37 38 40 41
18 17 16 16 15 15 15 16 16 16 16 17 17 15 13 12 14 16 17 18 20 21 22 23 23 22 22 23 24 25 26 27 29 30 32 33 35 37 39 40 42 43
18 18 17 17 16 16 17 17 17 17 18 19 19 18 16 15 15 18 19 20 22 23 24 25 25 25 25 25 25 26 27 29 31 32 33 35 36 38 40 42 44 44
19 19 19 18 18 19 19 19 19 20 20 21 21 22 20 18 17 18 21 22 22 24 25 26 26 27 26 26 27 28 29 30 32 33 35 36 38 40 42 44 44 45
21 21 21 21 21 22 22 21 21 22 23 24 24 24 24 21 19 19 21 22 23 24 26 27 27 28 28 28 29 29 30 31 33 34 36 37 39 41 43 45 45 45
22 23 23 24 24 23 23 22 22 23 24 25 27 27 25 23 21 20 21 23 24 25 26 28 28 29 29 30 30 31 32 32 34 35 37 38 40 41 43 45 46 47
25 25 26 26 26 25 24 23 23 24 24 25 28 28 26 25 23 22 22 25 26 26 28 29 30 31 31 32 32 33 33 33 35 36 37 39 40 42 43 46 47 48
28 28 28 28 29 28 27 27 26 26 26 28 29 29 28 27 25 24 25 27 28 28 29 30 31 32 33 34 34 35 35 35 36 37 38 39 41 42 44 46 48 49
31 31 31 31 31 31 31 30 30 29 30 30 31 31 30 30 28 27 28 29 30 30 31 32 33 34 35 36 37 37 38 37 37 38 39 40 41 43 44 46 47 49
35 34 34 34 33 33 33 33 33 33 32 33 33 33 33 33 31 30 31 32 33 33 33 34 35 36 37 38 39 40 40 39 39 40 40 41 42 44 45 45 47 49
40 39 38 37 36 36 35 35 35 35 35 35 36 36 35 35 34 33 33 34 34 35 36 36 37 38 39 39 40 41 41 40 40 41 42 42 43 45 46 46 47 48
44 42 41 40 39 39 38 38 37 37 37 37 37 38 37 37 36 35 35 36 36 37 38 38 39 40 41 41 41 42 42 42 41 42 42 43 44 46 46 46 47 48
46 44 43 42 41 41 41 40 39 39 39 39 39 39 39 38 37 37 37 38 39 39 40 40 41 42 43 42 42 43 43 43 42 43 44 44 45 46 46 46 46 47
46 45 44 43 43 43 43 42 41 41 42 42 42 41 41 40 39 39 40 41 41 41 41 42 44 45 44 43 43 44 44 43 43 44 45 45 46 47 47 47 46 46
47 46 46 45 45 45 45 44 43 43 44 44 44 44 44 42 41 42 43 43 44 44 44 45 46 47 47 45 44 45 45 44 44 45 46 46 47 49 49 48 48 47
49 48 48 48 48 47 47 46 46 46 46 46 47 47 47 46 45 45 45 45 46 46 46 47 48 49 49 47 47 47 46 45 45 45 46 47 48 50 50 50 49 49
52 51 51 51 51 50 49 48 48 48 49 49 49 49 49 50 49 48 48 48 49 49 49 50 51 51 51 50 49 49 48 47 46 46 47 48 49 51 51 51 51 51
56 55 55 55 55 53 52 51 51 51 52 52 51 51 52 53 53 52 51 51 52 52 52 52 53 54 54 53 52 52 50 48 47 47 48 48 49 51 52 52 52 52
58 59 60 59 58 56 55 55 55 55 56 55 55 55 54 55 56 55 55 55 55 55 54 55 55 56 56 56 55 54 52 50 49 48 49 50 50 52 53 53 53 53
61 62 63 62 61 59 58 58 58 59 59 58 58 57 57 57 58 58 58 58 58 58 58 58 58 58 58 58 58 57 54 52 51 51 51 52 52 54 55 55 55 56
64 64 65 65 64 62 61 61 62 62 62 61 60 59 59 59 59 59 60 60 60 60 60 60 60 61 61 61 61 60 58 55 54 53 54 54 55 57 59 58 58 58
67 67 67 68 67 66 65 65 66 66 65 65 64 62 61 61 61 61 61 61 61 62 62 62 62 63 64 65 65 64 62 60 58 56 56 57 58 60 61 61 61 61
67 68 69 70 70 69 69 69 70 70 69 69 68 67 66 65 65 64 64 63 63 63 64 64 64 65 67 68 68 68 67 65 63 61 59 59 61 63 64 65 65 63
63 64 66 67 69 69 70 71 71 71 72 72 71 71 71 70 69 68 68 68 67 66 66 66 66 68 70 71 71 71 71 70 68 65 63 63 64 65 66 67 66 64
58 59 61 62 63 65 66 67 68 68 70 71 71 71 72 72 72 72 72 72 72 70 69 69 70 71 73 74 74 74 74 74 72 69 67 66 65 67 68 68 67 66

ECMWFNIL_250_spd_024.txt.gz
Wind_Speed
16 15 15 14 13 13 13 13 13 11 8 7 6 6 5 6 6 7 9 10 11 12 13 14 15 16 16 16 16 17 18 19 20 22 23 24 26 27 29 30 30 31
17 17 16 15 15 15 15 15 15 13 12 11 10 9 8 8 8 9 11 13 14 15 16 16 17 17 17 17 17 17 18 19 21 22 23 24 26 27 29 31 31 32
18 18 17 17 17 17 17 17 16 15 14 14 13 13 12 11 11 12 13 15 17 18 17 16 17 17 18 18 18 18 19 20 21 22 23 25 26 28 29 31 32 33
18 18 18 18 18 18 17 17 16 15 15 15 16 16 16 16 16 16 16 17 19 21 19 18 17 18 19 19 19 20 20 21 23 23 23 25 26 28 29 31 32 34
19 19 19 18 18 17 17 16 15 15 16 17 18 19 19 19 20 20 20 20 21 22 22 21 20 20 21 22 22 22 22 23 24 25 25 25 27 28 29 31 32 34
21 19 18 18 17 17 17 16 16 16 17 18 20 21 22 22 22 22 22 22 22 23 25 24 23 22 23 24 24 24 24 25 26 26 26 26 27 28 30 31 32 33
21 20 19 19 18 18 18 17 17 17 18 19 21 23 23 23 23 24 24 23 23 24 26 26 26 25 25 26 26 26 27 27 27 28 28 27 28 29 30 32 33 33
24 23 22 21 20 20 19 19 19 20 20 22 23 24 25 24 24 24 24 25 25 26 27 28 28 27 28 28 28 28 29 29 29 30 30 29 29 30 31 33 34 34
27 27 25 24 23 22 21 21 22 22 24 25 26 26 27 26 25 25 25 26 26 27 28 29 30 30 30 30 30 30 30 31 31 31 32 32 31 31 32 33 35 35
31 30 29 28 26 25 25 25 25 25 26 28 28 28 29 29 28 27 27 27 27 28 30 31 31 32 32 31 31 31 32 32 32 33 34 34 33 32 33 34 35 36
34 32 32 31 30 29 29 29 29 29 30 30 30 31 31 31 31 30 30 29 29 30 31 33 33 33 34 33 33 34 34 35 35 35 36 36 36 35 35 36 36 36
36 35 35 35 33 33 33 33 34 34 33 33 34 34 33 33 33 32 32 31 31 32 33 34 34 35 36 36 36 36 36 37 37 37 38 38 38 38 38 38 37 37
38 38 38 37 36 36 37 37 38 38 37 37 37 37 36 36 35 35 34 34 34 34 35 35 36 36 38 38 38 38 38 39 39 40 40 40 40 40 41 41 40 39
40 41 40 39 39 39 39 40 40 41 41 41 40 39 38 38 38 37 37 36 36 36 36 37 37 39 40 41 41 41 40 41 41 42 42 42 42 43 44 44 43 42
42 43 42 42 41 42 42 43 43 43 43 43 42 41 40 40 40 39 39 38 38 38 38 39 39 41 42 42 42 43 43 43 43 44 45 45 45 45 46 47 46 46
44 44 44 44 43 44 44 44 45 45 45 44 43 43 42 42 41 41 41 40 40 40 40 41 42 43 44 44 45 46 46 46 46 46 47 47 48 48 49 49 49 48
46 46 46 46 45 45 45 45 45 45 45 45 44 44 44 43 43 44 43 43 43 43 43 43 44 45 46 47 47 48 48 48 48 49 49 50 50 51 51 51 51 50
49 49 48 48 47 47 46 46 46 46 46 46 46 46 46 46 46 47 46 46 46 46 46 46 47 48 49 50 50 51 51 50 50 51 51 52 53 53 53 54 54 53
51 50 50 49 49 48 48 48 48 48 49 49 49 49 49 49 49 50 50 50 50 50 49 49 50 51 52 52 53 53 53 52 52 53 54 54 55 55 55 56 56 56
53 53 52 52 52 51 51 51 51 52 52 52 52 52 52 52 53 53 54 54 53 53 53 53 53 54 55 55 55 55 55 55 55 55 56 57 57 58 58 58 59 59
56 56 55 55 54 54 53 54 54 55 55 55 55 54 54 55 55 56 56 57 57 57 56 56 57 58 58 59 59 58 58 58 58 59 59 60 60 60 61 61 62 62
58 58 58 58 57 57 57 58 58 59 59 58 58 58 58 58 58 58 58 59 59 59 59 60 61 61 62 63 63 63 62 62 61 62 63 63 63 64 64 64 65 66
59 59 59 59 59 60 61 61 62 62 62 62 62 62 62 61 61 61 61 62 62 62 62 63 63 64 65 66 67 66 66 66 65 65 65 66 66 66 67 67 67 68
55 55 56 57 57 58 59 60 61 61 61 62 62 63 63 63 63 63 63 63 63 63 63 63 64 64 65 66 68 68 68 67 67 66 65 66 67 68 68 68 68 68
50 51 52 53 53 54 54 55 55 56 56 57 57 57 57 58 58 59 59 60 60 60 60 60 60 61 62 63 65 67 66 65 65 64 63 63 64 65 66 66 66 66
46 47 48 48 49 49 49 49 49 50 50 50 51 51 51 52 53 53 54 55 55 55 54 55 55 55 56 58 60 62 63 62 61 60 60 60 60 61 62 62 62 60

ECMWFNIL_250_spd_027.txt.gz
Wind_Speed
13 13 12 11 11 10 9 10 9 8 8 7 8 7 7 7 6 6 7 7 7 8 10 11 13 13 13 13 14 15 16 17 17 18 18 19 19 20 20 20 21 22
17 16 15 14 13 13 13 12 11 10 10 10 10 10 9 9 9 9 10 10 11 12 13 13 14 14 14 14 14 15 16 18 18 18 19 20 20 20 21 21 21 22
18 18 18 17 16 16 16 15 13 13 13 13 13 13 12 11 11 12 12 12 13 14 15 15 16 16 16 16 16 16 17 19 19 19 20 20 21 22 22 22 23 23
17 17 18 18 18 18 17 16 15 15 15 14 14 14 14 14 14 14 15 15 16 16 17 17 17 18 18 18 18 17 18 19 20 21 21 21 22 23 23 24 24 25
17 17 17 18 19 19 18 17 17 17 16 14 14 14 15 15 16 16 16 17 17 18 18 18 18 18 19 20 20 19 19 20 21 22 22 22 23 24 25 25 26 26
18 18 18 19 20 20 20 19 18 17 16 15 16 16 16 16 16 16 16 18 19 19 19 19 19 20 21 21 22 22 21 21 22 23 24 24 24 25 26 27 27 28
21 20 21 21 21 22 21 20 19 18 17 18 18 18 17 17 16 16 17 19 20 20 20 20 21 22 22 23 23 23 23 23 23 24 25 26 26 26 27 29 29 29
25 24 24 23 23 23 22 21 21 20 21 21 21 20 19 19 18 18 19 20 22 23 23 23 23 24 25 25 25 25 25 25 24 25 26 28 28 29 29 30 31 31
29 28 27 26 26 26 25 24 24 25 25 25 23 22 22 22 21 21 21 21 23 24 26 26 27 27 28 28 27 27 27 27 27 27 28 29 30 31 31 32 33 33
32 32 30 29 29 28 27 28 28 28 28 27 26 25 25 25 24 24 24 24 24 26 28 29 29 30 31 31 30 29 29 30 30 30 30 31 33 34 34 35 35 35
35 34 33 32 31 30 30 30 30 31 30 29 29 28 28 28 28 27 27 27 27 28 30 31 32 32 33 34 33 32 32 32 32 32 32 33 34 36 37 37 38 38
36 35 35 33 32 31 32 32 33 33 32 31 31 32 32 31 31 31 31 31 31 32 33 33 34 35 36 36 36 35 34 34 34 35 35 36 37 38 40 40 41 41
38 37 36 34 33 33 34 35 35 35 34 34 34 34 35 34 35 34 34 34 35 35 36 36 37 37 38 38 38 37 37 36 37 37 38 38 39 41 42 43 44 44
38 37 36 35 35 36 36 37 37 37 37 37 37 37 37 37 37 37 37 38 38 38 38 38 39 39 40 40 40 39 39 39 39 40 40 41 42 43 45 46 47 47
37 36 36 36 35 36 37 37 38 39 39 39 40 40 40 40 40 40 40 40 40 40 40 40 40 41 41 42 42 41 41 41 42 42 43 44 45 46 48 49 50 49
36 36 36 36 37 37 38 38 39 40 41 41 42 42 42 42 41 42 42 42 42 42 42 42 42 42 43 44 44 44 44 44 45 46 46 47 48 49 50 51 52 52
38 38 38 38 39 39 40 40 41 42 43 43 44 44 43 43 43 44 44 44 43 43 43 44 44 44 45 46 46 46 47 47 48 49 50 50 51 52 52 53 54 55
41 41 41 41 42 42 43 43 43 44 44 45 46 46 45 45 46 46 46 45 45 45 45 46 47 48 48 49 49 49 49 50 51 52 53 53 54 55 56 56 57 58
43 43 43 44 44 44 44 44 45 45 46 47 47 47 47 47 47 47 47 47 47 48 48 49 50 51 51 51 52 52 52 53 54 55 56 57 58 59 59 60 60 61
44 44 44 44 44 44 45 46 46 47 47 48 48 48 48 49 49 49 49 50 50 50 51 52 53 54 54 55 55 55 55 56 57 58 59 60 61 61 61 62 63 63
46 46 46 45 45 46 47 48 49 49 49 49 50 50 51 51 51 52 52 52 53 54 55 56 57 57 58 59 59 59 59 58 59 60 61 62 62 62 62 62 62 62
48 48 48 48 48 49 50 51 52 52 51 51 52 52 53 53 54 54 55 55 56 57 58 59 60 60 61 61 61 61 60 59 58 58 58 59 59 59 59 59 59 59
50 50 51 51 52 53 54 54 54 54 54 54 55 55 56 57 57 57 57 58 58 58 59 59 59 59 59 59 59 59 58 56 54 53 53 54 55 56 56 56 56 57
53 54 54 54 55 56 57 57 56 56 57 57 57 57 57 57 57 57 56 56 56 56 55 55 54 54 55 55 56 56 55 53 52 50 49 49 51 53 54 54 55 56
54 54 54 54 55 55 55 55 55 55 55 55 54 54 54 53 53 52 52 52 51 51 50 50 50 50 50 51 52 52 53 52 51 49 47 47 48 49 51 52 54 55
48 48 49 49 49 49 49 49 49 49 49 49 48 48 48 48 48 47 47 47 47 47 47 47 48 48 47 48 49 50 50 50 49 49 47 45 44 45 47 50 51 53

ECMWFNIL_250_spd_030.txt.gz
Wind_Speed
16 15 14 13 12 11 10 10 10 8 7 7 6 6 6 6 6 5 6 6 6 7 8 9 10 12 13 14 14 14 14 13 13 13 14 14 15 16 17 18 19 21
18 17 16 15 14 13 12 11 10 9 8 8 8 8 8 8 8 8 9 9 9 9 10 11 11 13 14 15 15 16 16 15 15 15 15 15 15 16 17 18 19 20
20 19 18 17 16 15 15 14 12 11 10 10 10 11 11 10 10 11 11 11 11 11 11 12 13 13 13 14 15 16 17 17 17 17 17 17 17 18 18 19 20 20
22 21 20 19 18 18 17 15 14 13 14 14 13 13 13 12 12 12 12 13 13 12 12 12 13 13 13 14 15 16 18 19 19 20 19 19 19 20 20 21 22 22
24 22 21 20 20 19 18 17 17 17 17 16 16 15 14 13 13 13 13 13 13 13 12 12 13 13 14 14 15 17 18 20 21 22 22 22 22 22 23 24 25 25
25 24 22 21 21 21 20 20 20 19 18 18 17 17 16 15 14 14 14 14 14 15 14 13 14 15 15 16 17 18 19 21 22 23 25 25 25 25 26 26 27 28
27 25 24 24 24 23 22 21 21 21 20 21 20 19 18 16 15 15 15 15 16 17 17 16 16 17 18 19 20 21 22 23 24 25 27 28 28 29 29 28 28 29
28 27 27 27 26 24 22 22 22 22 23 23 22 21 20 18 17 16 16 17 17 18 19 19 19 20 21 22 23 24 24 25 26 27 28 30 30 31 32 31 31 31
30 29 29 28 26 24 22 22 23 24 25 25 24 23 22 21 19 19 18 18 18 19 20 21 21 22 23 24 25 26 27 28 28 29 30 31 32 32 34 35 35 34
31 30 29 29 27 25 23 23 24 26 26 26 26 25 25 24 22 21 20 20 20 21 22 23 24 25 27 28 29 29 30 30 31 32 32 33 33 34 35 37 38 38
31 31 31 31 30 28 26 26 27 28 28 28 28 28 27 26 25 24 23 23 23 24 25 26 28 30 31 32 32 33 33 33 33 33 34 35 35 35 36 38 40 41
34 33 33 33 32 31 30 30 30 30 30 30 30 30 29 28 27 27 26 26 27 28 29 30 32 33 34 34 36 36 36 35 35 35 36 37 37 38 38 40 41 43
36 36 35 34 34 33 33 33 33 32 31 31 31 32 32 30 29 29 29 30 30 32 33 34 35 36 37 37 38 39 39 38 37 38 38 39 40 40 41 42 44 45
39 38 37 36 36 35 35 35 34 33 33 33 33 33 33 32 32 32 33 34 34 35 37 38 38 39 40 40 40 41 41 41 40 40 41 42 43 43 44 45 46 47
40 39 38 37 37 36 35 35 34 34 34 34 34 34 34 34 34 35 36 37 37 38 39 40 41 42 42 42 42 42 42 43 43 43 44 45 46 47 48 48 49 50
41 40 39 38 36 35 35 35 35 35 35 35 36 36 36 36 36 37 38 38 39 40 41 42 42 43 44 44 44 43 43 44 45 46 47 48 49 50 50 51 53 54
42 41 40 38 37 37 37 37 37 37 37 37 38 37 37 37 37 38 39 39 40 41 42 43 44 45 45 45 45 45 45 46 48 49 50 50 51 53 54 55 56 58
42 42 41 39 39 39 39 38 38 39 39 39 38 38 37 37 38 39 39 40 42 43 44 45 46 46 46 46 46 46 47 48 50 52 53 54 55 56 58 59 59 60
43 43 42 41 40 40 39 40 40 39 39 39 39 38 39 39 40 41 42 43 45 46 46 47 48 48 48 48 48 49 49 51 53 55 57 58 59 59 60 60 60 59
44 43 43 42 41 41 41 41 41 40 39 40 40 41 41 42 42 43 44 45 46 47 48 49 49 50 50 51 51 52 52 54 56 58 59 60 60 59 59 58 57 55
45 44 43 43 43 42 42 43 43 42 42 42 43 43 44 44 44 45 46 46 47 48 50 51 51 52 54 54 55 55 56 56 57 57 58 57 57 56 55 54 53 52
45 44 44 44 44 44 44 44 44 44 44 43 44 44 45 45 45 46 47 47 48 50 52 53 55 56 57 58 58 57 57 56 55 54 52 52 51 51 51 50 50 50
45 44 44 44 45 45 45 44 44 44 44 44 44 45 46 46 46 48 49 50 51 53 54 55 56 57 58 58 57 56 53 51 49 48 48 47 47 47 47 47 48 48
45 45 45 45 45 46 45 45 45 45 45 45 46 46 47 48 49 51 52 53 53 54 54 54 54 54 53 52 51 50 48 47 46 45 45 46 45 45 45 45 46 47
47 47 47 47 47 47 47 47 47 47 47 48 48 49 50 51 52 52 52 52 52 51 50 49 48 47 47 46 46 45 45 45 45 45 45 45 44 44 44 44 45 46
49 48 48 48 48 48 48 48 49 49 49 49 49 49 50 49 49 49 48 47 46 44 44 43 43 43 43 44 44 44 44 44 44 45 45 43 42 43 45 46 47 47

ECMWFNIL_250_spd_033.txt.gz
Wind_Speed
22 21 21 20 19 18 17 16 15 14 13 12 11 10 10 9 8 8 8 7 7 6 6 6 7 9 10 11 12 11 10 9 10 11 12 13 14 15 16 17 18 19
23 23 21 20 19 19 18 17 16 14 13 12 12 11 11 11 10 10 9 9 9 8 8 8 8 10 11 12 13 13 13 12 12 12 13 14 15 16 17 18 19 20
25 23 22 21 20 20 18 17 16 15 14 14 13 13 12 12 11 11 11 11 11 10 10 10 10 11 11 12 13 14 14 14 14 14 14 15 16 17 19 19 20 21
25 24 23 22 21 20 19 17 16 16 16 15 15 14 13 13 13 13 14 14 13 12 11 11 12 12 11 12 12 14 15 15 16 16 17 17 18 19 20 21 22 23
26 25 24 23 23 21 19 18 18 18 17 16 15 15 15 15 15 15 15 15 15 14 13 12 12 12 12 12 13 14 16 17 18 19 20 20 21 21 22 23 24 25
28 26 26 25 24 22 21 20 20 19 18 18 17 17 18 17 17 17 16 16 15 15 14 13 12 12 13 13 14 15 17 18 19 21 22 23 24 25 26 26 27 28
29 28 28 27 25 24 23 22 22 21 21 20 20 20 20 19 19 18 18 16 16 15 15 14 14 14 14 15 16 16 18 19 21 23 24 26 27 28 29 29 29 30
31 31 30 28 27 25 24 24 23 23 22 22 22 22 21 21 20 20 19 17 17 16 16 16 16 16 16 16 17 19 20 22 24 25 27 29 30 31 32 32 32 33
34 33 31 29 28 26 25 24 23 22 22 22 22 22 22 22 22 21 20 19 19 18 18 17 17 18 18 18 20 22 24 25 27 28 30 32 33 33 34 34 34 35
35 33 31 30 28 26 25 25 24 23 23 23 23 22 23 23 23 23 22 21 21 21 20 20 19 20 20 21 22 24 27 28 30 31 33 34 35 35 35 36 36 36
37 35 33 30 29 27 27 26 26 25 25 24 23 23 23 24 24 25 24 24 23 23 23 23 22 22 24 25 26 27 29 31 33 34 35 36 37 37 37 37 37 38
39 37 34 32 30 29 29 29 28 28 27 26 25 24 24 25 25 26 26 27 26 26 26 26 26 26 27 29 29 30 32 33 35 37 38 38 39 38 38 38 39 40
41 39 37 35 33 32 32 31 30 29 29 29 28 27 26 26 27 28 28 29 29 29 29 29 29 30 31 32 32 33 34 35 37 39 40 41 41 40 40 41 42 43
42 40 39 38 36 35 34 33 31 30 30 31 31 30 30 29 29 30 30 31 31 32 32 32 32 33 33 33 34 35 36 37 39 41 42 43 42 42 43 44 45 46
42 42 41 40 39 38 36 34 32 31 31 32 32 33 32 32 32 31 32 32 33 34 34 34 34 35 35 35 36 37 38 40 41 42 43 44 44 45 46 47 48 50
43 43 43 42 41 39 37 35 34 33 34 34 34 34 34 34 34 33 33 34 35 36 36 36 36 36 37 37 38 39 40 42 43 43 44 45 46 47 48 49 51 53
45 44 44 43 42 40 38 37 36 36 37 37 36 35 35 35 35 35 35 35 36 37 37 37 37 38 38 39 39 40 42 44 45 45 45 47 48 49 51 52 53 54
45 44 44 43 42 41 39 38 38 38 39 38 37 36 36 36 36 36 36 36 37 37 38 38 38 39 39 39 40 41 43 45 47 47 48 49 50 52 53 54 54 54
45 45 45 44 43 42 40 39 40 40 40 38 37 37 36 36 36 37 38 38 38 38 39 39 39 39 40 40 41 42 43 46 48 49 51 52 53 53 54 53 52 50
47 46 46 46 44 43 41 41 41 41 40 38 37 37 37 37 37 37 39 39 39 39 40 40 40 40 41 42 42 43 44 46 49 51 53 54 54 53 52 49 47 44
49 48 48 47 45 44 42 42 41 40 39 38 38 38 38 38 38 38 39 40 41 41 41 41 41 42 42 43 43 44 46 48 50 52 53 53 52 49 46 43 41 41
49 48 47 46 45 43 42 42 41 41 40 39 39 39 39 39 39 40 40 41 42 43 42 42 42 43 44 45 45 47 49 50 51 51 50 48 45 42 40 39 39 40
47 46 46 45 44 43 43 42 42 41 40 40 40 40 40 40 41 41 41 42 42 43 44 44 44 45 46 47 48 49 50 50 48 46 43 41 38 36 37 38 38 39
47 46 45 45 45 44 43 43 42 42 41 41 41 41 41 41 41 42 42 43 43 44 45 46 47 48 49 50 50 50 49 46 43 40 37 35 33 34 36 38 39 39
47 46 46 45 45 45 44 43 43 42 42 41 42 42 42 42 42 43 43 44 45 46 47 48 49 50 50 50 48 45 42 39 37 36 35 34 33 35 36 38 39 40
46 46 46 45 45 45 44 44 43 43 43 42 42 42 43 43 44 44 45 46 47 48 49 49 49 48 46 44 41 38 36 34 34 35 35 35 35 36 37 38 39 40

ECMWFNIL_250_spd_036.txt.gz
Wind_Speed
25 25 24 23 22 22 22 21 21 20 19 19 18 17 16 15 13 13 12 11 11 10 10 9 9 8 8 7 7 7 7 7 8 9 10 11 13 15 17 18 20 21
26 25 24 23 23 23 23 22 21 21 20 20 19 18 17 16 14 13 13 13 12 12 11 10 10 10 10 10 10 10 9 9 9 9 11 12 14 16 18 20 22 23
27 26 25 24 24 24 24 23 22 21 21 20 20 19 17 16 15 15 14 14 13 13 12 12 11 11 11 11 11 11 11 10 10 11 12 14 15 17 19 22 24 25
28 26 25 25 26 25 24 23 23 22 22 21 20 19 18 17 17 16 15 14 14 14 14 13 13 13 13 12 12 12 12 12 12 13 13 15 16 18 21 23 25 27
29 28 27 26 26 26 25 24 24 23 22 21 20 19 19 18 17 17 16 15 15 15 15 15 15 14 14 13 13 12 13 13 14 14 15 16 18 20 23 25 27 28
31 30 29 28 27 26 26 25 25 24 23 22 21 20 19 19 18 17 16 16 15 16 16 16 16 16 15 14 14 14 13 14 15 16 16 18 20 22 24 26 28 30
32 31 30 29 29 28 27 27 26 25 24 23 22 21 20 19 18 17 17 17 16 16 16 17 17 16 16 16 15 15 15 15 16 17 18 20 22 24 26 28 31 32
32 31 31 31 31 30 30 28 27 26 25 23 23 22 21 20 19 18 18 18 18 17 17 17 17 17 17 17 17 17 17 17 17 18 20 22 24 26 28 31 33 34
34 34 34 34 33 32 31 30 28 27 25 24 24 23 23 22 21 20 20 19 19 18 18 18 18 18 18 18 19 19 19 19 19 20 22 24 26 28 30 32 34 35
36 36 36 36 35 34 32 31 29 28 26 26 26 25 24 23 22 21 20 19 19 19 19 19 19 19 20 20 21 21 21 22 22 23 24 26 28 30 32 34 36 37
38 38 38 37 36 35 34 33 31 29 28 28 28 27 25 23 21 20 19 18 18 19 19 20 21 22 22 23 24 24 24 24 24 25 27 29 31 32 34 36 37 38
40 40 40 39 38 37 36 35 33 31 31 30 30 28 26 23 21 19 18 18 19 20 21 21 23 24 25 26 27 27 27 27 26 28 30 32 33 35 36 38 39 39
42 41 41 40 40 39 38 36 35 34 33 32 31 29 26 23 22 20 20 20 21 22 23 23 24 26 27 28 29 29 29 29 29 31 33 34 36 37 39 39 40 40
43 42 42 42 41 41 40 38 37 36 34 33 32 30 27 25 24 24 24 24 24 25 25 26 26 27 28 29 30 30 31 32 33 34 34 35 37 39 40 41 41 42
45 44 44 44 44 43 42 40 39 38 36 34 33 31 28 27 27 27 27 27 27 27 28 28 28 28 28 29 30 31 32 34 35 35 36 37 38 39 40 42 43 44
47 47 46 46 46 45 44 42 41 39 37 35 34 32 30 29 28 28 29 30 29 29 30 30 30 29 29 29 30 31 33 34 35 36 37 38 39 39 41 42 44 46
49 48 48 48 48 47 46 45 43 42 40 37 35 34 32 31 30 30 31 31 31 31 31 31 30 29 29 30 31 32 33 33 35 36 38 39 39 40 42 44 46 47
50 49 49 49 49 48 47 46 45 44 42 40 38 36 35 34 33 33 33 33 33 32 32 31 30 30 30 31 32 33 34 34 35 36 38 39 40 42 44 46 47 47
51 50 50 49 49 48 47 46 45 45 44 42 40 38 38 37 35 35 35 35 35 34 33 32 31 30 31 31 32 34 35 36 36 37 38 39 41 43 45 47 47 45
53 52 51 50 50 48 47 46 46 46 45 43 42 41 40 39 38 37 37 37 36 35 34 32 31 31 31 32 33 35 36 37 38 38 40 41 42 44 46 45 43 40
54 54 53 52 51 49 48 47 47 46 45 44 43 42 41 40 40 40 39 38 37 36 34 33 32 32 33 33 34 35 37 38 39 40 41 42 44 45 44 42 38 35
55 55 54 53 52 50 49 48 47 46 45 44 44 44 43 42 42 42 41 39 38 36 35 34 33 34 34 34 34 35 37 39 41 42 44 45 45 43 40 37 34 32
53 54 54 53 52 50 49 48 47 46 45 45 45 44 44 44 43 42 41 41 40 37 36 35 35 35 35 35 35 36 38 39 41 43 45 44 42 38 36 34 32 30
50 51 52 52 51 50 49 48 48 47 46 45 46 46 46 45 44 42 41 42 41 39 37 36 36 36 36 36 37 38 39 40 42 44 43 41 37 34 32 32 30 30
46 48 49 50 50 49 48 48 48 47 47 47 47 48 47 46 44 43 42 42 41 40 38 37 37 37 38 38 39 39 40 42 43 43 40 37 34 32 31 30 29 29
44 46 47 48 48 48 48 48 48 48 48 48 48 48 47 46 45 44 43 42 41 40 39 38 38 39 40 40 40 41 42 43 42 41 38 35 32 30 29 28 28 29

ECMWFNIL_250_spd_039.txt.gz
Wind_Speed
24 23 22 20 19 19 19 19 19 19 19 20 19 18 17 16 16 15 14 14 13 13 11 10 10 9 7 5 5 6 6 7 7 8 9 10 12 14 16 18 20 22
25 24 23 22 21 21 20 20 20 20 21 21 20 19 18 17 16 16 15 15 14 13 11 10 10 9 9 7 7 8 8 8 8 8 9 10 12 14 16 19 21 22
27 26 24 23 22 22 21 21 21 21 22 22 21 20 18 18 17 17 17 16 14 13 12 11 10 10 10 9 10 10 11 10 10 9 10 11 12 14 17 19 21 23
28 28 25 24 24 24 24 23 23 22 22 22 21 20 19 19 19 18 18 16 15 13 12 12 11 11 11 12 12 13 13 12 12 11 10 11 12 14 17 20 22 24
30 29 27 26 26 26 26 25 24 23 23 22 21 21 20 20 19 19 18 16 15 14 13 12 12 13 13 14 15 15 15 14 14 12 11 11 13 15 18 20 22 25
31 30 28 28 28 28 27 26 25 25 24 23 22 22 21 21 20 19 17 16 16 15 14 13 13 13 14 15 16 16 16 15 15 14 13 13 14 16 19 21 23 26
33 31 29 29 29 29 28 28 27 27 25 24 24 23 22 22 21 19 18 17 17 16 15 14 14 14 14 15 15 15 15 15 15 14 14 14 15 18 21 23 25 27
34 32 30 30 30 30 30 30 29 28 26 26 25 24 24 23 22 20 19 18 18 17 16 15 15 15 15 15 15 15 15 16 16 15 15 16 17 20 22 24 26 29
35 33 32 31 31 31 32 31 30 29 28 27 26 25 25 24 22 21 20 19 19 18 18 17 17 16 16 16 16 16 16 17 17 17 17 17 19 21 24 26 28 30
36 35 34 33 33 33 33 32 31 30 29 27 27 26 26 25 23 22 21 20 20 19 19 19 19 18 17 17 17 17 18 18 18 19 19 20 21 23 25 27 29 31
38 37 36 35 35 35 34 34 32 31 29 28 28 27 27 26 25 23 23 22 21 20 20 20 19 19 18 18 18 18 19 20 20 21 22 23 24 25 27 29 30 31
39 40 39 37 37 36 36 35 33 32 30 30 29 29 28 27 26 25 24 23 22 21 20 20 19 19 19 19 19 20 20 21 22 22 24 25 27 28 29 30 30 31
41 41 40 39 38 38 38 37 35 33 32 31 30 30 29 28 27 26 25 24 23 22 21 21 20 20 20 21 21 22 22 22 22 23 24 26 27 28 29 29 30 32
41 41 41 40 40 40 40 39 38 36 34 33 32 31 30 29 28 27 26 25 24 23 23 23 22 22 22 22 23 23 23 23 23 24 25 26 26 27 28 29 31 32
42 41 41 42 42 42 42 41 40 38 37 35 34 33 31 30 29 28 27 27 26 25 25 25 25 25 24 24 24 25 25 24 24 25 26 26 26 27 28 30 31 33
42 41 42 43 45 45 44 43 41 40 39 38 36 34 33 32 31 30 28 28 28 27 27 26 26 26 26 26 26 26 26 25 25 26 26 27 27 28 30 31 32 33
44 43 43 45 46 46 45 44 43 42 41 39 38 36 36 34 33 31 30 29 30 30 29 28 28 27 27 27 28 28 27 27 27 27 27 27 28 30 31 32 33 34
46 46 46 46 46 46 46 45 44 43 43 41 40 38 37 35 34 33 31 31 31 32 31 31 30 29 29 29 30 30 29 29 28 28 28 29 30 31 32 33 34 35
47 47 47 47 47 46 45 45 45 45 45 43 42 40 38 37 36 35 34 33 33 33 33 33 32 31 31 31 31 31 31 30 30 30 30 31 31 32 33 34 35 36
47 48 48 47 47 46 45 46 47 47 46 45 43 41 41 40 38 36 37 36 36 36 36 35 34 33 33 33 33 33 33 32 31 31 32 32 33 33 34 34 36 37
48 48 48 48 47 47 46 47 48 48 48 46 45 43 42 41 39 38 39 39 39 39 38 37 36 35 35 35 35 35 34 33 33 33 33 33 33 34 35 36 37 38
46 48 48 49 49 48 49 49 49 48 48 48 46 45 44 42 40 39 39 39 40 40 40 39 38 37 37 37 36 36 36 35 34 34 34 34 34 35 36 37 38 38
43 46 48 49 50 50 50 50 50 50 49 48 47 47 45 44 42 40 39 40 41 41 41 40 39 38 38 38 37 37 37 37 36 35 35 34 34 35 37 38 38 36
40 43 45 47 48 50 51 52 52 51 50 49 48 48 47 45 43 41 41 42 42 42 42 41 39 39 39 39 37 37 38 38 37 37 36 35 35 36 38 38 37 34
39 41 43 44 45 47 49 51 53 53 52 51 50 50 49 47 45 43 43 44 44 43 42 41 40 40 41 40 38 38 39 39 38 38 37 36 36 38 39 39 36 32
38 39 40 40 41 43 45 48 51 53 53 54 53 52 51 49 47 46 46 46 45 44 43 42 42 42 41 41 39 39 39 39 39 39 38 37 38 39 40 38 35 31

ECMWFNIL_250_spd_042.txt.gz
Wind_Speed
23 23 23 22 20 20 19 18 17 17 16 16 15 14 13 12 11 10 10 9 8 8 7 7 7 7 7 7 6 6 7 8 9 9 9 9 9 11 13 15 18 19
23 23 23 23 22 21 20 19 18 17 17 17 17 15 14 13 12 12 11 11 10 9 8 8 8 8 8 8 7 8 9 10 10 10 9 9 9 10 13 15 18 20
24 24 23 22 22 22 21 20 19 19 19 19 18 16 16 15 14 14 13 12 11 10 9 8 8 8 8 8 9 9 10 12 12 12 11 11 10 11 13 15 18 21
26 25 24 23 22 22 22 22 21 20 20 20 19 18 18 17 16 15 14 13 13 11 10 9 8 8 8 9 10 11 12 13 14 13 13 12 11 12 13 15 19 21
27 27 25 24 24 24 24 24 23 22 21 21 21 20 19 19 18 17 15 14 13 12 11 10 9 9 9 10 11 12 13 14 14 14 14 13 12 13 14 16 19 22
29 28 28 26 25 26 26 25 24 23 23 23 22 22 21 20 19 18 16 15 14 13 12 11 10 9 10 10 11 12 13 14 15 15 14 14 14 14 15 18 20 22
30 30 29 28 27 27 27 26 26 25 25 25 24 23 22 21 20 19 17 16 15 14 12 12 11 10 10 11 12 13 14 15 15 15 15 15 15 15 17 19 22 23
31 31 30 29 28 28 29 28 28 27 27 26 25 24 23 22 21 19 18 17 16 14 13 13 12 11 11 12 13 14 15 15 16 16 16 17 17 18 19 21 23 24
31 31 31 31 29 29 30 31 30 29 28 27 26 25 24 23 22 20 19 18 17 15 14 14 13 13 13 13 14 15 15 16 16 17 18 19 19 20 22 23 25 26
32 32 32 32 30 30 31 32 31 31 30 28 27 26 24 24 22 21 20 19 18 17 16 15 14 14 14 14 15 16 16 16 17 18 19 20 21 22 23 24 25 26
34 34 34 33 32 31 32 33 32 32 30 28 28 27 25 25 23 22 22 21 20 18 17 16 16 15 15 14 15 16 16 16 17 18 19 20 21 22 24 24 25 26
36 37 37 35 33 33 33 33 33 32 31 29 28 27 27 26 25 24 23 22 21 20 19 18 17 16 15 15 15 15 15 16 18 20 21 21 22 22 23 24 25 26
38 39 39 37 35 34 34 34 34 33 31 30 29 29 29 28 27 26 25 24 23 22 21 20 19 17 16 16 16 15 16 18 19 21 22 22 23 23 23 24 25 26
38 39 39 38 36 35 36 36 35 34 32 32 31 31 31 30 29 28 27 26 25 24 23 22 20 19 18 18 17 17 17 18 20 21 23 23 24 24 24 25 26 26
39 39 39 38 37 37 38 37 37 35 33 33 34 33 33 31 31 30 29 28 27 26 25 24 22 21 20 20 20 19 19 19 21 22 23 24 25 25 26 26 26 27
39 39 39 39 39 39 38 38 38 36 35 35 35 35 34 33 33 32 31 30 29 28 27 25 24 23 23 22 22 21 20 20 22 23 24 25 26 26 27 27 27 28
40 40 40 40 40 40 39 39 39 38 37 37 37 36 36 36 35 35 33 32 31 30 29 27 25 25 25 25 24 23 22 22 23 24 25 26 27 27 28 28 28 28
40 40 41 41 41 41 41 41 40 39 39 39 39 38 38 38 38 36 35 34 34 32 31 29 27 27 27 27 27 26 25 25 25 26 27 28 28 29 29 29 29 29
40 41 42 42 41 42 42 42 42 41 41 41 40 40 39 40 40 38 37 37 36 35 33 31 30 30 29 29 29 29 28 28 28 28 29 29 30 30 30 30 30 30
40 42 43 43 42 42 43 44 44 43 43 42 41 41 41 42 41 40 40 39 39 37 35 34 34 33 32 31 31 31 31 31 30 31 30 31 31 32 32 32 31 31
40 42 43 44 43 43 43 45 45 45 44 43 42 42 42 42 42 42 42 42 41 40 38 37 36 35 34 34 34 34 34 33 33 33 32 33 33 33 33 33 32 32
40 40 42 43 43 43 44 44 44 45 45 44 44 43 43 43 44 44 44 44 43 42 41 40 39 37 37 36 35 35 36 36 35 34 34 34 34 35 35 34 33 33
41 40 40 41 42 44 44 44 44 44 45 45 46 46 46 45 45 44 44 44 45 45 44 42 41 39 38 37 36 36 37 37 37 36 36 36 36 36 36 35 34 34
42 41 40 40 41 42 43 44 44 44 45 46 47 47 47 47 46 45 45 45 46 46 45 44 42 41 40 38 37 37 38 39 38 38 38 37 37 38 38 37 36 35
44 43 41 40 40 41 41 42 44 45 45 46 47 48 49 48 48 47 47 46 46 46 46 45 43 42 41 40 39 38 39 40 40 40 39 38 38 39 40 39 37 36
46 44 43 42 41 40 39 40 41 43 45 46 47 48 49 49 49 49 49 48 47 47 46 45 44 43 42 42 42 41 41 41 42 42 41 39 39 41 41 40 39 37

ECMWFNIL_250_spd_045.txt.gz
Wind_Speed
25 25 25 24 22 20 18 17 17 17 17 16 15 14 12 11 10 9 8 7 6 6 5 5 5 5 5 5 5 6 7 8 8 9 10 10 11 11 12 14 16 18
24 24 25 24 24 22 19 18 18 18 18 17 17 15 14 13 12 11 10 9 8 8 7 6 6 5 5 5 6 6 7 9 10 10 11 11 12 12 12 14 15 17
23 24 24 24 24 22 21 20 19 19 19 19 18 17 15 15 14 13 12 11 10 9 9 7 6 6 6 6 6 7 8 9 10 11 12 12 13 13 13 14 15 18
23 23 23 23 23 24 23 22 21 20 20 20 19 18 18 17 16 15 14 12 12 11 10 9 8 7 7 6 6 7 8 9 10 11 12 12 13 13 14 14 16 18
24 23 23 23 23 24 25 24 22 22 21 21 20 20 19 18 17 16 15 14 13 12 12 11 10 9 7 7 7 7 7 8 10 11 11 12 13 13 14 15 17 19
26 26 25 24 24 25 25 24 23 23 23 22 22 21 21 20 19 17 16 15 14 14 14 12 11 10 9 8 7 7 7 9 10 11 12 12 13 13 14 16 18 20
28 27 27 26 26 25 25 24 24 24 24 24 23 23 22 21 20 19 18 16 16 16 15 13 12 11 9 9 9 9 9 10 10 12 12 13 14 15 16 17 19 20
30 29 28 28 27 26 25 25 26 25 25 25 24 23 23 22 21 21 19 18 17 17 16 15 13 12 10 10 10 10 11 11 11 12 13 14 15 16 17 18 19 20
31 31 30 30 29 28 27 27 26 26 26 26 25 25 24 23 23 22 21 19 19 18 18 16 15 13 12 11 11 12 13 13 12 13 14 14 15 16 17 18 18 19
31 32 32 32 30 29 27 27 27 27 28 27 26 26 25 25 24 24 22 21 20 20 20 18 16 14 13 13 13 13 14 14 13 13 14 14 15 17 17 18 18 18
31 33 34 33 32 29 28 27 27 28 28 28 27 27 26 26 26 25 24 22 22 22 21 20 18 16 15 15 14 15 15 14 13 13 14 15 17 18 18 18 18 19
32 34 35 35 33 31 29 28 28 29 29 28 27 27 27 27 27 26 25 24 24 24 23 22 20 19 17 16 16 16 15 14 14 15 16 17 17 18 19 19 19 19
32 34 35 35 34 32 31 30 29 30 30 29 28 27 28 28 28 27 26 26 26 26 25 23 22 21 20 18 18 17 16 16 16 17 18 18 18 19 19 19 20 20
32 33 34 34 34 33 33 32 32 31 30 30 29 29 29 29 29 28 28 28 28 27 26 25 24 23 22 21 20 19 18 18 19 20 20 19 19 19 20 20 20 21
32 32 33 34 34 34 35 35 34 34 32 31 31 31 31 30 30 30 30 30 29 28 28 27 26 25 24 23 22 21 20 21 21 22 22 21 20 20 21 21 21 22
32 32 33 33 34 35 36 36 37 36 34 33 33 33 32 32 32 32 32 31 30 30 30 29 28 27 26 25 24 23 23 23 24 24 23 23 22 22 22 22 22 23
33 32 32 33 34 35 36 37 38 38 37 36 35 34 34 34 34 34 33 32 32 32 32 31 30 29 28 28 26 25 25 25 26 26 26 25 24 24 24 25 24 24
35 34 33 34 34 35 36 37 39 40 40 39 38 36 35 35 36 35 34 34 34 34 33 33 32 31 31 30 29 28 27 27 28 29 29 28 27 27 27 27 27 26
38 36 35 34 34 35 35 37 39 41 42 42 41 38 37 37 37 36 35 35 35 35 35 35 34 34 33 32 32 31 30 29 30 30 30 30 29 29 30 30 29 28
40 39 37 36 35 34 35 36 39 41 43 44 43 41 40 40 39 38 37 37 37 36 36 37 37 36 36 35 34 34 33 33 33 33 32 32 31 32 32 32 31 30
41 41 40 38 36 35 35 36 39 40 41 43 44 43 43 42 41 40 39 39 38 38 38 39 38 38 38 38 37 37 37 37 36 36 35 35 35 34 34 34 33 32
43 43 42 40 38 36 36 37 38 39 39 40 42 44 45 44 43 42 41 41 40 39 40 41 40 39 40 40 40 40 40 40 39 39 39 38 37 36 36 35 34 33
44 44 44 42 40 39 38 37 37 38 38 38 40 41 43 44 44 43 43 42 41 42 43 42 41 41 42 42 42 42 43 43 42 42 42 41 39 38 37 36 35 35
44 44 45 44 43 41 40 39 38 38 38 39 40 40 40 42 43 44 44 44 45 45 45 44 43 42 43 43 43 44 45 45 45 45 44 43 41 40 39 38 37 36
45 45 46 46 45 44 41 40 38 37 38 39 40 40 40 40 42 44 46 47 48 48 47 47 45 44 44 44 44 44 45 46 46 47 46 45 43 42 41 40 39 38
46 46 46 47 47 46 43 42 40 39 38 39 39 40 41 42 42 43 45 46 48 48 49 49 48 46 46 46 45 45 46 46 47 48 48 47 45 44 42 42 41 41

ECMWFNIL_250_spd_051.txt.gz
Wind_Speed
24 24 23 22 21 21 20 19 17 16 15 13 12 11 10 9 9 8 7 7 6 6 6 5 5 5 5 5 5 5 6 7 8 10 10 10 10 11 11 12 13 15
24 25 25 24 23 22 21 20 19 18 17 15 14 14 13 11 10 10 9 8 8 7 7 6 6 6 6 6 6 6 6 7 8 9 9 9 10 10 11 12 14 15
23 25 26 25 24 22 21 19 19 18 18 17 16 15 15 14 13 12 11 10 9 9 8 8 7 7 7 7 7 7 7 7 8 8 8 8 9 9 10 12 13 15
21 24 25 26 25 24 22 21 20 19 19 17 17 16 16 16 15 14 13 12 11 11 10 10 9 9 9 9 8 8 8 8 8 7 8 8 8 9 10 11 13 15
20 22 24 25 26 27 26 25 23 22 20 18 18 18 17 17 16 15 14 13 12 12 12 12 11 11 10 10 10 9 9 9 9 8 8 8 8 9 9 11 13 14
22 22 23 24 26 28 28 27 26 24 23 21 20 19 18 17 16 16 15 14 14 14 14 13 13 12 12 12 12 11 11 10 10 10 9 9 9 9 9 10 12 13
25 24 23 23 24 26 28 28 28 27 26 24 23 21 20 19 17 17 16 16 15 15 15 15 14 14 14 14 14 13 13 12 12 12 11 10 10 9 9 10 11 12
26 26 26 25 24 25 26 27 29 29 28 27 25 24 22 21 19 19 18 17 17 16 16 16 16 16 16 16 16 15 15 15 14 14 13 12 10 10 11 10 10 11
25 26 27 27 27 26 26 26 27 28 28 28 26 25 25 23 22 21 20 19 18 17 17 17 17 18 18 18 18 17 17 17 16 16 16 13 12 11 12 12 11 11
24 26 27 28 28 28 27 26 26 26 27 28 27 27 26 25 24 23 22 20 19 18 18 18 19 19 20 19 19 19 19 18 18 18 17 15 13 13 13 13 13 13
25 25 26 27 29 29 29 28 27 27 27 27 27 27 27 27 26 25 23 22 20 20 20 20 20 20 21 21 21 21 20 20 20 20 19 18 16 14 14 15 15 15
26 26 27 28 28 28 29 29 29 29 28 27 26 27 27 27 26 25 24 23 22 21 21 21 21 21 21 22 22 22 22 22 22 21 21 20 18 16 16 17 17 17
27 28 28 29 28 27 27 28 30 30 30 29 28 28 28 27 27 26 24 24 23 23 23 23 23 22 22 23 23 24 24 24 23 23 23 22 20 19 18 18 19 20
27 28 29 29 28 27 27 27 29 30 31 30 30 29 29 28 28 26 25 25 25 25 25 25 24 23 22 23 24 25 25 25 25 25 24 24 23 21 20 20 20 21
26 27 28 29 29 28 28 28 29 30 30 31 31 31 30 29 29 28 27 27 27 27 27 27 26 25 24 24 25 25 26 26 26 26 26 26 25 24 23 22 21 22
24 25 26 28 29 29 30 29 30 30 30 31 32 32 31 31 30 29 29 28 28 28 29 28 28 27 25 26 26 26 26 26 27 27 28 28 28 27 26 25 24 24
25 25 25 27 28 30 30 30 30 30 30 31 32 32 32 33 32 32 31 30 29 30 30 30 29 28 27 28 28 28 27 27 27 28 29 29 30 30 29 28 27 27
26 25 25 26 28 30 31 31 31 31 31 31 32 32 33 33 34 34 34 32 32 32 32 32 31 30 29 29 30 29 29 29 29 29 30 30 31 31 32 31 31 30
27 27 26 26 28 30 31 31 32 33 34 34 33 33 33 33 34 35 35 34 34 34 34 33 33 32 31 31 31 31 30 30 30 30 30 31 31 32 33 34 33 33
29 28 28 28 29 30 31 32 34 35 36 36 35 34 35 35 35 36 36 36 36 37 37 35 35 34 33 33 33 32 32 31 31 32 31 31 32 33 34 35 35 35
31 31 30 30 30 31 31 33 35 36 37 37 37 37 37 37 37 37 37 37 38 38 38 37 37 37 36 35 35 34 34 34 34 34 33 33 33 34 35 36 37 37
33 33 33 32 32 32 33 34 35 37 38 38 38 38 38 38 37 37 38 39 39 39 38 38 39 39 38 38 37 37 37 37 37 36 35 35 35 36 36 37 38 38
36 36 35 35 34 34 35 36 36 37 38 38 39 39 40 40 39 38 37 37 38 38 39 39 39 40 40 40 40 40 40 40 39 39 38 38 38 38 38 39 39 39
39 38 37 37 36 36 36 37 37 38 38 38 39 39 40 41 41 40 38 36 35 35 36 38 39 40 41 42 42 43 43 43 42 41 41 41 40 40 41 41 41 42
41 40 39 38 38 38 37 37 38 38 38 38 39 39 41 42 42 42 41 40 37 35 34 35 37 40 42 43 44 44 45 45 45 44 44 44 43 43 43 43 43 44
43 42 41 39 39 39 38 38 38 38 39 39 39 40 41 42 43 43 43 43 41 38 36 35 35 38 41 43 44 45 46 46 47 47 46 46 45 45 45 45 45 45

ECMWFNIL_250_spd_054.txt.gz
Wind_Speed
19 18 18 17 17 16 15 14 13 12 11 10 9 8 8 7 7 7 6 6 6 6 6 6 6 5 5 6 6 7 7 8 9 9 10 10 10 11 12 13 14 16
21 20 20 19 18 18 17 16 15 14 12 11 11 10 10 9 8 8 8 8 8 8 7 7 7 7 6 6 6 7 7 8 8 9 9 10 10 10 11 12 14 15
22 23 23 22 20 19 19 18 18 17 15 14 13 12 12 11 11 11 10 10 10 9 9 9 8 8 8 7 7 7 8 8 8 9 9 9 10 9 10 11 13 15
21 23 24 24 23 22 21 21 20 19 18 16 15 15 14 14 13 13 13 12 11 11 11 10 10 10 10 9 9 8 8 9 9 9 9 9 10 9 9 10 12 13
21 22 23 25 25 25 24 23 22 21 19 17 16 17 16 16 16 16 15 14 13 13 12 12 11 11 11 11 10 10 10 10 10 10 9 9 10 9 9 9 10 11
23 23 24 25 26 26 26 25 23 23 21 19 18 18 18 18 17 17 16 15 15 14 14 13 13 13 13 12 12 12 11 11 11 11 11 10 10 10 10 9 9 10
26 26 25 25 26 26 26 26 25 25 24 22 21 21 21 20 19 18 17 17 16 16 15 15 15 15 14 14 14 13 12 12 12 12 12 11 11 11 11 10 10 10
27 27 27 27 27 27 26 26 27 27 27 26 24 24 23 22 21 19 19 19 18 17 17 17 16 16 16 15 15 15 14 14 14 14 14 13 12 12 12 12 11 11
26 27 28 28 28 28 28 28 27 28 28 27 26 26 26 25 24 22 21 21 20 19 18 18 18 18 18 17 17 16 16 16 16 15 15 15 15 14 14 13 12 12
25 27 27 28 28 28 28 28 27 28 28 27 27 27 27 27 27 25 24 23 21 21 20 19 19 19 19 18 18 18 18 18 18 17 17 17 17 16 15 15 14 14
25 26 27 28 28 28 27 27 27 27 27 27 26 27 27 28 28 27 26 25 24 23 22 21 21 21 20 20 20 19 19 19 20 19 19 19 19 18 18 17 16 16
25 26 27 28 28 27 27 27 27 27 27 26 26 26 26 27 28 27 26 26 26 25 24 24 24 23 22 21 21 20 21 21 21 21 21 20 20 20 20 20 19 18
25 27 27 28 27 26 25 26 27 27 27 26 26 26 26 26 27 27 26 26 26 27 26 26 26 25 24 23 22 21 22 22 23 23 22 22 22 21 21 21 21 20
24 26 26 26 27 26 25 26 27 28 28 28 27 28 27 27 27 27 26 25 26 26 27 27 27 26 25 24 23 23 23 24 24 24 24 23 23 23 23 23 23 23
23 24 25 26 26 26 26 26 27 28 28 28 29 29 28 28 28 28 27 27 26 27 27 27 27 27 26 25 24 25 25 26 26 26 25 25 25 25 24 24 25 25
23 24 24 25 26 26 26 26 28 29 29 29 29 29 29 29 29 30 30 29 28 28 28 29 29 28 27 26 26 27 27 27 27 28 28 27 27 27 26 26 26 26
25 25 24 25 25 26 26 26 27 29 30 30 30 30 30 30 30 31 31 31 30 30 30 31 31 30 29 28 28 29 29 29 29 29 30 29 28 28 28 28 28 28
27 27 26 25 25 26 26 27 27 28 30 31 32 31 31 31 32 32 33 33 32 32 33 33 33 32 31 30 29 30 31 31 31 31 31 31 30 30 30 29 29 29
30 29 28 27 27 26 27 27 27 28 29 31 32 32 31 32 33 33 34 34 35 35 35 35 35 34 33 32 31 32 33 33 33 33 33 33 32 32 31 31 31 31
33 32 30 29 29 28 28 28 29 29 29 30 31 31 31 33 34 34 34 35 36 36 36 37 37 37 36 34 33 34 35 35 35 35 35 35 34 33 33 33 33 33
36 34 33 32 32 31 30 30 30 31 30 30 31 31 32 32 33 34 35 35 36 37 37 37 38 38 38 37 36 36 37 38 38 38 37 36 36 35 35 35 35 35
38 36 35 34 34 34 33 32 32 32 32 31 31 31 31 32 33 34 35 35 36 37 38 38 39 39 39 38 37 38 39 40 41 40 39 38 38 37 37 38 37 37
39 38 38 37 36 36 35 34 33 33 33 32 32 32 32 32 32 33 34 34 36 38 39 40 40 41 41 39 39 40 41 42 43 42 41 40 40 39 39 39 39 40
41 41 40 39 38 37 37 36 35 34 34 34 33 33 33 33 33 33 33 34 35 37 40 41 41 41 40 39 39 41 43 44 44 44 43 42 41 41 42 42 42 42
42 42 42 42 40 39 38 37 36 36 35 34 34 34 34 34 34 34 34 35 36 37 39 40 41 41 41 39 37 39 42 44 45 45 45 44 43 43 44 44 44 44
44 44 45 44 43 41 40 39 38 37 36 36 35 34 34 35 35 35 35 36 37 37 38 39 40 41 42 42 40 39 40 42 44 45 45 43 43 44 45 46 46 46

ECMWFNIL_250_spd_057.txt.gz
Wind_Speed
21 21 20 19 18 17 16 15 13 11 9 7 6 5 4 3 3 2 3 3 4 4 4 5 5 6 6 7 8 9 9 9 9 10 11 12 13 13 14 15 16 17
21 21 20 20 19 18 17 15 14 12 11 9 8 7 6 6 5 4 4 5 5 5 6 6 6 6 6 7 7 8 8 8 8 8 8 9 11 11 12 12 14 15
21 21 20 19 18 18 17 16 15 14 13 11 10 9 9 8 8 7 7 7 7 7 7 7 7 7 7 7 7 8 8 8 7 7 6 7 8 10 10 10 11 12
23 21 20 19 19 19 19 18 17 16 15 14 13 12 11 11 10 10 10 10 9 9 9 9 9 9 9 8 8 8 8 8 7 6 6 6 6 8 9 10 10 10
25 24 22 21 20 20 20 20 19 18 17 17 16 15 14 14 13 13 12 12 12 12 12 11 11 11 11 10 10 10 9 9 8 7 6 6 6 6 8 9 9 9
27 27 25 24 23 23 22 21 20 20 19 19 19 18 17 16 16 15 15 14 14 14 14 14 14 13 13 13 12 12 11 10 10 9 7 6 6 6 7 8 9 10
29 29 28 27 26 25 24 23 23 22 21 20 20 20 19 19 18 18 17 17 16 16 16 16 16 15 15 14 14 14 13 13 12 11 9 8 7 8 7 8 9 10
28 29 29 29 28 28 27 26 25 24 23 22 22 21 21 20 20 19 19 19 18 18 18 18 18 18 17 16 16 16 15 15 14 13 12 10 9 9 9 9 9 10
26 27 28 29 29 29 29 28 27 26 25 25 24 24 24 23 22 21 21 21 20 20 20 20 20 20 19 18 18 18 17 17 17 16 14 13 12 11 10 11 11 11
25 27 27 27 27 27 27 28 28 28 27 27 26 26 26 25 25 24 23 23 22 22 22 23 23 22 21 20 20 20 20 19 19 18 17 16 14 13 12 12 13 13
23 25 26 26 25 24 24 25 26 26 27 27 27 28 27 27 27 27 25 24 24 24 24 25 25 24 24 23 22 22 22 22 21 20 19 18 17 16 15 14 14 15
21 23 25 25 24 23 22 23 24 24 25 26 26 27 27 28 28 28 26 25 25 25 26 27 27 26 25 25 24 24 24 23 23 21 21 20 20 19 18 17 16 16
20 22 22 23 22 21 21 22 23 24 24 25 25 26 26 26 27 27 26 25 26 26 27 27 28 27 27 26 25 25 25 25 24 23 22 22 22 21 20 19 19 18
19 20 21 21 21 20 20 21 22 24 25 25 26 26 26 26 26 26 26 25 26 27 28 28 29 28 27 26 26 26 26 26 25 24 24 24 24 23 23 22 21 20
20 21 21 21 20 20 20 20 20 22 23 25 26 26 27 26 26 26 26 26 27 27 28 29 29 29 27 26 26 26 27 27 27 26 26 26 26 25 25 24 23 22
22 22 22 21 20 20 19 19 19 20 22 24 25 26 27 27 27 27 28 29 29 29 29 30 30 30 29 28 28 28 29 29 29 29 28 28 27 27 26 26 25 24
24 24 24 23 22 21 20 20 19 19 20 22 24 26 27 27 27 27 28 30 30 31 31 32 32 32 31 30 30 31 32 32 32 32 31 30 29 29 28 28 27 26
27 27 26 25 24 23 22 21 21 21 21 22 23 24 25 27 27 27 28 29 31 32 33 34 33 33 33 33 32 33 34 34 34 34 33 32 31 30 30 30 29 28
30 29 29 28 27 26 25 24 23 23 23 23 23 22 23 25 27 27 27 28 30 32 33 34 34 34 34 34 34 34 35 36 36 35 35 35 34 33 32 32 31 31
33 32 32 31 30 29 28 27 26 25 24 24 23 22 22 24 26 26 27 28 29 31 33 34 35 35 34 34 35 35 36 37 38 37 36 36 36 35 34 34 34 33
36 36 34 33 33 32 30 30 29 27 26 25 24 23 23 23 25 26 26 27 28 30 32 33 34 34 34 34 35 35 36 38 39 39 38 37 37 36 36 36 36 35
39 38 37 36 35 34 32 31 30 29 27 26 26 26 24 24 25 26 27 27 27 28 30 32 33 34 34 34 34 34 36 38 39 39 39 38 38 38 38 38 38 37
41 41 39 38 36 35 33 31 30 30 29 28 28 27 27 25 25 26 27 27 28 29 30 31 32 33 34 34 34 34 35 37 39 39 39 39 38 38 38 38 39 38
41 42 41 39 38 36 34 32 31 31 31 30 29 29 29 28 26 26 27 28 28 29 30 31 32 34 35 35 34 34 35 36 38 39 40 39 37 36 36 36 36 37
43 43 42 40 39 37 36 34 33 33 32 32 31 31 30 30 28 28 28 29 29 29 30 32 33 34 35 36 36 35 35 36 37 38 40 40 38 37 36 36 36 36
44 43 42 41 40 39 37 35 34 35 34 34 33 32 32 31 31 30 30 30 30 30 31 32 33 34 35 35 36 36 36 36 37 39 40 40 38 37 37 38 38 38

ECMWFNIL_250_spd_060.txt.gz
Wind_Speed
23 22 22 21 20 20 19 18 16 14 13 12 10 8 7 5 4 3 1 0 1 2 3 4 4 5 6 6 7 7 8 8 8 9 9 10 10 11 11 12 13 14
23 23 22 22 21 21 20 19 17 16 14 13 11 10 8 7 6 4 3 2 2 3 4 4 5 5 6 6 7 7 7 7 7 7 8 8 9 9 9 9 10 12
22 22 22 22 21 21 20 19 18 17 15 14 13 12 10 9 8 7 6 5 5 5 5 6 6 6 6 7 7 7 7 7 7 7 7 8 8 9 9 8 8 9
22 21 21 21 22 21 21 20 19 18 16 15 14 13 12 11 10 9 8 8 8 8 8 8 8 8 7 8 8 8 7 7 7 7 7 8 8 9 9 9 8 8
22 22 22 22 21 21 21 20 19 18 18 17 16 15 14 13 12 11 11 11 10 10 10 10 10 9 9 9 9 8 8 8 8 8 8 8 9 9 9 9 9 9
25 24 23 23 22 22 21 20 20 19 19 19 18 17 16 15 14 14 13 13 13 13 12 12 11 11 10 10 10 9 9 9 9 9 9 9 10 10 10 10 10 10
28 27 25 24 23 22 21 21 21 21 21 20 20 19 18 18 17 17 16 16 15 15 14 14 13 13 12 12 11 11 11 10 10 10 10 10 11 11 12 12 12 12
30 29 28 26 25 24 23 23 23 23 22 22 22 20 20 20 19 19 18 18 17 17 16 16 16 15 14 14 14 13 13 13 12 12 12 12 12 12 13 13 13 13
30 30 30 29 28 27 26 26 26 25 25 25 24 23 22 21 21 21 20 20 19 19 19 19 18 18 17 16 16 16 16 15 14 14 13 13 13 13 14 14 14 15
29 30 30 30 29 28 28 28 28 28 27 27 26 25 24 23 23 23 22 22 22 22 22 22 21 21 20 19 18 18 18 17 17 16 15 14 14 14 15 15 15 16
28 29 29 28 27 27 27 27 28 28 27 27 27 26 26 25 25 25 24 24 24 25 25 24 24 23 22 21 20 20 19 19 19 18 17 16 16 16 16 16 17 17
26 27 26 25 23 23 23 24 25 25 25 25 25 25 25 26 26 26 25 24 25 25 26 25 25 25 24 22 22 21 21 21 20 20 19 18 18 18 18 18 18 18
25 25 23 21 20 19 19 21 22 22 22 22 23 23 24 24 25 24 24 23 23 24 24 24 24 24 24 23 22 23 23 23 22 21 21 20 20 20 20 20 20 20
24 23 21 20 19 18 18 19 19 20 20 20 21 22 23 23 23 23 23 22 22 22 23 23 23 23 23 23 23 23 24 24 24 23 23 23 23 23 23 23 22 22
22 21 21 20 19 19 19 19 18 18 18 18 20 21 21 21 21 22 22 23 23 22 22 23 23 23 23 23 23 24 25 25 25 25 25 25 26 26 25 25 24 24
20 20 20 20 20 19 18 17 17 17 17 18 19 19 20 20 20 21 21 22 23 23 23 23 23 23 23 24 24 25 26 27 27 27 27 27 27 28 28 27 27 26
19 19 19 19 19 18 17 17 16 17 17 18 18 19 19 19 19 19 20 20 22 23 23 23 23 23 23 24 25 26 27 28 28 28 29 29 28 28 28 29 28 28
21 20 20 20 20 19 19 18 17 17 17 18 18 19 18 18 18 18 18 18 20 21 22 22 21 21 22 23 24 25 26 28 29 29 29 29 29 29 28 29 29 30
25 24 23 22 22 21 21 20 19 18 17 17 17 17 17 18 18 17 17 17 18 20 20 21 20 20 21 22 23 24 25 27 28 28 28 28 28 28 28 28 29 30
29 28 27 25 24 24 24 23 22 20 18 17 17 17 18 18 17 17 17 17 18 18 19 20 20 20 20 21 22 23 24 25 27 27 27 27 27 27 27 27 28 30
31 30 28 28 27 26 26 25 23 21 20 19 18 18 19 18 18 17 17 17 18 18 19 19 20 19 20 20 21 22 23 25 26 26 27 27 27 26 26 26 27 28
34 31 29 28 28 27 27 26 24 22 21 20 20 20 19 19 19 19 18 17 18 19 19 19 19 19 20 20 21 22 23 24 25 26 26 26 26 27 27 28 28 29
36 33 31 30 28 27 27 26 24 23 22 22 21 21 21 20 20 20 19 18 19 20 21 20 19 20 20 20 20 21 22 24 25 25 26 26 26 27 28 29 29 30
38 34 33 32 31 28 27 25 25 23 22 22 22 22 22 22 22 22 22 21 20 21 21 21 21 21 21 21 20 21 22 23 24 25 25 25 26 26 27 29 30 31
39 36 35 34 33 31 28 26 25 24 23 23 24 24 24 24 24 24 25 24 23 22 22 22 22 22 22 22 21 21 22 23 23 24 25 25 25 26 26 28 29 31
39 38 36 34 34 33 30 27 26 24 24 25 25 26 25 25 26 27 27 27 26 25 24 24 24 24 24 23 23 22 23 23 23 24 25 25 25 25 26 27 29 30

ECMWFNIL_250_spd_063.txt.gz
Wind_Speed
31 29 26 24 21 18 16 16 16 14 12 11 10 8 7 6 5 4 3 1 1 2 3 4 5 5 6 6 7 7 8 8 9 9 10 10 10 10 10 10 11 11
32 30 28 26 23 20 19 18 18 17 15 13 11 10 9 8 6 5 4 3 1 1 2 3 4 4 5 6 6 7 8 8 8 9 9 10 10 10 10 10 10 10
31 30 29 26 24 21 20 20 20 19 17 15 13 12 11 9 8 7 6 5 4 3 3 3 4 5 5 6 6 7 7 8 8 9 9 9 10 10 10 10 10 11
28 28 28 26 25 23 22 22 21 20 19 17 16 14 13 11 10 10 9 8 7 6 5 5 6 6 6 7 7 7 8 8 8 9 9 9 10 10 10 10 10 11
27 27 27 27 27 26 24 24 22 21 20 19 18 16 14 13 12 12 11 10 9 8 8 7 7 7 8 8 8 8 9 9 9 9 10 10 10 10 11 11 11 11
27 27 28 28 28 27 26 25 23 23 22 21 19 18 16 15 14 13 13 12 11 11 10 9 9 9 9 9 9 9 10 10 10 10 10 11 11 11 11 12 12 12
28 28 28 29 29 28 27 26 25 25 24 22 21 19 17 16 15 15 14 14 14 13 12 12 11 10 10 10 10 10 10 10 11 11 11 11 11 12 12 12 13 13
28 29 29 30 29 29 28 27 26 26 25 24 22 20 19 17 17 17 16 16 16 15 15 14 13 12 12 12 12 12 11 11 11 11 11 11 12 12 13 13 13 14
30 29 30 30 30 30 29 28 27 26 26 25 23 21 20 19 18 18 18 17 17 17 17 16 15 14 14 14 14 13 13 12 12 11 11 12 12 12 13 14 14 14
33 32 31 31 31 30 30 29 28 27 27 25 24 23 21 21 20 19 19 19 19 19 19 19 18 17 17 17 16 15 14 13 13 12 12 12 12 13 14 14 15 15
34 33 33 32 31 30 30 29 29 28 27 26 25 24 23 22 22 21 21 21 21 21 21 21 19 18 18 18 17 16 15 14 13 13 13 13 13 14 14 15 15 16
32 33 33 32 31 30 29 29 29 28 28 27 26 25 24 23 22 22 21 21 22 23 22 21 20 18 18 17 16 15 15 14 13 13 13 13 14 14 15 15 16 16
30 31 30 29 29 30 29 29 29 28 28 27 26 25 25 24 22 21 20 21 22 22 21 20 19 18 17 16 16 15 15 14 14 13 13 14 14 14 15 15 16 17
28 28 26 25 25 26 28 29 28 28 27 26 26 25 24 23 21 19 19 20 20 20 19 19 18 17 17 16 16 16 16 15 15 15 14 14 15 15 15 16 16 17
26 26 25 24 24 24 26 27 27 26 25 24 25 24 22 20 19 18 18 18 18 17 17 17 17 17 16 16 16 17 17 16 16 15 16 15 15 16 16 16 16 16
26 27 27 26 26 27 27 27 26 25 24 24 23 22 20 19 18 18 18 18 17 16 16 16 16 15 15 16 16 16 16 16 16 15 16 16 16 16 16 16 16 16
29 29 29 28 28 28 28 27 26 25 24 23 23 22 21 20 19 19 19 17 16 15 15 15 14 13 14 15 15 15 15 15 15 15 15 15 15 15 15 15 16 16
30 29 30 29 28 27 26 25 25 24 24 24 24 23 22 21 20 19 18 17 16 16 15 13 12 12 13 14 14 14 14 14 14 14 14 15 15 15 15 15 16 16
30 30 30 30 29 28 26 25 25 25 25 24 23 21 21 20 20 18 17 16 16 15 13 11 10 11 12 12 12 12 12 13 13 13 13 14 14 14 15 15 16 17
32 31 31 30 30 29 27 27 27 26 24 22 20 20 20 20 18 16 15 15 15 14 12 11 10 10 10 11 12 12 12 12 12 12 13 13 13 14 14 15 16 17
36 35 33 32 31 30 29 28 26 24 22 20 19 20 20 18 16 15 15 15 14 12 12 12 10 9 10 11 12 12 12 13 13 13 12 12 12 13 14 15 17 18
40 38 36 34 32 31 30 28 26 24 22 20 19 19 19 17 16 16 15 14 13 12 13 13 11 10 11 11 12 12 13 14 14 13 13 12 12 13 14 15 17 19
42 40 38 36 34 33 32 30 27 25 23 22 21 20 19 18 17 16 15 14 14 15 16 15 13 12 12 13 13 14 14 15 14 14 13 13 13 13 14 15 17 19
42 41 39 38 36 35 34 32 29 27 25 24 23 22 21 19 18 18 17 17 17 18 18 17 15 15 15 15 15 15 16 16 16 15 15 14 13 13 14 16 17 18
44 43 42 40 39 37 35 33 32 29 27 26 25 25 23 22 20 20 20 19 19 19 19 19 18 18 18 18 17 17 18 19 18 17 17 15 14 14 15 17 17 18
46 45 44 42 41 40 37 35 33 31 29 29 28 27 26 24 23 23 22 21 20 20 21 21 21 20 20 20 19 19 20 21 20 20 19 16 15 15 16 17 18 18

ECMWFNIL_250_spd_066.txt.gz
Wind_Speed
23 21 19 17 15 13 11 9 9 9 9 8 7 6 5 4 3 2 1 1 2 4 6 7 8 8 9 10 10 10 10 10 10 9 9 9 9 9 9 9 9 10
27 24 23 21 19 17 14 12 11 11 11 11 10 8 7 5 4 4 3 1 1 3 5 6 7 8 8 9 9 9 10 10 10 9 9 9 9 9 9 9 9 9
30 28 26 24 22 20 18 15 14 14 14 13 12 11 9 8 6 6 5 3 2 3 4 6 7 7 8 8 9 9 9 9 9 10 9 9 9 9 9 9 9 9
33 31 29 27 26 25 22 20 17 16 16 16 15 14 12 10 9 8 7 5 4 3 4 6 7 8 8 9 9 9 9 9 9 9 9 9 9 9 9 10 10 10
35 34 32 31 30 28 26 23 20 18 18 18 18 17 15 13 11 10 9 7 5 4 4 6 7 8 8 9 9 9 9 9 9 9 9 9 10 10 10 10 10 11
34 33 33 33 32 31 29 26 23 21 21 20 20 19 18 16 14 12 10 8 6 5 5 6 7 7 8 8 9 9 10 10 10 10 10 10 10 10 10 10 10 11
32 31 32 32 33 32 30 28 25 24 23 22 21 20 19 18 16 14 11 10 8 7 7 7 8 8 8 8 9 10 11 11 11 11 11 11 11 11 11 11 11 11
31 30 31 32 33 32 31 29 27 26 25 24 23 22 20 19 18 16 14 12 10 9 9 9 9 9 9 9 10 11 12 12 12 12 12 12 12 12 12 12 12 12
32 31 30 32 33 33 32 31 29 27 26 25 24 23 22 21 20 18 16 14 13 11 11 11 11 11 11 11 12 13 13 14 14 13 13 13 13 13 13 13 13 12
33 32 31 31 32 32 32 31 30 29 27 26 25 24 23 22 21 20 18 16 15 14 13 13 13 13 13 13 13 13 14 14 14 14 14 14 14 14 14 14 13 13
33 33 33 32 31 31 32 31 30 29 28 27 26 25 24 23 22 21 20 18 17 17 16 16 16 15 15 14 14 14 14 14 14 14 13 14 14 14 14 14 14 13
32 34 34 32 31 31 31 31 30 29 28 27 27 26 25 24 23 22 21 20 19 19 19 18 18 17 16 15 14 13 13 13 13 13 13 13 13 14 14 14 14 14
30 31 32 32 31 30 30 30 31 30 29 28 27 26 26 24 23 22 21 21 21 21 20 19 18 17 16 15 14 13 12 12 12 12 12 13 13 14 14 14 15 15
28 28 28 29 30 30 30 31 31 31 30 29 28 27 26 25 23 22 21 22 22 22 20 19 18 16 14 14 13 13 12 12 12 12 12 13 13 14 14 15 15 15
27 26 25 26 28 30 31 32 31 31 30 29 29 28 27 25 24 22 22 23 23 22 20 19 16 14 13 13 12 13 13 13 12 12 12 13 13 14 15 15 15 16
27 26 25 25 26 29 31 33 32 32 31 31 31 30 28 26 25 23 23 23 23 22 20 19 16 14 12 12 12 13 13 13 12 12 12 13 13 14 15 15 16 16
28 27 27 26 27 28 30 32 32 32 32 32 31 30 28 26 25 24 24 23 22 21 20 19 16 14 13 13 13 13 13 13 12 11 11 12 12 13 14 15 16 17
30 30 29 29 29 29 29 30 31 31 31 31 31 29 28 26 26 25 24 23 22 21 19 17 15 13 13 14 13 13 13 12 11 11 11 11 11 13 14 15 16 17
32 32 32 32 31 31 30 30 30 31 31 30 30 29 28 27 27 26 24 22 21 19 17 15 13 13 14 14 13 12 12 11 10 10 10 10 11 12 12 13 15 17
34 34 34 33 32 31 30 30 31 32 31 31 30 29 29 28 27 25 22 21 19 18 15 13 12 12 13 13 12 11 10 10 10 10 10 10 10 11 12 13 14 16
36 36 35 34 33 31 30 31 31 31 31 31 30 30 29 27 25 23 21 20 18 16 15 14 12 11 12 12 11 10 10 11 11 11 10 10 10 11 12 13 14 15
38 37 37 36 34 33 32 32 32 31 30 29 29 28 27 26 25 24 21 19 17 17 17 16 13 11 12 12 11 10 11 12 12 11 11 11 11 12 13 13 14 15
40 39 38 37 36 36 35 35 33 31 29 28 27 27 26 26 25 24 21 19 19 19 19 18 15 13 13 13 12 12 12 13 12 12 12 13 13 13 14 14 15 16
43 42 40 39 38 38 38 36 34 32 29 28 27 27 27 26 26 24 22 21 21 21 21 20 18 15 15 14 14 13 13 14 13 14 14 14 13 13 14 15 16 17
46 44 43 41 40 40 39 36 34 31 29 29 29 29 29 28 26 25 24 23 23 23 22 22 20 17 16 16 15 14 14 15 14 15 15 14 13 14 15 16 17 18
48 47 46 45 43 42 40 38 35 33 31 30 30 30 29 28 28 27 27 26 25 25 24 24 22 19 18 18 17 15 16 16 15 16 16 14 14 15 16 17 18 18

ECMWFNIL_250_spd_072.txt.gz
Wind_Speed
20 18 16 14 12 9 8 7 5 4 3 3 2 1 0 1 3 5 5 5 5 5 6 7 9 9 9 9 10 10 10 11 11 11 12 12 12 12 12 13 13 14
23 21 19 16 14 12 10 8 6 5 4 3 3 2 1 0 1 3 4 4 4 4 5 6 7 8 8 8 9 9 9 9 10 10 11 11 11 11 12 12 13 13
26 24 21 19 17 15 13 11 8 7 5 5 5 4 3 2 1 1 2 3 3 3 3 4 5 6 7 7 8 8 8 9 9 10 10 10 10 11 11 11 12 12
28 26 24 22 20 19 17 14 11 9 8 7 8 7 5 4 3 2 2 2 2 2 2 3 4 5 6 7 7 8 8 9 9 9 10 10 10 10 10 10 11 11
29 28 27 25 24 22 19 17 15 12 11 10 10 9 8 6 5 4 4 3 3 2 2 1 2 3 4 5 5 6 7 8 9 10 10 10 9 9 10 10 10 10
28 29 29 28 27 25 22 20 18 16 15 13 12 12 11 9 7 6 6 5 4 4 4 2 1 0 1 2 3 4 5 7 8 9 10 9 9 9 9 9 9 9
28 29 30 30 29 28 25 23 21 20 18 17 16 14 14 12 11 9 8 7 6 5 5 4 3 2 2 1 2 3 4 5 7 8 9 9 9 9 8 8 8 8
29 30 31 31 31 30 28 26 24 22 21 20 19 17 16 15 14 12 10 10 9 8 7 6 6 5 5 4 4 4 5 6 7 8 9 9 9 9 8 8 7 7
30 32 33 33 33 32 31 29 27 25 24 22 21 20 19 18 17 15 13 12 11 10 9 8 8 8 7 7 7 7 7 7 8 9 9 10 10 9 9 8 7 7
30 32 34 35 35 34 33 32 30 29 27 25 23 22 21 20 19 18 16 14 13 12 11 11 10 9 9 9 9 9 9 9 10 10 11 11 11 10 9 8 8 7
29 30 32 33 35 35 35 34 33 32 30 28 26 25 24 23 21 20 18 16 14 14 13 13 12 11 11 11 11 11 11 11 11 12 12 12 11 11 10 10 9 8
29 30 30 30 31 32 33 34 34 33 32 31 29 27 26 24 23 22 20 18 17 16 15 15 14 13 12 11 11 12 12 12 13 13 13 12 12 11 11 11 11 10
30 30 30 29 29 29 30 31 32 32 32 31 30 28 27 25 24 23 21 20 19 18 17 17 15 14 13 12 11 12 13 14 14 14 14 13 12 12 12 11 11 11
30 29 29 29 29 28 28 29 29 30 30 30 29 28 27 25 25 23 23 22 21 20 19 18 16 15 13 12 11 12 13 14 15 15 14 14 13 12 12 12 11 11
29 28 28 28 29 29 29 29 29 29 29 29 29 28 27 26 25 24 24 23 22 21 20 19 17 16 14 12 12 12 13 13 14 15 15 14 13 13 12 12 11 11
30 30 29 29 29 29 29 29 29 29 29 30 30 28 27 26 26 26 25 25 24 23 22 21 19 17 15 14 13 13 13 14 14 15 15 15 14 13 12 11 10 10
34 32 30 29 29 29 29 29 29 29 29 30 30 29 28 27 27 27 27 26 25 24 23 22 20 18 16 15 14 14 14 14 15 15 16 15 14 13 12 11 10 9
36 34 32 30 30 30 30 30 29 29 29 30 30 30 28 27 28 28 27 26 26 25 25 24 22 19 18 17 16 15 15 15 15 16 17 16 15 13 12 10 9 8
37 36 35 32 31 30 30 30 30 30 30 31 31 30 29 28 29 29 28 27 27 27 27 26 24 21 20 19 18 17 17 16 17 17 18 17 15 13 11 10 9 8
38 38 37 35 32 30 30 30 31 32 32 31 31 31 31 31 31 30 29 28 28 28 27 27 25 23 22 21 20 19 18 18 19 19 19 17 14 12 11 9 8 7
40 39 38 36 33 31 31 31 32 32 32 31 31 32 32 32 32 31 31 30 29 29 28 28 27 25 23 22 22 21 20 20 21 21 19 16 13 11 10 9 8 7
42 41 39 37 34 32 31 31 31 31 31 30 30 31 32 32 32 32 32 31 30 29 28 29 29 26 24 23 23 22 21 22 22 21 18 16 13 11 10 9 8 7
45 43 41 39 35 33 32 31 30 29 29 29 29 30 30 31 31 31 31 30 30 30 30 30 29 28 26 25 23 22 22 23 23 20 18 16 13 11 10 9 8 8
46 44 43 42 38 35 33 30 27 25 24 26 27 29 30 31 31 30 30 30 30 30 31 31 30 28 26 25 24 22 22 24 23 21 19 17 14 12 11 10 10 9
50 47 46 45 42 38 34 31 29 29 28 27 27 28 30 31 32 32 32 31 31 31 31 30 29 28 26 25 23 22 23 24 24 22 20 17 14 12 12 12 12 11
55 53 50 48 46 42 36 32 33 35 37 37 36 36 35 34 33 34 35 33 32 32 31 31 29 27 26 25 23 23 24 25 25 24 21 17 14 13 14 15 14 12

ECMWFNIL_250_spd_075.txt.gz
Wind_Speed
17 15 13 10 8 8 7 6 5 5 4 4 5 5 4 3 2 2 3 4 4 4 5 5 5 6 6 7 8 8 9 10 9 9 11 11 12 12 12 12 11 11
19 18 16 13 11 10 9 7 5 4 3 3 4 5 4 3 2 2 2 3 3 3 3 3 3 4 5 6 7 7 8 8 8 8 9 9 10 10 11 10 10 10
21 20 18 16 14 13 11 9 7 5 3 2 2 3 3 2 1 1 1 1 2 3 3 2 2 2 3 4 6 6 7 7 7 7 8 8 8 8 9 9 9 9
22 22 21 20 18 16 14 11 9 7 5 4 2 1 2 1 0 1 2 2 1 1 1 1 1 2 2 3 4 5 6 6 7 7 7 7 7 7 7 7 7 7
24 25 24 23 21 19 17 14 12 10 8 7 4 2 1 0 1 2 3 3 3 2 1 2 2 3 3 3 4 4 5 6 7 7 8 8 8 7 7 6 6 6
26 27 27 26 25 23 20 18 16 14 12 10 8 6 4 3 2 3 4 4 4 4 4 4 5 5 5 6 6 6 7 8 8 9 9 9 9 8 7 6 6 6
26 27 28 29 28 26 24 22 20 17 16 14 11 9 8 7 5 5 5 5 6 5 5 6 6 7 7 7 8 8 8 9 10 10 10 10 10 9 9 8 7 6
27 27 28 29 29 29 28 26 23 21 19 17 15 12 11 10 8 7 7 7 7 7 7 8 8 9 9 9 9 9 9 9 10 11 11 10 10 10 10 9 8 8
27 27 27 28 29 29 29 28 26 24 22 20 17 16 14 13 12 10 9 9 9 9 9 10 11 11 11 11 11 10 9 9 10 11 11 11 10 10 10 9 9 9
29 28 28 28 29 29 30 30 29 27 25 23 21 19 18 16 15 13 12 11 11 10 11 12 13 13 13 13 13 12 10 10 10 10 11 11 11 10 9 9 8 9
30 29 28 28 29 30 30 30 30 30 29 27 25 24 22 21 19 17 15 14 13 13 13 14 14 14 14 14 14 14 12 10 10 10 10 11 10 10 9 9 9 8
30 29 28 27 27 29 30 31 32 32 31 30 29 28 26 25 23 21 19 17 16 16 15 15 15 15 15 15 15 15 13 11 10 10 10 10 10 10 10 9 9 8
30 28 28 26 26 27 28 30 32 32 32 32 31 31 29 28 27 24 22 21 19 19 18 18 17 17 17 16 16 15 14 12 11 10 10 11 11 11 10 10 10 9
29 27 26 25 26 26 26 27 28 30 31 32 32 32 31 30 29 27 25 24 23 22 21 20 19 19 18 17 17 16 15 13 11 11 11 11 12 11 11 11 10 10
28 26 25 25 25 26 25 25 25 26 27 29 30 31 31 31 30 29 28 26 25 24 23 23 22 21 20 19 18 17 16 14 12 12 12 12 12 12 12 11 11 10
29 28 26 26 26 26 25 24 23 23 24 25 27 28 29 30 30 29 29 27 26 26 25 25 24 22 21 20 19 18 17 16 14 13 13 13 13 13 12 12 11 10
33 31 28 27 26 25 25 23 22 22 22 24 25 26 28 29 29 29 28 28 28 28 27 27 26 24 23 22 21 20 19 17 16 15 15 14 14 14 13 12 11 10
37 34 31 30 28 26 24 22 20 20 22 23 25 26 28 29 29 29 28 28 29 29 29 28 27 26 24 23 23 22 21 19 18 17 17 16 16 15 14 12 11 10
40 36 34 34 31 28 26 26 25 23 22 23 24 26 28 29 31 31 30 29 29 30 30 30 29 27 26 25 25 24 22 21 20 19 19 18 17 16 14 13 12 11
42 39 37 35 33 31 29 30 30 29 27 24 22 25 29 30 31 33 32 31 31 31 31 31 30 29 28 27 27 25 24 22 21 21 21 20 19 17 15 14 13 12
45 43 39 35 34 34 33 32 31 30 30 31 29 27 28 29 30 33 35 35 34 33 32 32 31 30 29 28 27 26 25 23 23 23 23 21 19 17 15 14 13 13
45 45 42 37 36 37 36 35 34 33 32 34 36 36 33 30 29 32 35 38 37 36 34 33 32 31 30 28 27 26 25 25 25 25 24 22 20 17 16 15 15 14
44 44 44 42 41 40 38 36 35 36 37 37 40 42 42 40 38 38 38 38 38 38 37 36 34 33 31 29 28 27 26 26 27 26 24 23 21 18 17 16 16 16
46 44 44 45 46 44 41 38 38 40 41 42 44 45 45 45 43 40 38 36 36 37 38 38 37 34 33 31 30 28 27 28 28 27 26 25 22 19 18 17 18 18
49 47 46 47 48 47 44 41 41 43 45 45 45 46 47 45 42 39 35 33 32 33 34 35 36 35 34 33 32 30 29 29 29 28 28 26 23 20 19 20 20 20
54 51 50 49 49 48 47 45 44 45 46 47 47 48 48 47 45 41 37 34 31 30 30 31 32 33 34 34 32 31 31 31 30 29 29 27 23 21 21 22 23 22

ECMWFNIL_250_spd_078.txt.gz
Wind_Speed
14 12 11 9 7 6 5 6 7 7 6 4 3 3 4 4 4 4 4 5 6 6 7 7 8 8 9 10 11 12 13 13 13 13 12 12 11 11 11 11 11 11
15 15 14 12 11 9 8 7 7 7 7 6 4 2 2 3 3 3 3 4 5 6 7 7 8 8 9 10 12 14 15 15 14 14 13 13 12 12 12 12 12 12
16 16 16 15 14 13 11 9 9 8 8 7 6 4 2 1 2 2 2 3 4 5 6 8 8 9 9 9 11 13 15 16 16 15 14 14 13 13 13 14 13 14
17 17 18 18 17 15 13 12 11 10 9 8 7 6 3 1 0 1 2 2 2 3 5 7 8 9 9 10 11 13 14 15 16 15 15 14 14 14 14 14 14 15
18 17 17 18 18 17 15 14 13 12 10 9 8 7 6 3 1 0 1 1 2 2 4 5 7 8 9 9 10 11 13 14 14 14 14 14 14 14 14 14 14 15
18 18 18 19 20 19 18 17 15 13 12 10 9 9 7 6 4 2 1 1 2 2 3 4 5 7 8 9 9 10 11 12 13 13 13 14 14 14 13 13 14 14
19 19 19 20 21 21 21 19 18 16 15 13 11 10 9 8 6 4 3 2 2 3 3 4 5 5 6 7 8 9 11 12 13 13 13 13 13 13 13 13 13 13
19 20 20 20 22 23 23 23 21 20 18 17 15 13 11 10 9 7 6 4 4 4 4 5 5 5 5 6 7 8 10 11 12 13 12 12 12 12 12 12 12 13
19 20 19 19 21 23 24 25 24 23 22 20 19 17 15 14 12 10 9 7 6 6 6 6 6 6 6 6 6 7 9 10 12 12 12 12 12 11 12 12 12 12
19 20 20 20 22 24 25 26 26 26 25 24 23 22 20 18 15 13 11 10 9 9 9 9 8 8 7 6 6 7 8 9 10 11 11 11 11 11 11 11 12 12
21 22 23 24 24 25 26 27 28 28 28 27 26 25 24 22 20 17 15 13 13 12 12 11 11 10 9 7 7 7 8 9 10 10 11 11 11 11 11 11 11 12
21 22 24 26 26 26 26 28 28 28 29 30 30 29 28 26 25 22 20 18 17 16 15 14 14 13 11 10 9 9 9 10 10 10 11 11 12 12 11 11 11 11
22 24 26 27 28 28 27 29 29 28 29 30 31 31 31 30 28 27 25 24 22 21 19 18 17 16 15 13 12 11 11 11 11 11 11 12 12 12 12 11 11 10
23 27 28 28 29 30 29 29 29 29 29 29 30 32 32 32 31 30 29 28 27 26 24 22 21 19 18 16 15 14 13 13 13 13 13 13 13 13 13 12 11 10
23 28 29 28 29 30 30 29 29 29 28 28 29 31 32 32 32 31 31 30 29 28 27 26 24 22 21 19 18 17 16 16 15 14 14 14 14 14 13 12 11 10
27 30 31 29 29 29 29 31 31 30 29 28 29 29 31 32 32 32 31 31 30 29 29 28 27 25 23 22 21 20 19 18 17 16 16 16 16 15 14 13 11 10
33 35 35 33 33 33 33 35 34 30 28 28 27 27 28 30 31 31 30 30 30 30 30 30 29 27 25 24 23 22 21 20 19 18 18 18 17 16 15 13 11 11
35 37 38 36 34 34 37 37 34 30 28 28 28 28 29 30 30 29 28 28 29 29 30 31 30 28 26 25 25 24 23 22 21 20 20 20 19 18 16 14 12 11
40 38 38 39 37 36 38 37 34 31 30 30 31 31 31 31 30 28 27 26 27 28 29 30 30 29 27 27 26 26 25 24 23 23 22 22 22 20 18 15 13 12
47 44 41 41 40 39 40 39 35 33 33 32 34 34 34 33 31 29 28 26 25 27 28 29 30 30 28 28 27 27 26 25 25 25 25 24 23 21 19 16 14 13
52 51 49 47 44 42 41 40 38 39 39 37 37 37 37 35 33 30 29 28 25 24 26 28 30 30 30 28 28 28 28 27 27 27 26 25 24 22 20 18 16 15
52 52 53 52 50 46 42 40 41 43 43 41 40 40 39 39 37 34 33 30 27 25 25 26 28 29 30 29 28 28 28 28 28 28 27 26 24 23 21 19 17 16
52 50 52 54 55 51 45 43 44 46 44 42 42 42 42 41 41 40 38 35 32 30 28 27 26 27 28 29 29 29 29 30 30 29 28 27 25 24 22 21 19 17
53 51 52 54 57 55 50 46 46 46 45 44 45 44 44 43 42 43 42 39 37 34 31 28 26 26 26 27 27 27 29 31 32 31 30 28 26 25 23 22 21 19
55 54 53 54 57 59 56 51 49 47 46 47 47 47 46 45 43 43 43 42 40 37 34 31 29 27 27 27 26 26 28 31 32 33 32 31 29 26 24 23 22 20
56 56 55 55 58 62 61 57 54 51 48 47 47 47 47 45 43 43 44 44 42 40 39 36 32 28 26 26 25 25 27 29 32 33 34 33 31 28 25 25 24 23

ECMWFNIL_250_spd_081.txt.gz
Wind_Speed
11 11 10 7 6 5 6 7 7 6 5 5 5 5 4 4 4 4 5 6 6 7 7 8 9 10 12 14 15 15 16 16 15 15 15 15 15 15 16 16 16 16
11 11 11 10 8 6 6 7 8 7 6 6 5 5 4 4 3 3 3 4 5 5 6 7 8 10 11 12 13 14 15 15 15 15 14 14 14 14 15 15 15 16
13 12 12 12 11 9 7 8 9 8 7 6 5 5 4 4 3 2 2 2 3 4 5 6 7 8 10 11 12 13 14 14 14 14 14 14 14 14 15 15 15 15
13 13 13 13 13 12 10 10 10 9 8 7 6 5 5 4 4 3 2 1 2 2 3 4 6 7 8 9 11 12 13 14 15 15 15 15 14 15 15 14 14 15
14 14 14 14 14 14 14 12 12 11 10 8 7 6 6 6 5 4 3 2 1 0 1 2 3 4 6 7 9 10 12 13 14 15 15 15 15 15 15 15 15 15
14 14 15 15 15 15 16 15 14 13 12 10 9 8 8 7 6 5 4 3 2 2 1 0 1 2 4 5 7 9 10 12 13 14 15 15 15 15 15 15 15 15
14 14 15 15 15 16 17 17 17 16 15 14 12 11 10 9 8 7 6 5 4 3 3 2 2 2 3 4 5 7 9 10 11 12 13 14 15 15 15 15 15 16
14 15 15 15 15 16 17 18 19 19 18 17 15 14 13 12 11 9 7 6 5 5 4 4 4 4 4 4 5 6 8 9 10 11 12 13 14 14 14 15 15 15
17 17 17 16 15 16 16 17 19 20 21 20 19 18 16 15 14 12 10 8 7 6 6 6 6 6 6 6 6 7 7 9 10 10 11 12 13 14 14 14 14 15
20 19 17 15 15 16 17 17 17 19 21 22 22 21 20 19 17 15 13 12 10 9 9 8 8 9 8 8 8 8 9 9 10 11 11 12 13 13 14 14 14 14
22 18 15 14 16 20 22 21 19 18 20 22 23 24 23 22 21 19 17 15 14 13 12 11 11 11 11 11 11 11 11 11 12 12 12 12 13 13 13 13 13 13
23 20 20 21 24 29 31 28 23 20 19 20 22 24 25 25 24 22 21 20 18 17 16 15 15 15 14 14 14 14 14 14 14 14 14 13 13 13 14 13 13 13
26 23 23 26 29 32 33 31 27 23 20 20 21 24 26 27 27 26 25 24 23 22 21 20 19 18 17 16 16 16 17 17 17 16 16 15 14 14 14 14 13 12
25 25 27 29 28 30 31 31 30 26 21 21 22 23 25 26 28 29 29 28 28 26 25 25 24 22 20 19 18 18 18 19 19 18 17 16 15 15 14 14 13 12
24 26 29 29 28 29 30 32 33 29 25 24 23 23 25 26 27 29 30 31 31 30 29 28 27 25 23 22 20 20 19 20 20 19 17 17 16 15 14 14 12 11
27 26 28 29 29 29 31 33 33 29 27 28 26 25 26 26 27 28 29 30 31 31 30 30 28 27 26 25 23 22 21 21 20 19 18 18 17 15 15 14 12 11
30 29 31 32 31 31 31 33 33 31 31 31 30 30 29 28 27 27 28 29 31 31 31 30 29 29 28 28 26 25 24 23 22 20 19 18 17 16 15 14 12 10
35 34 36 35 33 32 32 33 34 35 35 35 34 34 32 30 28 27 27 28 29 30 30 30 30 29 30 30 29 28 27 25 24 22 20 19 17 16 14 13 12 11
40 40 41 38 35 33 32 34 37 38 37 37 37 35 33 31 29 27 28 28 27 28 29 29 29 29 29 30 30 29 28 27 26 24 21 20 18 16 14 13 12 11
45 45 47 44 38 34 30 29 35 41 41 39 38 37 34 33 31 29 29 29 28 27 28 29 29 28 28 29 29 28 28 27 26 25 23 21 19 17 14 13 12 12
48 48 49 46 41 38 33 29 33 40 43 42 41 39 37 35 33 31 31 31 30 28 28 28 28 27 27 27 27 27 27 27 27 25 24 22 20 18 16 14 13 12
52 52 52 48 45 44 42 39 39 42 44 45 44 41 38 37 36 34 33 33 32 32 31 29 27 25 24 23 23 25 26 27 27 25 24 23 22 20 18 16 14 13
54 56 57 57 56 54 51 49 48 45 44 45 45 42 39 38 37 36 35 35 35 36 35 32 29 26 23 22 22 23 26 28 28 26 24 23 22 21 20 18 16 15
58 59 61 62 63 61 58 55 52 49 47 46 46 44 42 41 41 39 38 38 39 39 39 37 34 30 27 28 27 26 26 27 27 25 23 22 21 21 20 20 18 17
62 64 65 65 64 64 62 60 57 55 54 52 51 50 47 45 45 44 42 42 43 44 43 40 38 37 37 36 34 30 27 26 25 24 22 20 18 18 18 19 19 18
66 68 69 70 70 69 68 67 64 62 59 57 56 56 54 51 49 48 46 45 46 47 45 41 41 42 42 41 38 34 29 26 25 26 25 22 19 17 17 19 20 19

ECMWFNIL_250_spd_084.txt.gz
Wind_Speed
9 7 6 6 6 4 5 6 5 5 4 4 3 1 0 1 2 3 4 6 7 8 9 9 11 12 13 15 16 17 17 17 16 16 15 16 16 16 16 16 16 17
10 9 8 8 8 6 5 6 7 6 6 5 4 3 2 2 2 2 3 4 5 6 6 8 9 10 12 13 15 16 17 17 16 16 16 16 17 17 17 17 17 17
11 10 9 9 9 9 8 7 8 8 7 6 5 5 4 4 4 3 3 3 3 4 5 6 8 9 10 12 13 15 16 17 16 16 17 17 17 17 17 17 17 17
12 11 10 10 10 10 11 10 10 9 8 7 6 6 5 6 6 6 5 4 4 4 5 5 6 8 9 11 12 13 15 16 17 17 17 17 17 17 17 18 18 18
15 14 11 10 11 11 11 12 12 11 10 9 8 7 7 6 6 7 7 7 7 6 6 6 6 7 8 10 11 12 14 16 17 17 18 18 18 17 18 18 18 18
16 17 14 10 11 11 11 13 14 13 13 11 10 9 8 7 7 7 7 8 8 9 8 8 8 8 8 10 11 12 13 15 16 18 18 18 18 18 18 18 18 18
16 18 16 11 10 11 11 13 15 16 15 14 13 12 10 9 8 8 7 8 9 10 10 10 10 10 10 10 11 12 13 14 16 17 18 18 19 18 18 18 18 18
14 17 17 13 12 13 12 13 15 17 17 17 16 15 14 12 10 9 8 8 8 9 10 11 11 12 12 11 12 12 13 13 15 16 17 18 19 19 19 19 18 18
15 16 17 18 17 15 14 14 14 14 16 16 17 17 17 15 13 12 10 10 9 10 10 11 11 12 12 12 13 13 13 14 14 15 17 17 18 18 18 19 18 18
19 18 19 21 20 17 16 16 14 14 15 16 17 17 18 18 17 15 13 12 11 11 12 12 12 13 13 14 14 14 15 15 15 15 16 17 17 18 18 18 18 18
22 22 23 23 22 18 16 16 17 16 18 18 18 19 19 19 19 17 16 16 15 15 15 15 15 16 16 15 15 16 16 16 16 16 16 16 17 17 17 17 17 17
25 25 24 22 23 21 18 18 20 21 21 21 21 20 20 20 20 19 18 18 18 18 18 18 18 19 18 18 18 17 18 18 18 17 16 16 16 16 17 16 16 16
28 28 25 23 24 24 22 21 22 24 25 25 25 24 21 19 20 20 20 20 19 20 20 21 21 21 21 20 20 19 19 19 19 19 18 17 16 16 16 16 15 15
30 29 28 26 26 26 26 24 24 26 27 27 28 28 25 21 19 19 20 21 21 20 21 22 22 23 22 22 21 20 20 19 19 20 19 18 17 16 15 15 15 14
31 31 31 29 28 29 28 28 28 27 27 29 29 29 29 26 23 21 21 20 20 20 21 22 22 23 23 23 22 22 21 20 19 19 19 19 18 17 16 14 14 13
33 33 33 31 30 30 30 30 30 29 29 29 30 30 30 29 27 25 24 22 20 20 20 21 22 22 23 23 22 22 22 21 20 20 19 19 18 18 16 14 13 12
36 36 35 32 30 31 32 32 33 32 29 29 30 31 30 29 29 27 26 25 23 21 21 21 21 22 22 22 22 22 22 22 21 21 20 20 19 18 17 15 13 11
43 43 43 41 38 36 35 35 34 33 30 29 31 32 31 29 29 28 27 27 26 24 23 21 21 21 22 23 23 23 23 23 23 23 22 21 19 18 17 16 13 11
48 47 47 46 46 45 43 39 37 34 31 30 31 33 32 30 30 30 29 30 29 28 26 23 21 21 22 23 23 23 23 23 23 23 23 21 20 18 17 16 14 11
50 47 45 44 44 46 47 44 41 38 35 33 34 34 33 32 32 32 33 33 32 30 28 26 24 22 22 22 23 23 23 23 23 22 22 21 19 17 16 15 14 12
52 50 49 47 45 45 47 47 45 42 39 38 38 37 35 34 33 34 36 36 35 32 30 28 26 24 23 23 23 23 22 22 21 20 20 19 18 16 15 14 14 12
55 53 52 52 50 49 49 50 48 46 44 42 41 38 36 35 34 35 38 38 37 35 32 30 28 27 26 25 24 23 21 20 19 18 18 18 18 17 16 15 15 14
59 57 54 53 53 52 52 53 52 50 48 46 43 39 37 36 35 35 37 40 40 38 35 33 31 30 30 27 25 23 22 21 19 17 17 17 18 18 18 17 17 17
61 60 57 55 55 55 55 55 55 55 53 51 48 43 41 41 37 31 31 36 41 41 39 37 34 33 32 30 27 25 24 24 22 19 16 15 15 16 17 17 17 17
64 62 61 59 58 58 57 57 57 57 57 56 54 50 48 46 39 29 27 34 40 42 42 40 38 35 33 32 31 29 28 28 27 25 21 17 16 16 18 18 17 17
67 66 64 63 62 61 60 60 59 59 58 58 57 55 53 50 41 30 29 35 41 43 44 43 41 38 35 35 35 34 33 32 32 31 29 25 23 21 22 22 21 18

ECMWFNIL_250_spd_087.txt.gz
Wind_Speed
6 4 4 5 7 8 9 10 10 10 10 10 10 10 10 10 10 11 12 11 11 12 13 13 14 15 17 18 19 21 21 21 21 21 21 20 19 19 19 18 17 17
7 4 3 4 5 7 8 10 10 10 10 10 9 9 9 9 10 10 11 12 12 12 13 13 14 14 15 17 18 20 21 22 22 22 22 21 21 20 20 19 18 17
6 4 2 2 3 4 7 9 10 11 10 9 9 8 8 8 9 9 10 10 11 12 13 13 14 14 15 16 18 19 21 22 22 23 23 23 22 21 20 20 19 18
5 3 2 2 2 3 6 8 10 11 10 10 9 8 8 7 8 8 9 9 10 10 12 13 14 14 15 16 17 18 20 22 22 23 23 23 23 23 21 20 19 19
4 3 2 3 3 3 6 8 10 11 11 10 10 10 9 8 8 8 8 8 8 9 10 11 12 14 15 16 17 18 19 21 22 23 23 23 23 23 22 21 20 19
9 5 3 4 5 5 8 11 11 12 13 12 11 11 11 10 10 10 9 8 8 9 10 10 11 13 14 16 17 18 19 20 22 23 24 24 24 23 23 22 21 20
12 9 7 6 6 6 9 11 12 13 14 13 13 13 13 13 13 13 13 12 10 10 11 11 12 12 14 15 16 18 19 20 21 22 23 24 24 24 24 23 22 21
13 12 11 10 7 6 7 8 10 12 13 13 14 14 14 15 15 15 15 16 14 13 13 13 13 13 14 14 16 17 18 20 21 22 23 23 24 24 24 24 23 22
15 14 13 13 11 9 8 7 8 10 11 12 14 15 16 15 15 15 15 17 17 16 16 15 15 15 14 14 15 16 17 18 19 20 21 22 22 23 23 24 23 23
18 16 14 15 16 13 11 9 9 9 10 12 15 17 17 16 16 16 16 16 17 17 17 17 16 16 16 16 15 15 16 17 18 19 19 20 20 20 21 22 22 22
19 17 16 17 17 16 14 13 12 12 12 13 15 17 18 17 17 17 16 16 16 17 17 18 18 17 17 17 17 17 17 17 17 18 18 18 18 18 18 18 19 20
21 19 18 18 18 17 16 15 15 15 15 15 15 17 18 18 18 18 17 16 16 16 16 17 18 18 18 18 18 18 18 18 18 17 17 17 17 16 16 16 16 17
24 21 20 19 19 19 17 16 17 18 17 16 16 17 18 19 19 19 19 18 16 16 16 17 17 18 19 19 19 19 19 19 19 18 18 17 17 16 15 14 14 14
27 24 22 20 20 21 21 20 21 21 20 19 19 18 18 18 19 19 20 20 19 17 17 16 16 17 19 19 19 20 20 20 20 19 18 17 16 16 15 14 13 12
29 28 25 22 22 23 24 24 24 24 23 21 22 21 20 20 20 19 19 20 21 21 19 17 15 15 17 19 19 20 20 21 20 20 19 19 18 17 16 15 13 11
29 31 31 28 26 27 27 27 27 26 24 22 22 23 23 22 22 19 18 18 20 22 22 19 17 16 16 17 18 19 20 20 20 20 19 19 19 18 17 16 15 13
27 30 34 34 31 30 28 27 27 27 25 23 23 24 25 25 24 21 18 18 19 20 22 21 19 18 18 17 18 18 20 19 19 19 19 19 18 18 18 17 16 15
31 31 35 35 34 32 30 29 28 28 26 24 24 24 25 27 27 24 20 19 20 21 21 21 20 20 20 20 19 19 20 20 19 18 18 18 18 18 18 17 16 16
33 33 35 36 36 35 33 33 33 32 30 29 29 29 29 30 30 28 25 23 22 23 23 23 22 22 22 22 21 20 20 21 20 18 18 18 18 18 18 17 16 15
38 39 41 42 42 40 37 37 38 39 37 34 33 34 34 33 33 32 30 27 26 26 26 25 25 24 23 23 22 21 21 21 21 20 18 17 17 18 17 17 16 15
58 57 57 55 53 52 50 48 46 45 42 36 32 31 32 33 35 36 35 33 31 29 29 28 27 26 25 24 24 23 23 22 22 21 19 17 16 16 17 17 17 16
69 69 67 65 62 61 61 58 53 50 47 39 30 25 27 31 34 35 37 37 35 34 32 31 30 29 28 27 26 25 25 24 23 22 20 18 16 15 16 17 17 17
70 71 70 68 65 63 61 58 53 49 47 43 36 30 31 35 35 32 32 34 36 36 35 34 33 32 31 31 31 29 27 26 26 24 22 20 17 15 15 16 17 18
71 71 70 69 67 64 62 58 54 50 47 46 44 41 38 40 41 36 31 29 31 34 36 37 37 35 33 32 32 32 31 29 28 28 25 22 19 17 16 16 16 17
73 72 72 70 69 67 64 62 60 57 52 49 49 48 45 46 47 46 42 39 37 38 38 39 39 36 32 29 29 31 32 31 30 30 29 25 22 20 19 18 17 17
75 74 73 72 70 69 67 66 65 63 60 57 55 54 52 52 52 53 53 51 50 48 45 43 41 38 34 30 30 30 31 32 33 33 32 29 26 25 24 23 21 20

ECMWFNIL_250_spd_090.txt.gz
Wind_Speed
8 7 6 6 7 8 9 10 10 11 11 12 12 12 13 13 15 15 16 16 17 17 18 19 19 21 23 24 26 27 28 29 28 27 25 23 22 21 19 18 17 16
7 7 6 5 6 8 9 10 10 11 11 12 12 12 12 13 14 15 16 17 17 18 19 20 20 21 22 23 25 26 27 28 29 29 28 27 25 24 22 21 19 18
7 7 7 7 7 10 12 11 11 12 12 13 13 13 13 13 14 14 15 16 18 18 19 20 21 21 22 22 23 25 26 27 27 28 29 29 29 27 25 24 22 20
7 8 9 9 9 11 13 12 11 11 12 13 13 14 14 14 14 14 14 16 17 18 19 20 21 22 22 22 23 23 24 25 26 26 27 28 29 29 28 26 24 22
7 7 8 9 9 10 12 11 10 10 10 12 13 13 13 14 14 14 14 15 15 16 18 18 19 20 21 22 22 23 23 24 24 25 25 26 27 28 28 28 27 25
6 6 5 6 7 9 11 11 10 9 9 10 12 13 13 13 13 14 14 14 14 15 16 17 18 19 19 20 21 21 22 22 23 23 23 23 24 25 26 26 26 25
6 7 8 9 6 5 9 11 9 9 8 8 11 13 12 12 12 13 13 13 13 14 15 16 17 18 18 19 19 20 20 21 21 21 21 21 22 22 23 23 24 24
8 8 9 12 11 6 7 11 10 8 7 7 10 12 12 12 12 12 12 12 13 13 13 14 16 17 18 18 18 19 19 19 20 20 20 20 20 20 20 21 21 21
11 11 10 10 11 9 7 10 11 9 7 7 10 12 12 12 12 12 12 11 11 12 13 13 14 15 16 17 18 18 19 18 18 19 19 19 19 18 18 19 19 19
12 13 12 11 10 9 8 10 12 12 10 8 9 10 11 10 11 12 13 12 11 11 11 12 12 13 14 15 16 18 18 18 18 17 18 18 18 17 17 17 17 17
14 15 15 13 12 11 11 11 11 12 13 12 9 9 10 10 10 11 12 13 12 10 10 10 11 12 13 14 14 16 17 18 18 17 17 17 17 17 17 17 16 16
17 18 19 18 15 14 14 14 13 12 12 13 11 10 10 10 10 10 11 12 13 12 10 10 10 11 12 13 14 14 15 16 17 18 18 17 17 17 17 17 17 16
22 22 23 23 21 18 17 17 17 15 12 12 12 12 11 11 10 10 11 11 12 12 12 11 11 11 12 13 14 14 14 15 15 16 17 17 16 16 16 16 16 16
27 27 27 26 23 21 19 18 18 17 15 14 14 14 14 13 12 12 12 12 12 11 11 11 11 11 12 13 14 15 15 15 14 14 15 16 16 15 15 14 14 14
29 30 29 25 23 21 19 18 18 18 17 16 16 17 16 15 14 14 14 14 13 12 11 11 11 11 12 13 13 14 15 16 15 14 14 14 14 14 13 13 12 12
30 31 30 27 25 23 21 20 20 19 19 18 18 18 18 17 15 15 15 15 15 14 12 12 12 12 12 12 13 14 14 15 15 14 14 14 13 13 12 12 12 11
32 33 33 30 27 25 23 23 22 21 20 21 21 20 19 18 17 16 16 16 17 16 15 14 13 14 14 14 14 14 15 15 15 15 14 14 13 13 12 12 11 11
35 34 33 31 30 28 28 27 25 22 22 23 23 21 20 18 17 16 16 17 18 19 19 18 17 16 17 17 16 16 16 16 16 16 15 14 14 13 13 12 11 11
37 35 35 34 33 32 32 30 28 27 28 28 26 23 21 20 19 18 19 20 22 23 23 22 20 19 19 19 19 19 18 17 17 17 17 17 15 14 13 12 11 11
39 38 40 39 37 37 36 32 30 30 32 33 31 27 24 22 22 22 23 23 25 26 27 26 24 23 22 22 22 22 21 20 18 19 19 19 18 16 14 13 12 11
45 44 44 43 39 40 41 37 32 30 31 33 34 32 29 26 25 26 27 28 29 29 28 27 27 25 25 25 25 24 23 22 21 20 20 20 20 20 18 15 13 12
50 48 47 45 42 40 40 39 36 34 35 36 36 35 33 32 34 36 37 37 37 34 30 27 26 26 26 28 29 28 26 25 24 23 22 22 22 22 21 19 16 14
53 51 50 49 47 44 40 39 40 41 43 43 41 39 39 41 44 45 43 42 41 38 33 29 26 25 25 28 30 31 29 28 27 27 25 25 26 25 24 22 19 17
63 61 59 56 55 53 49 46 47 47 48 48 47 47 49 52 54 50 46 43 40 38 35 33 31 28 25 26 28 31 31 30 30 30 29 28 28 27 26 24 22 21
71 69 69 67 65 64 62 59 56 54 53 53 56 59 59 60 59 55 49 44 41 40 39 38 37 33 28 27 30 31 31 31 31 32 30 28 26 26 27 27 26 24
75 73 74 74 74 74 73 71 68 67 67 67 67 67 65 64 63 59 53 48 46 45 43 41 40 38 33 32 34 34 33 31 30 31 30 28 27 26 27 28 29 29

ECMWFNIL_250_spd_093.txt.gz
Wind_Speed
12 14 14 15 15 14 13 13 12 13 14 14 14 14 15 17 18 20 22 23 23 23 24 25 25 26 26 27 28 28 29 29 29 28 27 25 24 24 23 23 22 22
11 13 13 14 15 15 14 13 13 13 13 13 13 13 13 14 16 17 18 20 22 22 23 24 25 25 25 25 25 26 26 27 28 28 28 27 26 25 24 23 22 22
7 10 10 12 14 15 15 14 14 13 12 12 12 12 12 13 14 14 15 17 18 20 21 22 24 24 24 24 23 23 24 24 25 26 26 26 26 25 24 23 22 22
4 6 7 9 12 13 14 14 14 13 12 12 11 11 12 12 12 12 12 13 15 16 18 19 21 22 23 23 23 22 22 22 23 24 24 24 25 25 24 23 22 22
2 2 1 5 10 13 13 13 13 13 13 13 12 11 10 11 11 11 11 11 12 13 14 15 17 19 20 21 21 21 21 21 21 22 22 22 23 23 23 23 22 22
2 5 6 2 5 9 12 12 11 12 13 14 13 12 10 10 10 10 10 9 10 10 11 12 13 15 17 18 19 20 20 20 20 20 20 21 21 22 22 22 22 22
1 2 4 4 3 2 6 9 9 8 10 12 12 11 11 10 9 9 9 9 9 8 8 9 10 11 13 14 16 17 18 18 19 19 19 19 20 20 21 21 21 22
4 4 4 4 4 4 1 4 5 3 5 8 10 10 9 9 9 9 9 8 8 8 7 8 8 9 10 11 13 14 15 16 17 18 18 18 19 19 19 20 21 21
7 6 5 7 7 6 5 2 1 1 1 5 7 8 7 7 8 8 9 8 8 7 7 7 8 8 9 10 11 12 13 14 15 16 17 18 18 19 19 20 20 21
9 8 5 7 10 9 8 7 6 4 3 2 4 5 5 5 6 6 7 7 8 7 7 7 7 8 9 10 11 11 12 13 13 14 16 16 17 18 19 19 19 20
12 10 8 8 11 11 10 9 8 8 8 7 5 4 4 5 5 5 6 6 6 7 7 7 7 7 8 9 10 11 12 12 12 13 13 14 15 16 17 17 18 18
17 15 13 12 13 13 13 12 12 12 12 12 11 8 6 7 7 6 6 6 5 5 5 6 7 7 7 7 8 9 10 11 11 11 11 12 12 13 14 14 15 16
20 20 18 17 16 16 17 17 16 16 15 15 13 11 10 10 9 8 7 6 5 5 5 4 5 6 6 6 7 7 8 9 9 10 10 10 10 10 11 11 12 13
22 23 23 22 20 20 20 20 20 19 19 17 15 15 14 13 12 11 10 9 7 6 5 5 5 5 5 5 5 6 6 7 8 8 9 9 8 8 9 9 9 10
24 26 26 24 23 22 21 21 21 21 21 19 17 17 18 17 15 14 13 12 10 8 6 6 7 7 8 8 7 7 6 7 7 8 8 9 9 9 9 9 9 9
27 28 28 27 26 25 23 23 22 21 22 21 19 19 20 19 18 17 16 15 13 10 8 7 8 9 11 12 12 12 11 9 9 9 9 9 10 10 10 11 11 10
29 31 32 31 29 27 27 28 25 23 23 23 23 22 21 21 20 19 18 17 15 13 10 8 8 10 12 14 14 15 15 13 12 11 10 9 9 9 10 11 12 12
32 32 34 34 31 30 30 31 28 26 26 26 26 24 23 24 24 22 21 20 18 15 13 11 10 10 11 13 15 15 15 15 14 13 12 11 10 9 9 10 10 11
36 35 35 34 32 31 33 34 32 30 29 29 29 27 25 25 26 26 24 23 21 18 15 13 11 11 11 13 14 15 15 15 14 15 15 14 13 12 11 10 10 10
39 39 40 39 35 32 34 36 36 33 31 30 31 31 28 27 28 27 26 25 24 22 19 16 14 13 13 15 16 16 15 15 16 17 18 17 16 15 14 13 12 11
43 43 45 46 44 39 38 39 40 37 35 34 35 35 33 31 31 31 30 29 28 26 23 20 18 17 19 21 21 20 20 20 20 22 21 19 18 17 16 16 16 15
46 47 47 49 51 50 47 46 46 44 41 39 38 37 37 37 36 36 35 33 31 29 27 24 22 21 24 26 25 25 25 25 25 24 22 20 20 20 18 17 18 18
49 51 51 51 52 52 50 51 54 52 48 46 43 39 39 41 41 40 39 37 35 33 31 28 26 26 28 29 29 28 28 28 27 26 24 23 23 22 20 19 20 20
51 54 54 54 54 53 51 53 56 55 52 51 49 46 43 44 44 44 45 43 41 39 37 35 32 31 32 34 35 33 30 30 29 29 28 28 26 24 23 22 21 21
54 56 57 57 56 57 58 58 58 56 54 54 53 50 48 47 46 47 49 49 47 44 43 42 38 36 36 38 39 35 32 32 33 32 32 30 27 26 25 25 24 23
58 58 59 59 58 58 60 60 59 57 56 55 54 52 51 49 48 49 50 51 50 48 48 48 44 41 40 41 41 39 36 37 38 37 36 34 31 30 30 30 29 27

ECMWFNIL_250_spd_096.txt.gz
Wind_Speed
12 12 13 14 14 13 13 13 13 13 14 15 15 16 17 18 18 19 18 19 19 19 19 20 20 21 22 23 24 24 25 25 25 26 26 26 26 25 25 25 25 25
11 12 13 14 14 14 13 12 12 12 11 12 13 14 14 15 16 17 17 17 18 18 19 19 19 20 20 20 22 23 24 25 25 26 26 26 26 26 26 26 26 26
8 9 10 13 14 15 14 13 12 12 11 11 11 11 12 13 13 14 15 15 16 17 17 18 18 18 19 19 20 21 22 23 24 25 26 26 27 27 27 27 27 27
6 6 7 10 12 14 15 15 13 12 12 11 10 10 10 10 11 12 12 12 13 14 15 16 17 17 18 19 19 19 20 21 23 24 25 25 26 26 26 27 27 27
4 2 3 6 9 11 13 14 13 12 12 12 11 10 9 9 9 10 10 10 10 11 11 12 14 15 16 17 18 18 19 20 21 23 24 24 25 25 26 26 26 26
3 1 1 4 6 8 11 11 11 10 10 10 11 11 10 10 9 8 8 9 9 8 9 9 10 11 13 14 15 16 17 18 19 21 22 23 24 24 25 25 25 25
4 5 3 5 4 4 6 8 9 8 7 8 9 9 9 9 9 9 8 8 8 8 8 7 8 9 10 11 12 14 15 15 17 18 20 21 22 23 23 23 23 23
6 7 7 6 4 1 2 3 5 6 6 7 8 8 7 7 8 8 8 7 7 7 7 7 7 7 8 9 10 11 13 13 14 15 16 18 19 20 21 21 21 21
9 10 10 10 8 4 3 3 2 2 3 4 6 6 6 5 6 7 7 7 6 6 6 6 6 6 6 7 7 9 10 11 12 12 13 15 16 17 18 19 19 19
14 13 12 12 12 9 6 7 7 6 5 3 3 3 4 5 5 5 6 6 5 5 5 5 6 6 6 6 6 6 7 8 9 10 11 12 12 13 15 16 16 17
19 16 15 15 14 11 10 10 10 10 10 8 5 3 2 3 4 5 5 5 5 4 4 5 5 6 6 6 6 6 6 6 7 8 9 10 10 11 12 14 15 16
23 20 18 17 16 15 14 13 12 10 10 9 9 9 8 6 6 7 6 6 5 5 4 4 4 5 6 6 7 7 7 7 7 8 8 9 10 11 11 12 14 15
26 25 23 20 19 18 18 17 15 13 12 11 11 13 12 11 11 10 9 8 7 7 6 6 5 5 6 7 8 8 8 9 9 10 10 10 11 12 12 13 13 15
29 27 26 25 22 21 20 19 18 17 15 14 14 15 15 15 14 13 12 11 10 9 8 7 7 6 6 7 8 8 8 9 10 10 10 10 11 12 13 13 14 14
32 29 28 27 25 23 22 22 20 19 17 16 17 17 17 16 16 15 13 12 12 12 10 9 8 7 6 5 6 7 7 8 9 10 10 11 12 13 13 14 14 14
35 33 31 29 27 25 24 23 23 22 20 18 18 19 19 18 18 17 15 14 14 14 13 11 10 8 7 6 5 5 5 7 8 9 10 11 12 14 14 14 14 15
37 36 35 33 31 28 26 25 25 26 25 22 20 20 21 21 20 19 17 16 16 16 15 14 13 10 8 7 5 3 2 3 5 7 8 11 12 14 14 15 14 14
38 38 38 37 34 31 29 27 27 28 28 27 24 23 24 24 24 22 20 19 18 18 18 17 16 14 11 8 6 3 1 1 3 5 7 10 12 13 13 14 14 14
41 40 40 38 35 32 30 30 30 31 31 31 29 27 27 28 27 25 23 22 20 20 20 20 19 18 16 12 8 4 2 1 3 5 7 10 12 12 12 13 14 15
43 43 43 41 38 35 33 33 32 32 32 33 33 30 29 29 29 28 26 25 23 23 24 24 23 22 20 18 15 10 6 5 6 7 9 10 11 11 11 11 13 15
43 44 45 45 43 40 38 37 34 32 32 33 33 32 31 32 31 30 29 27 26 27 28 28 26 25 25 24 22 19 14 10 9 9 10 11 11 11 11 11 12 14
49 49 49 48 47 46 44 43 40 36 35 34 34 35 36 37 37 34 32 30 29 30 31 31 30 30 29 28 27 26 22 17 14 12 12 12 12 12 12 13 14 14
53 52 51 50 50 49 48 47 45 43 39 38 38 38 38 39 40 39 36 33 33 33 34 34 34 34 33 31 31 31 29 26 22 18 16 15 15 14 14 16 18 18
55 54 53 52 51 51 51 50 49 48 44 43 44 44 43 42 42 40 38 36 37 38 39 40 39 38 36 35 34 35 35 33 30 27 24 21 18 17 17 20 21 21
61 59 56 54 51 52 52 52 52 51 49 50 50 50 50 50 49 47 45 43 43 43 43 43 43 41 40 39 38 38 39 39 37 34 31 27 22 20 20 22 24 23
68 64 62 58 55 53 53 54 54 52 53 55 55 54 54 53 54 57 57 54 50 47 47 47 46 45 44 44 43 43 43 43 42 39 37 35 29 26 25 27 29 30

ECMWFNIL_250_spd_099.txt.gz
Wind_Speed
7 8 10 11 12 13 13 13 13 13 13 13 13 14 15 16 17 17 18 19 19 20 22 23 24 25 26 28 28 29 29 28 27 27 27 27 27 26 27 26 27 26
5 6 7 9 10 12 13 12 12 12 12 11 11 11 12 13 15 16 16 17 18 19 20 21 22 24 24 25 26 27 27 27 27 27 27 27 27 27 27 26 26 26
4 4 5 6 8 10 12 12 11 11 11 10 10 10 10 10 11 13 14 15 16 17 18 19 20 21 22 23 24 25 25 25 25 26 26 26 27 27 27 26 26 25
3 3 3 4 6 8 10 11 12 11 11 10 10 9 9 9 9 10 12 13 15 16 17 18 18 19 19 20 21 22 23 24 24 24 24 24 25 26 26 26 25 25
3 1 1 2 4 5 7 8 10 10 11 11 11 10 9 9 9 9 9 11 13 14 15 16 17 17 17 17 19 19 19 20 21 22 22 22 23 23 24 25 25 25
3 1 1 3 4 3 3 5 7 8 9 10 11 11 10 9 9 8 9 10 11 13 14 14 15 15 15 16 17 17 17 17 18 19 19 20 21 22 22 23 24 25
3 3 3 4 6 5 4 3 3 5 6 8 10 11 11 10 10 9 9 9 10 11 12 13 14 14 15 15 15 16 16 15 16 17 17 19 20 20 21 22 23 25
6 6 6 6 7 4 3 4 2 2 2 3 7 9 9 9 10 10 9 9 10 10 10 11 13 14 14 14 15 15 15 15 16 16 17 18 19 20 21 21 22 24
10 9 9 9 9 5 2 4 4 2 1 1 3 6 7 8 8 9 9 10 10 10 10 10 11 12 14 14 14 15 16 16 17 17 18 18 19 20 21 22 22 23
14 13 13 13 13 11 8 7 6 5 6 5 1 3 6 8 8 8 8 9 9 10 10 10 10 11 12 14 14 15 16 17 17 18 18 18 18 19 20 21 22 22
20 18 17 17 16 15 13 11 9 9 10 9 6 2 4 7 9 9 9 9 9 9 9 9 9 10 11 12 13 14 14 15 16 17 19 19 19 19 19 20 21 21
24 22 21 21 20 18 16 15 14 12 11 11 10 7 5 7 8 10 10 10 9 9 9 9 8 8 9 10 11 12 12 13 14 16 18 20 20 21 21 21 21 21
26 25 24 23 23 22 20 18 17 15 13 12 11 11 10 9 9 10 11 11 10 9 9 10 10 8 7 7 8 9 10 10 12 14 17 19 20 21 21 21 22 22
29 27 27 26 26 25 23 21 20 19 16 15 14 14 13 12 11 11 11 11 11 10 10 10 11 10 8 6 6 6 7 8 10 12 15 17 18 19 20 20 21 21
31 30 28 29 29 28 26 24 23 21 19 19 18 17 14 14 14 13 13 12 12 11 11 11 11 12 10 7 5 4 5 5 7 10 13 15 16 17 18 18 19 20
35 33 31 30 30 30 30 28 27 24 22 22 21 20 18 16 15 15 15 14 14 13 12 12 12 12 12 10 7 4 2 3 6 8 11 14 15 15 16 17 18 18
38 36 34 33 32 32 32 31 29 28 27 25 23 22 22 21 19 18 18 17 17 16 15 14 14 14 13 12 9 6 4 1 4 7 9 11 12 13 13 15 16 17
43 40 38 36 35 34 33 33 31 31 30 27 25 23 22 23 22 22 21 20 20 20 18 17 17 15 14 13 11 8 6 3 1 4 6 7 9 10 10 11 13 15
46 44 42 40 38 37 36 35 35 34 33 30 28 26 24 24 24 24 24 23 24 24 23 22 19 17 17 16 13 11 9 6 3 2 3 5 6 7 7 7 9 11
47 46 45 43 42 41 40 39 38 38 37 35 33 30 28 26 26 27 27 27 28 28 28 27 22 20 20 19 16 14 13 11 8 6 5 6 5 5 5 5 6 8
49 48 48 47 45 44 43 41 41 41 40 40 38 35 31 29 29 29 29 30 32 32 32 31 26 24 24 23 20 18 17 17 16 13 11 11 9 8 7 7 7 8
51 49 50 51 50 49 47 43 42 42 42 42 40 37 33 31 31 31 31 32 33 33 34 34 30 28 28 26 24 22 21 22 22 21 20 18 15 13 13 12 12 12
53 51 52 52 52 52 51 47 44 42 42 42 42 40 36 34 35 34 32 33 34 34 35 35 32 30 30 29 28 27 26 26 25 25 25 24 21 20 18 17 18 18
56 56 55 53 53 53 53 51 49 46 44 43 43 42 40 39 39 38 35 35 37 38 39 38 36 34 33 32 31 31 30 30 29 28 28 27 25 25 23 22 24 24
61 60 57 54 53 53 52 52 52 51 49 46 43 42 42 42 43 44 44 42 41 41 43 44 42 40 39 38 36 35 34 34 34 32 30 30 29 27 27 27 29 29
67 64 61 58 56 53 51 51 52 51 51 50 47 46 47 48 48 49 51 50 47 44 45 46 44 42 42 41 40 39 38 38 38 37 34 32 31 30 32 35 36 35

ECMWFNIL_250_spd_102.txt.gz
Wind_Speed
5 6 6 6 9 13 15 17 19 20 19 19 19 19 21 22 24 24 23 23 23 23 23 23 23 23 24 25 24 24 23 22 21 19 18 17 17 16 16 16 16 17
4 5 6 6 8 11 14 15 17 19 19 20 20 19 20 21 22 23 23 23 23 23 23 22 21 21 22 24 24 24 24 23 22 21 19 18 18 18 17 17 17 16
3 4 5 6 7 8 11 13 15 17 19 20 20 20 20 21 21 21 22 23 23 23 23 23 21 20 20 21 22 23 23 24 23 22 21 19 18 17 17 17 17 15
0 2 2 3 6 7 8 10 12 15 18 19 19 19 20 21 21 21 21 21 22 22 23 23 22 22 21 21 21 21 23 24 24 23 22 21 19 18 17 17 16 14
4 2 1 1 2 5 6 7 9 12 15 17 18 18 18 19 20 21 21 21 20 20 21 22 22 22 22 22 21 21 22 22 23 24 23 22 21 20 19 17 17 16
4 1 2 2 2 3 4 5 6 8 11 14 16 17 17 17 18 19 20 21 21 20 20 21 21 20 20 21 21 21 21 21 21 22 23 23 23 22 21 19 18 18
3 1 1 2 3 3 4 4 4 5 8 10 12 15 16 16 16 17 18 19 20 20 20 19 20 19 18 18 19 19 19 19 19 20 20 22 23 22 21 21 20 19
4 2 3 3 3 3 3 4 4 2 4 6 8 11 13 14 14 15 15 16 17 18 19 18 18 18 17 17 17 17 18 18 18 18 19 20 21 21 21 21 20 20
9 7 5 5 5 5 4 5 5 3 1 2 3 6 8 11 12 12 13 13 13 14 16 16 16 16 16 16 16 16 16 17 17 18 18 19 19 20 20 20 20 20
14 12 10 9 9 9 9 10 9 7 5 4 3 2 4 7 9 10 11 11 11 11 12 13 14 14 14 14 14 15 15 16 17 17 17 18 18 19 19 19 19 19
19 17 16 14 13 13 13 13 13 11 10 10 9 7 4 5 8 8 9 10 10 9 9 9 10 11 11 11 12 13 14 15 16 16 16 17 18 18 18 18 18 17
24 21 20 19 19 18 17 16 15 15 14 13 12 10 8 6 7 8 8 8 8 9 8 8 8 8 9 9 9 10 11 13 14 15 16 17 18 18 19 19 18 17
28 26 24 22 22 21 20 19 18 17 16 14 13 12 11 9 9 9 9 7 7 7 8 8 7 7 7 7 7 7 8 10 11 13 15 16 16 18 18 19 19 18
32 30 28 26 25 24 23 22 21 20 19 18 16 14 14 13 12 12 12 10 8 7 7 7 8 7 7 6 5 4 4 7 9 11 13 14 15 16 17 18 18 18
34 34 32 29 27 26 25 24 23 23 22 21 20 19 18 17 15 15 15 14 11 9 8 8 9 9 8 7 6 4 3 3 6 9 10 11 12 14 16 16 16 16
38 37 36 34 31 29 27 26 25 25 25 24 23 22 22 21 19 18 18 17 15 13 12 10 10 10 9 9 8 6 5 2 2 5 7 8 9 11 13 14 15 15
42 41 40 37 34 31 30 30 28 27 26 26 26 26 26 25 23 22 21 19 17 16 15 14 14 12 11 11 11 10 8 7 5 1 3 4 5 6 8 9 11 11
46 46 43 40 38 36 34 33 32 31 29 28 29 30 30 30 28 26 24 21 19 19 18 19 18 15 13 14 14 13 12 10 9 7 3 1 1 2 3 3 4 6
50 48 45 43 42 40 39 38 36 35 33 32 32 33 33 33 32 30 26 23 22 21 21 23 21 18 17 17 16 16 15 14 13 11 10 7 6 5 4 4 4 6
51 49 47 46 46 45 44 43 40 39 38 36 36 36 36 35 34 32 29 26 25 24 24 25 24 22 21 22 21 19 18 18 17 16 15 13 12 12 12 12 13 15
52 49 48 48 47 46 46 45 43 42 41 41 41 40 39 39 37 36 34 31 30 29 27 27 27 26 25 25 25 23 21 21 21 20 19 17 17 17 18 18 19 20
55 51 50 49 46 45 46 45 43 41 41 42 43 43 42 42 41 40 39 37 35 34 32 31 30 29 28 28 29 28 26 25 24 24 23 22 21 23 22 21 21 22
59 55 54 53 50 48 48 47 47 46 45 46 47 46 45 44 42 41 41 40 39 38 37 35 33 33 33 32 31 31 30 29 27 27 27 26 26 27 26 24 23 24
62 59 57 56 55 53 52 52 52 51 51 50 49 47 46 45 43 42 42 41 41 40 40 38 36 35 35 34 33 32 32 32 31 30 29 30 30 31 30 28 26 25
64 62 60 58 57 56 56 56 56 53 50 49 47 46 44 44 44 44 44 43 42 42 42 40 38 37 36 35 34 34 33 33 33 33 32 32 33 34 34 33 30 28
67 66 64 61 58 57 57 58 58 57 54 53 52 49 47 45 45 47 47 46 44 44 44 44 43 42 40 37 35 35 36 36 36 36 35 34 35 37 38 37 34 32

ECMWFNIL_250_spd_105.txt.gz
Wind_Speed
7 9 11 12 13 14 14 15 18 20 21 21 21 22 22 22 23 24 24 24 24 24 24 24 24 25 24 23 23 23 23 23 21 20 18 16 15 14 14 15 16 15
6 8 9 11 12 12 13 13 15 18 20 21 21 21 21 21 21 22 23 23 24 24 24 24 24 24 24 24 24 24 23 23 22 20 18 17 16 15 15 16 17 17
4 6 7 8 9 10 11 12 13 16 19 21 21 21 21 20 20 21 22 22 22 22 23 23 23 23 23 23 24 24 24 23 22 20 19 17 16 15 15 15 17 18
2 4 4 4 6 8 9 10 11 14 17 20 21 21 21 20 20 21 22 22 22 21 21 21 21 22 22 22 22 22 23 23 22 20 19 18 17 17 17 17 17 19
3 3 2 0 3 6 7 8 8 11 15 18 19 19 19 19 19 19 20 21 21 21 21 20 20 19 20 20 20 20 21 21 21 20 19 18 17 17 17 18 18 18
2 1 1 1 0 3 5 5 5 8 12 15 16 17 17 18 18 18 19 19 20 20 20 20 19 19 18 18 19 18 18 18 18 18 17 17 16 17 17 17 16 16
4 0 1 1 1 2 3 3 3 4 8 11 13 14 15 16 16 17 17 17 17 18 19 19 19 18 18 18 17 17 16 16 16 16 16 15 15 15 16 16 17 17
8 5 2 2 2 1 1 3 3 3 4 6 9 11 12 13 15 15 15 15 15 15 16 17 17 17 17 16 16 16 15 15 14 14 14 14 14 14 14 15 16 17
13 11 8 6 4 4 4 5 4 4 3 2 4 7 9 11 12 13 13 13 13 13 14 15 15 15 15 15 14 14 15 14 14 14 13 13 13 13 13 13 14 16
17 16 14 12 10 8 8 7 7 8 7 5 5 5 6 8 9 11 12 12 11 11 12 13 13 14 14 13 13 13 13 14 14 14 13 13 13 13 13 13 13 14
21 20 18 16 15 14 12 11 11 10 10 9 9 8 6 5 7 9 11 11 10 9 9 10 11 12 12 12 12 11 12 13 13 13 14 14 13 13 13 12 12 12
25 23 21 20 19 18 17 16 15 14 13 13 13 12 10 7 6 7 10 10 10 9 8 8 7 8 9 9 10 10 10 10 11 13 13 13 14 13 13 12 11 11
25 26 25 24 23 22 21 20 19 18 17 16 15 15 14 11 10 9 10 10 10 10 8 8 6 5 5 6 7 8 8 8 8 11 12 13 14 13 13 12 12 11
26 27 28 27 26 26 25 24 23 21 20 19 18 17 17 16 14 13 13 12 12 11 11 10 8 6 4 3 3 4 5 6 5 6 9 11 12 12 13 11 8 9
31 30 30 30 29 29 28 27 25 24 23 21 20 19 19 19 19 18 16 15 14 13 13 12 11 9 7 5 4 3 3 3 3 3 4 7 8 9 9 6 2 6
36 36 35 34 33 33 32 31 29 28 26 23 22 22 22 21 21 21 20 18 17 16 16 15 14 13 12 10 8 7 5 4 3 2 0 2 3 4 5 5 5 9
38 38 37 36 35 34 33 33 32 31 30 27 25 24 24 23 23 23 23 22 21 20 18 17 17 17 16 14 13 12 10 9 9 7 6 4 5 5 3 4 5 7
40 41 40 37 36 34 34 34 33 32 32 31 29 27 26 26 25 25 26 25 25 24 23 21 19 20 19 17 16 16 16 14 13 12 11 10 10 7 3 3 4 2
41 42 42 40 38 37 37 37 36 36 36 34 33 31 30 29 28 28 28 28 28 28 28 25 23 22 22 21 20 20 20 19 18 17 16 15 14 12 8 7 7 5
46 45 44 43 41 40 41 41 41 40 38 36 35 35 34 33 32 31 31 31 31 31 31 30 28 26 25 24 24 24 24 24 23 21 20 20 19 18 16 14 12 10
52 51 51 51 49 48 47 47 45 43 41 39 38 39 38 37 36 35 34 34 34 34 33 33 32 31 30 29 28 28 27 27 27 26 25 24 24 23 21 19 17 15
58 58 57 56 56 54 53 53 52 50 49 46 44 43 42 40 39 37 36 36 37 36 37 37 36 36 37 36 34 32 31 30 31 30 29 28 28 27 26 24 22 20
65 64 62 61 60 59 58 57 57 56 54 51 48 46 44 41 39 37 35 34 35 37 39 40 39 39 41 41 40 38 37 35 35 34 33 32 31 31 30 28 27 25
69 68 66 64 63 63 62 62 61 59 56 53 51 49 47 45 42 40 36 33 36 40 42 42 41 41 42 42 43 43 41 40 39 38 36 34 34 34 34 33 31 30
72 72 70 68 67 66 66 65 64 62 59 57 54 53 51 49 47 44 40 36 39 43 45 44 44 44 43 42 42 44 45 43 43 43 40 36 35 36 38 37 35 34
76 74 73 72 71 70 69 68 67 66 63 60 58 57 55 54 52 50 47 43 43 45 46 45 44 45 45 44 44 46 47 46 45 46 44 40 37 38 39 40 39 37

ECMWFNIL_250_spd_108.txt.gz
Wind_Speed
13 15 16 16 17 18 20 21 22 23 23 24 24 24 24 25 26 27 28 28 29 29 29 28 28 28 28 27 26 25 23 21 20 19 19 20 21 22 23 24 24 25
10 11 13 15 16 17 18 20 21 22 23 23 24 24 24 24 25 25 26 26 27 27 27 27 27 26 26 26 25 24 23 22 20 19 19 19 21 22 23 24 25 26
5 7 9 11 13 14 16 18 20 21 22 22 23 24 24 24 24 24 25 25 25 25 25 25 25 24 24 24 24 23 23 22 21 20 20 20 21 22 22 23 24 25
4 4 5 7 9 11 13 16 18 19 20 21 22 22 23 23 24 24 24 24 25 24 24 24 23 23 22 22 22 21 21 21 20 20 20 21 21 21 21 21 22 24
6 5 3 4 5 7 10 12 15 17 18 19 20 21 21 21 22 23 23 23 23 23 23 23 22 21 21 20 19 19 19 19 19 18 18 18 19 20 20 20 21 22
7 6 4 3 3 4 5 7 10 13 15 16 17 18 19 19 20 20 21 21 22 22 22 21 21 20 19 18 17 17 17 17 17 17 17 17 17 19 19 19 19 20
7 6 5 4 3 2 3 4 6 8 11 13 14 15 16 17 17 17 18 19 19 19 20 19 19 19 18 16 15 15 15 15 15 15 15 15 16 17 17 17 17 17
12 9 7 6 4 2 2 3 4 4 5 8 10 12 13 14 15 15 15 15 16 16 17 17 17 17 16 15 14 13 12 12 12 13 13 14 14 14 15 16 15 15
16 14 11 9 7 5 5 4 2 2 3 4 6 8 10 10 11 13 13 13 13 13 14 15 15 15 15 14 14 13 11 10 10 10 11 12 12 13 13 14 14 14
20 18 16 14 12 10 9 7 6 4 4 3 4 5 7 7 8 9 10 11 11 10 11 11 12 12 13 12 12 12 11 10 8 8 9 10 11 11 12 12 12 12
24 22 20 18 16 15 13 12 10 8 7 6 5 5 5 6 6 7 8 9 9 8 8 8 9 9 10 10 10 10 9 8 7 6 7 8 11 12 12 12 11 10
26 25 24 23 21 19 18 16 14 13 11 10 8 8 7 6 6 7 7 8 8 8 7 6 6 7 7 7 7 6 7 6 5 5 5 7 11 12 11 10 9 8
29 29 28 26 25 24 22 20 19 18 16 14 12 11 10 9 9 8 8 9 9 9 8 6 5 4 4 4 4 4 4 3 3 3 3 6 10 10 7 7 6 4
32 31 30 28 27 25 23 22 21 21 20 18 17 16 15 13 12 11 11 11 10 10 9 8 7 6 4 2 2 2 3 2 1 2 3 4 8 9 5 3 2 2
35 33 32 30 28 26 24 23 23 22 21 20 20 20 18 17 15 15 14 13 12 12 11 10 10 9 7 6 5 5 5 6 5 4 4 2 4 7 6 3 1 1
37 34 33 32 30 29 28 27 26 25 24 23 23 23 21 20 19 18 17 15 14 14 13 13 13 13 12 10 9 8 8 8 9 9 9 7 2 3 4 4 4 3
38 35 34 33 32 32 31 32 31 30 28 27 25 24 23 22 22 21 20 18 17 16 16 16 16 16 16 15 14 13 12 12 12 13 14 13 10 5 4 5 5 4
39 38 38 36 34 33 33 33 33 31 29 26 24 22 23 23 23 23 22 21 21 20 20 19 19 19 19 19 18 18 17 17 16 16 17 17 16 13 10 9 8 7
42 41 42 41 38 35 34 34 34 32 29 27 25 24 24 24 25 25 26 26 25 24 23 23 23 23 23 22 22 22 22 21 21 20 19 19 20 19 17 15 13 11
46 43 44 44 42 39 38 38 37 35 34 33 29 26 26 28 29 29 29 28 27 26 27 27 27 28 28 27 26 25 25 25 25 24 22 22 22 23 22 21 19 17
49 47 46 45 44 42 40 40 39 38 38 38 34 30 31 33 35 35 34 32 31 32 31 30 30 31 31 31 30 28 27 28 28 28 27 26 26 26 25 25 25 24
50 50 51 51 48 45 42 41 41 39 38 39 38 36 37 39 41 42 41 39 38 38 36 34 34 35 32 31 31 30 29 29 31 32 32 32 31 30 29 29 28 28
54 52 54 55 52 48 45 44 44 43 41 41 42 42 43 44 44 46 46 45 44 43 40 37 38 38 35 31 31 30 30 31 32 34 36 36 36 35 34 33 32 31
64 61 58 56 53 50 48 48 49 49 48 48 48 48 48 47 48 49 50 51 50 47 44 41 39 39 37 35 33 32 33 35 35 36 37 39 40 39 38 36 36 35
66 67 65 63 60 57 54 53 54 53 53 53 53 52 52 51 51 52 53 54 54 52 48 44 41 39 39 38 37 36 37 39 38 38 39 41 42 42 41 39 38 37
67 67 68 69 69 67 64 62 60 58 56 55 55 55 55 55 54 55 56 57 57 55 52 48 44 43 43 42 41 42 43 43 42 41 43 44 44 43 43 44 43 41

ECMWFNIL_250_spd_111.txt.gz
Wind_Speed
16 17 18 18 19 20 21 22 23 24 24 25 27 28 28 29 29 29 29 29 29 29 29 29 28 27 25 24 23 24 25 25 25 24 23 23 23 24 25 26 26 26
13 14 16 16 17 18 20 20 22 22 23 24 25 26 27 27 28 28 28 28 28 27 27 27 27 26 26 24 24 24 25 25 25 24 23 22 23 23 24 24 24 24
8 10 12 14 14 16 17 19 20 21 22 22 23 24 25 25 26 26 26 27 26 26 25 25 25 25 25 24 23 23 24 24 24 23 22 21 21 22 23 23 22 22
7 6 7 10 11 13 14 16 17 19 20 21 22 22 22 23 24 24 24 25 25 25 24 23 23 23 23 23 22 21 22 22 22 22 21 20 20 21 21 21 20 20
8 6 5 6 7 8 11 13 14 16 17 19 20 21 21 21 21 22 22 23 23 23 23 22 22 21 21 21 21 19 19 19 20 21 21 20 19 20 20 19 19 18
6 6 5 4 4 4 7 9 11 12 14 15 17 18 19 19 19 19 19 20 21 21 22 21 21 20 20 20 20 19 18 18 18 19 20 20 19 18 18 17 17 17
2 2 3 3 3 3 4 6 7 9 10 12 13 14 15 16 17 17 17 18 19 19 20 20 20 19 19 19 19 19 18 17 16 16 17 17 18 17 17 16 15 15
6 5 4 2 0 0 1 2 3 4 6 8 9 10 11 12 14 14 15 15 15 16 17 18 18 18 18 18 18 17 17 16 15 14 14 14 14 14 14 13 13 13
11 10 8 7 6 5 4 3 1 1 2 4 5 6 7 8 9 11 11 12 12 13 14 14 15 16 16 17 17 16 16 16 15 14 13 12 11 10 10 10 10 10
15 14 13 11 10 10 9 7 6 4 3 3 3 4 4 5 6 7 7 9 10 10 10 11 11 12 13 14 14 15 15 15 15 15 14 13 11 10 9 8 8 8
19 18 17 16 14 14 13 12 11 9 7 7 5 4 5 5 5 5 4 5 6 7 7 7 7 8 10 11 12 12 12 13 15 15 14 12 10 9 8 7 6 6
23 22 21 19 18 16 16 15 14 12 11 10 9 7 7 7 7 6 5 4 3 3 4 4 4 5 6 7 8 9 10 9 10 11 11 10 9 8 7 6 5 4
26 26 24 23 21 20 18 17 16 15 14 13 12 11 9 8 7 7 6 5 4 2 2 2 2 3 3 4 4 5 6 7 7 7 8 8 9 8 8 7 5 3
29 28 28 27 25 23 22 21 19 18 17 16 16 14 13 11 9 8 8 7 6 5 4 4 4 3 3 3 3 3 4 5 5 4 5 6 6 6 6 7 7 7
31 30 29 29 29 27 25 24 23 21 19 18 18 17 16 14 13 11 11 10 9 7 6 6 6 6 5 5 6 6 6 7 7 5 3 5 6 5 5 5 6 7
34 32 30 30 30 30 29 27 25 24 23 21 20 20 19 17 16 16 15 14 12 11 9 8 8 8 8 8 8 9 9 9 10 9 7 7 7 8 8 8 8 7
36 34 32 30 30 31 31 30 27 25 25 25 25 24 23 22 21 21 20 18 16 14 12 11 10 10 10 11 11 12 12 12 13 13 12 11 11 12 12 12 12 12
36 36 35 32 31 32 33 32 30 28 27 27 28 28 28 26 25 25 24 22 19 17 15 14 14 14 13 13 14 14 15 15 16 16 16 15 15 15 15 16 16 16
40 38 36 34 33 34 34 35 33 31 30 29 29 30 30 29 27 27 26 24 22 20 18 17 16 16 16 15 16 17 18 19 20 20 21 20 19 19 19 18 18 19
45 42 39 37 36 36 35 36 36 34 34 33 32 32 31 30 28 28 28 27 25 23 20 18 18 18 19 18 18 20 21 21 22 23 24 24 24 23 22 22 21 21
49 46 44 42 41 39 37 38 39 39 38 37 36 36 35 33 32 32 33 32 30 28 25 22 21 22 23 24 24 23 23 24 25 25 25 26 26 25 25 25 25 24
53 50 48 46 45 43 42 41 40 40 40 41 42 42 41 38 36 37 39 39 37 33 30 27 26 26 28 30 30 28 27 27 28 28 27 27 26 26 26 27 28 29
58 55 51 49 47 45 44 43 41 38 38 40 43 45 45 43 41 41 43 43 41 38 35 32 30 29 31 33 34 34 33 32 31 31 30 28 28 28 28 29 30 32
63 60 56 54 52 49 48 45 42 40 39 38 41 45 48 48 47 46 46 44 43 42 40 37 34 33 34 35 36 36 36 36 35 34 33 32 30 30 31 33 35 35
65 64 61 59 57 58 58 55 50 48 48 47 48 50 52 52 50 49 48 46 46 46 44 42 39 39 38 38 36 36 36 38 39 39 38 36 34 34 36 37 39 40
66 66 65 63 62 64 65 63 59 55 54 55 55 55 56 57 55 52 50 49 48 48 47 46 45 44 42 40 39 39 39 39 40 41 41 40 39 40 40 40 41 42

ECMWFNIL_250_spd_114.txt.gz
Wind_Speed
19 20 21 21 21 22 23 24 25 26 27 28 30 31 32 32 31 30 28 26 25 24 23 24 24 23 22 22 23 24 25 26 26 26 26 25 25 25 25 25 25 25
16 17 19 20 20 21 22 22 24 25 25 26 27 28 30 31 31 30 28 27 25 24 23 23 24 23 22 22 22 23 24 25 25 24 24 24 24 23 23 23 23 22
13 15 16 17 18 19 20 21 22 23 24 24 25 25 27 28 30 30 29 27 25 24 23 22 23 23 22 21 22 22 23 24 24 23 23 23 22 22 22 21 21 20
11 12 13 14 15 16 18 19 20 21 21 22 23 23 24 25 27 28 28 27 26 24 22 21 21 21 21 21 20 20 21 22 22 22 22 21 21 20 20 20 19 18
10 10 10 11 12 13 15 16 17 18 19 20 21 21 22 23 24 25 26 26 25 24 22 20 19 19 19 19 19 19 19 19 20 20 20 19 19 19 18 18 17 17
10 9 9 9 9 11 12 13 14 15 16 17 18 19 20 20 21 22 23 23 24 23 22 21 19 18 18 18 18 17 17 17 17 17 17 17 17 16 16 16 16 15
5 6 7 7 7 8 9 10 11 11 12 13 14 16 17 17 18 18 19 20 20 21 21 21 19 18 17 17 16 16 16 15 15 15 14 14 14 14 14 13 14 14
1 1 2 4 5 5 6 6 7 8 9 10 11 12 13 13 14 15 15 16 17 17 18 19 19 18 17 16 15 15 14 14 13 13 12 12 11 11 11 11 11 11
6 5 3 1 0 1 1 2 4 5 6 7 8 8 9 10 10 11 12 12 12 13 14 16 16 17 17 16 15 14 13 12 11 11 10 9 9 8 8 8 8 8
10 8 7 6 5 4 2 1 1 2 3 3 4 5 5 6 7 7 8 9 9 9 10 11 13 14 15 15 15 14 13 12 10 9 8 8 6 5 5 5 5 5
13 11 10 10 9 8 7 5 4 3 3 3 3 3 3 3 4 4 4 5 5 6 6 7 8 9 10 11 13 13 12 11 10 10 9 8 7 5 4 3 2 2
16 15 14 13 12 12 11 10 8 7 7 6 6 6 5 4 3 3 2 1 1 1 2 3 3 4 4 5 7 8 9 9 8 9 8 8 7 6 5 3 2 1
18 18 17 17 16 15 15 14 13 12 11 10 9 9 8 8 6 5 4 4 3 2 2 2 1 1 0 0 1 3 5 5 5 6 6 6 5 5 5 5 4 3
21 20 20 20 20 19 18 18 17 16 15 14 12 12 12 12 11 9 8 7 6 5 5 5 5 5 4 3 3 2 1 1 2 2 2 3 3 3 4 5 5 5
25 23 23 23 23 23 22 21 20 19 19 18 16 15 14 14 14 13 12 10 9 8 8 8 8 7 7 6 6 5 5 4 3 3 4 4 4 5 4 4 5 6
28 27 26 26 26 26 25 24 23 22 22 22 20 18 17 17 17 17 15 14 12 12 11 11 11 10 10 10 9 8 8 7 6 6 6 7 8 8 9 9 9 9
31 30 29 27 27 27 28 28 27 26 24 23 22 21 20 20 20 20 19 18 17 17 16 16 15 14 13 13 12 10 9 8 7 7 8 9 10 11 12 13 14 13
35 33 31 30 28 27 28 29 29 28 27 25 23 22 23 23 23 23 23 23 22 22 21 20 20 19 18 17 15 13 10 9 8 8 9 10 11 12 13 15 16 17
37 35 34 33 31 29 28 28 29 29 30 29 28 26 26 26 26 26 26 26 25 24 24 23 23 23 23 21 19 16 14 11 9 9 11 12 13 14 15 16 17 18
40 39 38 37 35 34 33 31 30 29 30 31 33 33 30 29 29 29 28 27 26 25 25 25 25 25 25 24 22 20 17 15 14 14 14 14 15 16 17 17 18 18
42 42 42 42 40 38 37 36 33 33 33 34 36 36 34 32 31 31 31 30 29 29 29 29 28 27 26 27 26 24 22 20 19 19 19 18 17 17 18 18 18 18
43 44 43 42 42 40 40 40 37 36 37 37 37 36 36 36 35 34 34 33 32 31 31 32 32 31 29 29 30 28 26 24 24 23 22 21 20 19 19 19 19 19
46 46 42 40 41 41 41 42 42 42 42 42 41 39 38 40 40 39 38 38 36 34 33 34 35 36 35 35 35 34 31 28 27 25 24 23 22 20 20 21 21 21
48 49 48 46 45 44 43 43 45 47 45 44 45 43 41 42 42 42 43 43 42 40 38 38 38 40 40 40 39 38 37 34 31 27 26 25 24 22 22 23 24 24
50 53 56 55 53 52 52 52 52 52 49 46 47 47 46 46 45 44 45 46 46 44 43 42 43 44 45 44 43 41 41 40 37 33 30 29 27 26 25 26 26 27
51 55 59 60 57 57 59 58 57 56 55 53 53 52 51 50 49 48 49 49 49 48 45 45 46 46 47 49 50 49 47 45 43 40 37 35 33 31 29 29 29 30

ECMWFNIL_250_spd_117.txt.gz
Wind_Speed
21 22 23 24 24 26 27 28 29 30 30 29 28 26 25 23 23 22 21 21 22 23 24 25 26 26 25 25 25 24 24 24 24 24 24 25 26 27 27 28 29 30
19 20 21 22 22 23 24 26 27 28 29 29 28 26 25 24 23 22 21 21 21 22 23 24 24 24 23 23 23 22 22 22 22 22 22 22 22 22 23 24 25 26
16 18 18 19 20 21 21 22 24 25 26 27 28 27 25 23 23 22 21 20 20 20 21 22 23 22 22 22 21 21 21 21 20 20 20 19 19 19 20 20 21 21
14 15 16 17 18 19 20 20 21 22 23 25 26 26 25 24 22 21 20 19 19 19 19 20 21 21 21 20 20 20 19 19 19 18 18 18 17 17 17 18 18 18
11 12 14 15 16 17 18 18 19 19 20 21 22 23 24 24 23 20 18 17 18 18 18 18 18 19 19 19 19 18 18 18 18 17 17 16 16 16 16 15 15 15
10 10 11 12 13 14 15 16 16 17 17 17 18 19 20 21 22 21 19 17 16 15 16 16 16 17 17 18 18 17 17 17 16 16 16 15 15 15 14 14 13 13
11 10 9 9 9 10 11 11 12 13 14 14 15 15 16 16 18 20 20 18 16 14 13 13 14 15 15 16 17 16 16 16 15 15 14 14 14 13 13 12 12 11
9 9 9 8 7 6 6 7 8 9 10 10 11 11 12 12 13 14 16 17 17 15 13 12 12 12 13 14 14 14 14 14 14 13 13 13 12 12 11 11 10 9
7 7 7 6 5 4 3 3 3 4 5 6 7 7 8 8 9 9 10 12 14 15 14 13 11 10 10 11 11 11 11 11 11 11 10 10 10 10 10 10 9 8
9 8 7 6 5 3 2 2 1 1 1 1 3 4 4 5 5 5 6 7 8 10 12 13 12 10 10 10 10 9 9 9 9 9 9 9 8 8 8 7 7 7
10 9 8 7 5 4 4 4 4 4 4 3 2 1 0 1 2 2 2 2 3 4 7 9 11 11 10 10 9 9 9 9 9 9 8 8 8 7 7 7 6 6
12 11 10 9 7 6 6 6 7 7 7 6 5 5 4 4 3 2 2 2 2 2 2 4 6 7 8 8 8 8 8 8 8 8 8 7 7 6 6 6 5 5
14 14 13 12 11 10 10 10 10 10 10 9 8 8 8 7 7 7 6 5 5 5 5 4 4 4 5 5 6 6 6 7 7 6 6 6 6 5 5 5 5 4
18 17 17 16 15 14 13 14 14 13 13 12 11 11 10 10 10 10 10 9 8 8 8 8 7 7 7 6 6 5 5 5 5 5 4 4 4 4 3 3 3 3
21 21 20 20 19 18 16 16 16 16 15 14 14 14 14 13 13 12 13 13 12 11 10 10 10 10 10 10 9 8 8 7 6 6 5 5 4 4 3 3 3 3
24 23 23 23 23 22 21 20 20 20 20 18 17 17 17 17 16 15 15 15 15 14 13 12 12 12 12 12 12 12 12 10 9 8 7 7 7 7 7 6 7 7
27 26 26 26 26 26 24 23 24 25 25 25 23 22 21 20 19 18 17 17 17 17 17 16 15 15 15 15 15 15 15 14 13 12 11 11 10 10 9 9 9 9
29 28 28 29 29 30 29 27 26 26 26 27 28 27 25 23 21 20 20 20 20 21 21 20 19 18 18 18 18 18 18 17 16 16 15 14 14 12 11 10 9 10
29 28 30 31 31 33 34 33 31 30 29 29 28 28 27 25 25 25 24 23 22 22 23 23 23 23 21 21 21 22 22 21 20 19 18 17 16 14 12 10 9 9
32 31 33 33 31 32 35 37 36 35 33 32 31 30 28 27 26 27 28 27 25 24 24 25 25 26 24 23 22 24 25 25 24 23 21 19 18 15 13 11 10 9
36 35 35 35 33 34 35 37 38 37 36 36 35 34 33 31 30 29 30 30 28 27 28 28 27 27 26 25 25 26 27 28 28 27 25 23 20 18 16 14 13 12
39 37 37 36 35 37 38 38 39 39 38 38 38 38 38 38 36 35 34 33 32 30 30 29 30 30 30 29 29 29 30 30 29 29 28 27 24 22 19 18 18 17
42 40 41 39 38 40 43 43 42 40 39 39 39 40 41 42 42 40 39 38 37 35 33 31 31 32 33 33 32 32 32 32 32 31 31 29 27 25 22 20 20 20
43 42 42 42 42 43 44 46 46 44 42 41 41 43 44 45 44 43 42 42 42 41 38 36 35 36 37 37 36 35 34 34 34 35 35 34 32 30 27 25 23 22
44 43 42 44 46 44 42 45 48 47 46 45 46 47 46 45 45 44 43 43 44 44 43 42 41 41 42 42 41 40 39 38 37 38 38 39 39 38 36 33 31 28
47 47 47 49 51 49 47 48 50 50 51 51 51 51 49 48 46 45 44 43 43 44 45 46 46 45 46 47 46 45 45 44 43 42 42 42 43 42 41 39 38 36

ECMWFNIL_250_spd_120.txt.gz
Wind_Speed
21 22 23 24 25 26 25 24 23 22 22 22 23 24 25 26 26 26 26 26 25 25 24 24 24 24 24 25 25 26 27 28 29 29 29 29 28 27 27 26 25 25
20 21 21 22 23 24 25 25 23 22 22 21 21 22 23 24 25 25 24 24 24 23 23 22 22 22 22 22 23 23 24 25 25 26 26 25 25 24 23 23 22 21
19 20 20 21 21 23 24 24 24 23 22 21 20 20 21 22 23 23 22 22 22 21 21 21 20 20 20 20 20 21 21 22 22 23 23 23 22 21 20 19 19 18
17 18 19 20 20 21 21 22 23 23 22 21 19 19 18 19 20 21 20 20 20 19 19 19 19 19 19 19 19 19 19 19 20 20 20 20 19 18 17 16 15 15
15 16 17 18 18 19 19 20 20 21 21 21 20 18 17 16 17 17 18 18 18 18 17 17 17 17 17 17 17 17 17 17 17 17 17 17 16 15 14 14 13 12
14 14 15 15 15 16 16 17 17 18 19 19 19 18 17 15 14 14 15 16 16 16 16 15 15 15 15 15 15 16 16 15 15 15 15 15 14 14 13 11 10 10
14 14 14 13 13 13 14 14 14 15 15 16 16 16 16 15 14 12 12 12 13 14 14 14 13 13 13 14 14 14 14 14 14 14 13 13 12 12 11 10 9 9
15 14 13 12 11 11 11 11 11 11 12 12 12 13 13 13 13 11 10 10 10 11 11 12 12 12 12 12 12 12 12 12 12 12 11 11 11 10 10 9 9 8
15 13 12 11 10 9 9 8 8 8 8 8 8 9 9 9 10 9 9 8 7 8 9 10 10 11 11 11 11 11 11 11 11 10 10 9 9 9 8 7 7 6
13 13 12 11 9 8 7 7 7 6 6 5 5 5 5 6 6 6 6 6 6 6 6 7 8 9 9 10 10 10 10 10 10 10 9 9 8 7 7 6 6 5
13 13 12 11 10 9 7 7 7 6 6 5 4 3 2 2 2 2 3 3 4 4 4 4 5 5 7 7 8 8 9 9 9 9 9 9 9 8 8 8 7 7
15 14 13 12 11 11 10 9 9 8 7 7 6 5 4 3 3 2 2 2 2 3 4 3 3 3 3 4 4 5 6 6 7 7 8 8 8 8 9 9 8 8
17 16 15 14 14 13 12 12 11 10 9 9 9 9 8 8 7 7 6 6 5 5 5 5 5 4 4 4 4 4 4 4 5 6 6 6 6 6 6 7 7 7
19 18 17 16 16 15 14 13 13 12 12 11 11 11 11 11 10 10 10 10 9 9 8 8 8 8 7 7 6 6 6 6 6 6 6 6 6 5 5 5 5 5
21 21 20 19 18 17 16 15 14 14 13 13 13 14 14 13 12 12 12 12 12 12 12 11 11 11 10 10 10 10 10 9 9 9 9 9 8 8 7 7 7 7
25 24 23 21 21 20 20 19 18 17 16 15 15 15 14 14 14 13 14 14 14 15 16 16 16 15 14 13 13 13 13 13 12 12 12 11 11 11 11 11 11 11
29 28 26 25 25 25 25 24 22 21 20 18 18 17 17 17 17 16 16 16 17 17 18 19 19 18 17 17 16 16 16 16 16 16 15 15 15 15 15 15 14 14
32 31 29 29 29 29 29 27 25 24 23 21 21 21 22 23 22 21 20 19 20 21 21 22 22 22 21 19 19 18 19 19 20 20 19 19 19 19 19 18 17 15
35 34 33 33 33 32 31 30 27 25 24 24 23 24 25 24 24 24 24 24 24 24 25 25 24 24 24 23 22 22 21 22 22 23 22 22 22 22 22 21 19 17
39 38 37 37 36 34 34 33 31 29 27 27 27 27 27 27 27 27 28 28 27 26 27 27 26 26 26 27 26 26 25 24 25 25 25 25 24 25 25 24 21 19
42 40 40 40 39 37 37 36 35 33 31 30 29 29 29 30 31 32 33 33 31 29 28 28 29 29 29 29 30 29 28 26 26 27 27 27 27 28 28 27 25 22
43 42 42 42 41 41 40 39 39 38 36 35 34 32 32 32 33 35 36 36 35 33 32 31 32 33 33 33 33 32 31 29 28 28 28 28 29 30 31 31 29 27
45 45 44 44 44 44 43 42 42 41 40 39 38 36 34 34 35 37 38 38 38 38 37 37 36 36 36 36 35 35 35 33 32 30 29 29 30 31 32 33 33 33
46 46 46 45 44 44 45 45 43 42 42 42 40 39 39 39 40 41 40 39 40 41 41 41 41 41 41 40 39 38 37 36 35 34 33 32 32 32 33 34 36 36
48 48 48 47 45 45 47 47 46 46 47 46 44 43 45 46 46 46 45 44 42 42 42 43 44 45 45 45 44 42 41 40 38 37 36 35 35 35 36 37 38 39
49 50 49 48 48 47 45 44 46 47 48 49 49 48 49 51 50 50 51 51 50 48 46 46 46 47 47 48 47 47 46 46 44 42 40 39 38 39 40 40 41 41

ECMWFNIL_250_spd_123.txt.gz
Wind_Speed
20 21 22 22 23 23 23 23 23 24 24 24 24 24 23 24 24 25 25 26 27 27 27 27 28 29 30 31 30 29 29 28 28 27 27 26 26 25 25 26 26 26
20 20 21 22 23 23 22 22 22 22 23 23 24 24 23 23 24 24 24 24 24 25 25 26 27 28 28 29 28 26 26 25 24 24 23 22 22 22 22 22 22 23
21 20 20 21 22 23 22 21 21 21 21 21 22 22 22 22 22 22 22 22 22 23 23 24 26 26 26 26 25 24 23 22 22 21 19 19 18 18 19 19 19 19
21 21 21 21 21 22 22 22 21 20 19 19 20 20 20 20 20 20 20 20 20 20 21 22 23 23 23 23 23 22 21 20 19 18 17 16 16 15 15 15 15 15
19 20 20 21 21 22 22 22 21 19 18 17 17 17 17 18 17 18 18 17 18 18 18 18 19 19 20 20 20 20 19 18 17 16 15 14 13 13 12 11 11 11
17 18 19 19 20 21 21 21 20 19 18 17 16 15 15 15 14 15 15 14 15 15 15 15 15 16 16 16 17 17 17 16 15 14 13 12 11 10 9 8 8 9
15 15 16 17 17 18 18 19 19 19 18 17 15 14 13 12 12 11 11 11 11 12 12 12 12 12 12 13 14 14 14 14 13 12 11 10 9 8 7 7 8 8
12 13 13 14 14 14 15 15 16 16 16 16 15 14 12 11 10 9 9 9 9 9 9 9 9 10 10 10 11 11 11 11 11 10 9 8 8 7 7 7 7 7
9 10 10 10 11 11 11 11 12 12 12 13 13 13 12 11 10 9 8 8 8 8 7 8 8 8 8 9 9 9 9 8 8 7 7 7 6 6 6 6 5 5
10 9 8 8 8 8 8 8 8 8 8 9 9 9 9 10 9 8 7 6 6 6 7 7 7 8 8 8 8 8 7 7 6 6 5 5 5 5 5 5 5 5
14 12 10 9 8 7 7 6 5 5 5 5 5 5 6 6 6 6 6 5 4 4 5 5 6 7 8 9 9 9 8 8 7 7 6 6 6 6 5 6 6 5
17 15 14 13 12 10 10 9 8 7 6 5 5 4 3 3 2 3 3 2 2 2 2 3 4 5 6 7 7 8 8 9 10 9 8 8 9 8 8 9 9 9
19 18 17 16 16 15 14 13 12 11 10 10 9 8 7 5 4 3 3 2 2 2 2 2 2 3 4 4 4 5 7 8 9 9 9 10 10 10 10 11 12 11
22 21 21 20 19 18 17 16 15 14 13 12 12 11 9 8 7 6 6 6 6 6 6 6 6 6 6 5 5 6 7 7 7 7 8 9 9 9 10 10 10 10
25 24 24 22 21 20 20 19 18 17 15 14 13 12 10 9 8 7 8 9 9 10 10 11 11 10 10 10 10 10 9 9 9 9 8 9 9 9 9 9 9 9
28 28 26 24 23 23 24 22 20 19 17 15 13 12 11 10 9 9 10 11 12 13 14 15 15 14 14 15 14 14 14 13 13 13 12 12 12 12 11 11 12 12
31 30 28 27 26 26 26 24 22 20 18 16 14 13 12 11 11 12 13 15 15 15 16 18 18 18 18 18 17 17 17 17 17 18 18 17 17 16 15 15 16 16
34 33 31 30 29 29 27 27 25 23 21 19 18 16 15 15 16 17 19 20 20 20 21 20 18 19 21 21 21 21 21 21 21 22 21 21 21 20 20 19 19 19
36 35 34 33 32 31 30 29 27 26 26 25 23 20 18 18 20 22 24 25 24 24 25 24 21 21 22 23 24 25 25 25 24 24 24 23 24 24 24 24 23 22
40 39 38 36 36 34 33 32 30 29 27 27 26 24 23 23 23 24 26 27 27 27 28 26 25 26 26 25 26 27 28 28 28 27 26 26 26 27 27 26 25 25
43 42 41 40 39 38 37 36 35 32 29 28 28 27 27 28 27 27 28 30 31 32 32 30 28 29 30 29 29 29 30 30 30 30 30 29 30 30 30 29 28 28
46 44 44 43 43 42 41 40 38 36 34 31 29 29 30 32 32 32 32 33 34 35 36 35 32 32 34 33 31 31 31 32 32 33 32 32 33 33 33 32 31 31
46 46 46 47 47 46 45 43 42 40 38 36 33 33 35 36 37 37 37 37 37 36 37 37 36 36 38 38 36 34 33 33 34 35 34 34 34 35 35 35 34 34
47 47 48 51 50 49 48 46 45 44 43 41 39 38 40 41 41 41 42 42 41 39 39 39 39 40 41 40 40 39 37 37 37 37 37 37 37 37 37 37 36 36
49 48 50 52 50 49 50 50 48 47 46 45 43 41 42 44 43 43 45 46 44 42 41 41 42 42 42 41 41 42 42 42 42 41 41 41 40 40 39 39 39 39
52 51 52 53 51 50 52 53 52 51 49 48 46 44 45 46 46 45 45 46 46 44 44 45 46 47 46 45 45 46 46 46 46 45 45 45 45 44 43 42 42 42